Date StartTime U_cm/s V_cm/s W_cm/s Ustd_cm/s Vstd_cm/s Wstd_cm/s Uvar_(cm/s)^2 Vvar_(cm/s)^2 Wvar_(cm/s)^2 KE_(m/s)^2 TurbulentKE_(m/s)^2 HorizWindSpeed_cm/s FrictionSpeec_cm/s DragCoef SpeedOfSound_m/s SonicTemperature_C Pressure_mb 
08/20/2013  00:00:00      -92.102      -58.075       11.785       55.260       57.576       38.166     3053.629     3315.009     1456.638        0.991        0.391      108.882       31.631        0.084      345.343       22.806      862.432
08/20/2013  00:01:00      -85.345      -92.524      -11.516       52.005       52.163       28.527     2704.555     2720.958      813.803        1.111        0.312      125.875       23.644        0.035      345.344       22.807      862.444
08/20/2013  00:02:00      -90.125     -109.482        0.143       53.130       56.863       33.374     2822.817     3233.446     1113.840        1.364        0.359      141.805       30.368        0.046      345.422       22.940      862.455
08/20/2013  00:03:00      -56.706      -67.669        7.739       47.548       38.903       28.519     2260.812     1513.471      813.312        0.622        0.229       88.287       24.296        0.076      345.317       22.760      862.453
08/20/2013  00:04:00      -53.875      -32.524        8.579       51.818       41.293       31.408     2685.060     1705.138      986.459        0.470        0.269       62.931       31.358        0.248      345.311       22.750      862.432
08/20/2013  00:05:00      -70.174      -52.021       11.234       57.400       46.419       34.668     3294.748     2154.762     1201.836        0.720        0.333       87.353       33.913        0.151      345.303       22.734      862.434
08/20/2013  00:06:00     -102.308      -80.094        3.261       70.996       40.939       34.789     5040.458     1675.988     1210.246        1.241        0.396      129.930       39.782        0.094      345.309       22.746      862.431
08/20/2013  00:07:00     -101.986      -95.282        2.692       44.696       63.595       33.413     1997.722     4044.384     1116.425        1.332        0.358      139.570       30.612        0.048      345.332       22.786      862.429
08/20/2013  00:08:00      -80.611      -81.191       -0.163       55.531       36.429       19.147     3083.657     1327.079      366.621        0.893        0.239      114.412       22.495        0.039      345.284       22.703      862.422
08/20/2013  00:09:00      -37.849      -92.295        9.865       53.563       56.427       28.516     2868.980     3183.955      813.184        0.846        0.343       99.754       29.610        0.088      345.296       22.725      862.428
08/20/2013  00:10:00      -88.447      -53.528       -4.288       42.338       33.170       22.511     1792.499     1100.223      506.723        0.705        0.170      103.383       15.432        0.022      345.266       22.672      862.413
08/20/2013  00:11:00      -52.596      -51.646       -6.149       33.366       30.092       21.959     1113.259      905.509      482.181        0.399        0.125       73.713       15.532        0.044      345.255       22.654      862.408
08/20/2013  00:12:00      -82.365      -64.110       -1.038       41.324       45.039       27.152     1707.677     2028.550      737.233        0.768        0.224      104.375       29.174        0.078      345.197       22.556      862.413
08/20/2013  00:13:00      -76.295      -35.746        4.248       38.969       28.549       23.518     1518.570      815.032      553.116        0.500        0.144       84.254       23.118        0.075      345.132       22.444      862.406
08/20/2013  00:14:00      -42.324      -42.843        8.518       34.691       27.336       21.479     1203.463      747.258      461.368        0.306        0.121       60.224       20.477        0.116      345.124       22.431      862.402
08/20/2013  00:15:00      -58.188      -43.891        1.570       43.174       25.673       23.721     1864.003      659.106      562.664        0.420        0.154       72.885       22.918        0.099      345.143       22.462      862.394
08/20/2013  00:16:00     -112.543      -72.305       -9.874       26.530       36.277       19.436      703.850     1316.049      377.771        1.019        0.120      133.768       15.580        0.014      345.159       22.491      862.390
08/20/2013  00:17:00      -75.900      -42.854       -3.144       37.141       30.421       23.949     1379.431      925.427      573.550        0.524        0.144       87.162       25.120        0.083      345.194       22.551      862.371
08/20/2013  00:18:00      -91.788       -7.522       -1.445       47.590       23.285       21.333     2264.781      542.183      455.108        0.587        0.163       92.095       23.850        0.067      345.160       22.491      862.341
08/20/2013  00:19:00      -94.471      -17.665       -4.801       42.770       30.740       19.044     1829.289      944.932      362.670        0.620        0.157       96.108       18.094        0.035      344.981       22.187      862.320
08/20/2013  00:20:00     -103.085       -1.712        0.301       46.905       26.286       24.711     2200.045      690.949      610.626        0.706        0.175      103.099       24.741        0.058      344.888       22.026      862.289
08/20/2013  00:21:00     -105.715        3.498       -4.376       42.227       28.941       22.168     1783.127      837.578      491.414        0.716        0.156      105.773       22.291        0.044      344.839       21.942      862.265
08/20/2013  00:22:00      -46.444      -26.802        7.672       29.079       28.822       20.697      845.599      830.685      428.362        0.252        0.105       53.623       17.427        0.106      344.884       22.020      862.256
08/20/2013  00:23:00       21.699      -29.507       15.210       21.543       21.273       19.814      464.096      452.557      392.597        0.144        0.065       36.626       12.831        0.123      344.689       21.685      862.253
08/20/2013  00:24:00       23.899      -29.427      -11.200       19.724       27.686       21.300      389.042      766.512      453.681        0.159        0.080       37.909        7.516        0.039      344.464       21.302      862.249
08/20/2013  00:25:00      -18.570       -1.889        5.786       27.337       18.040       10.060      747.299      325.454      101.212        0.078        0.059       18.666        9.169        0.241      344.767       21.821      862.230
08/20/2013  00:26:00      -65.358       -6.974       -6.129       10.174        8.330        9.380      103.503       69.396       87.993        0.231        0.013       65.729        4.370        0.004      345.061       22.324      862.224
08/20/2013  00:27:00      -37.495      -14.286       -5.315       15.635        8.319        6.543      244.439       69.213       42.812        0.100        0.018       40.125        3.895        0.009      345.042       22.291      862.221
08/20/2013  00:28:00       -4.838        2.058        8.902        7.026        6.162        6.551       49.371       37.973       42.921        0.012        0.007        5.257        3.458        0.433      344.720       21.739      862.205
08/20/2013  00:29:00       22.164      -21.744        5.980       14.902       19.669        8.056      222.065      386.885       64.907        0.084        0.034       31.049        4.642        0.022      344.823       21.915      862.191
08/20/2013  00:30:00        9.092      -26.572        3.517       10.977        8.581        6.153      120.504       73.638       37.858        0.052        0.012       28.084        5.529        0.039      344.969       22.167      862.172
08/20/2013  00:31:00      -34.091      -19.379       -7.660       16.251       13.120        7.491      264.096      172.138       56.117        0.104        0.025       39.214       10.200        0.068      345.014       22.242      862.161
08/20/2013  00:32:00      -48.929      -13.519      -10.228        8.018       10.904        6.748       64.294      118.888       45.541        0.146        0.011       50.762        6.108        0.014      344.969       22.164      862.143
08/20/2013  00:33:00      -65.553      -20.299       -7.656       15.209       11.166        9.642      231.329      124.681       92.969        0.261        0.022       68.624        8.034        0.014      344.901       22.049      862.123
08/20/2013  00:34:00      -43.961      -29.423       -5.743       24.698       10.728        9.839      610.009      115.090       96.805        0.183        0.041       52.899        6.025        0.013      344.856       21.972      862.101
08/20/2013  00:35:00      -47.692      -28.993        2.966       19.463       15.709       14.792      378.802      246.785      218.791        0.198        0.042       55.814       12.296        0.049      344.781       21.844      862.090
08/20/2013  00:36:00      -60.102      -37.180        2.775       38.727       26.918       17.142     1499.813      724.604      293.856        0.376        0.126       70.673       20.512        0.084      344.819       21.908      862.079
08/20/2013  00:37:00      -83.148      -22.055       -1.892       30.592       16.251       14.763      935.878      264.081      217.947        0.441        0.071       86.023       14.015        0.027      344.803       21.880      862.063
08/20/2013  00:38:00      -71.676      -24.135        1.364       25.357       21.821       12.206      642.956      476.155      148.975        0.349        0.063       75.631       11.428        0.023      344.746       21.783      862.055
08/20/2013  00:39:00      -66.842       -3.075       -3.773       27.704       28.712       13.326      767.504      824.364      177.576        0.313        0.088       66.913       10.946        0.027      344.733       21.761      862.068
08/20/2013  00:40:00      -53.074       -9.717       -1.128       30.074       19.594       15.363      904.465      383.908      236.020        0.222        0.076       53.956       13.996        0.067      344.713       21.725      862.068
08/20/2013  00:41:00      -69.169      -13.624        2.184       27.915       19.146       16.943      779.252      366.554      287.054        0.320        0.072       70.498       17.473        0.061      344.653       21.625      862.079
08/20/2013  00:42:00      -73.535      -25.926       -2.410       23.410       18.030       10.773      548.026      325.083      116.049        0.354        0.049       77.972        8.890        0.013      344.693       21.692      862.098
08/20/2013  00:43:00      -57.027      -25.417        2.455       37.034       15.948       13.248     1371.504      254.352      175.504        0.285        0.090       62.435       13.996        0.050      344.728       21.753      862.109
08/20/2013  00:44:00      -80.898      -52.575       -1.440       27.843       31.082       15.626      775.256      966.080      244.172        0.565        0.099       96.481        5.518        0.003      344.792       21.862      862.115
08/20/2013  00:45:00      -88.962      -72.133       -1.225       52.665       49.488       26.375     2773.597     2449.103      695.633        0.952        0.296      114.531       29.650        0.067      344.830       21.926      862.115
08/20/2013  00:46:00     -109.546      -79.932       -3.227       33.188       28.905       26.616     1101.418      835.483      708.423        1.052        0.132      135.608       15.886        0.014      344.793       21.864      862.107
08/20/2013  00:47:00      -96.290      -73.456        1.524       41.715       42.371       21.917     1740.102     1795.341      480.375        0.934        0.201      121.110       23.681        0.038      344.781       21.844      862.102
08/20/2013  00:48:00      -84.104      -50.485       -1.258       49.776       37.863       22.404     2477.694     1433.584      501.918        0.702        0.221       98.092       22.767        0.054      344.729       21.754      862.109
08/20/2013  00:49:00      -49.141      -21.211       13.384       57.399       36.574       29.074     3294.614     1337.666      845.326        0.426        0.274       53.524       28.677        0.287      344.705       21.713      862.111
08/20/2013  00:50:00      -38.651      -23.604       14.716       43.552       34.516       23.531     1896.766     1191.327      553.690        0.295        0.182       45.288       16.415        0.131      344.700       21.705      862.091
08/20/2013  00:51:00      -40.538      -28.135        2.125       29.306       26.948       17.529      858.825      726.196      307.249        0.217        0.095       49.345       11.084        0.050      344.741       21.773      862.068
08/20/2013  00:52:00      -17.436      -25.745       -0.687       32.031       35.136       20.779     1025.986     1234.541      431.786        0.183        0.135       31.094       19.857        0.408      344.781       21.843      862.053
08/20/2013  00:53:00      -29.835      -39.321        4.189       27.138       18.692       13.676      736.446      349.406      187.025        0.186        0.064       49.358       10.351        0.044      344.781       21.842      862.034
08/20/2013  00:54:00       -8.350      -21.913        6.099       18.336       20.950       13.146      336.202      438.917      172.825        0.077        0.047       23.451        8.850        0.142      344.805       21.885      862.026
08/20/2013  00:55:00        6.676      -55.098       -5.910       21.578       27.129       19.703      465.629      735.990      388.196        0.235        0.079       55.501        5.034        0.008      344.957       22.144      862.020
08/20/2013  00:56:00       -5.154      -44.255      -15.381       20.479       27.515       18.956      419.377      757.063      359.346        0.188        0.077       44.554       15.896        0.127      344.799       21.872      862.005
08/20/2013  00:57:00      -25.404      -36.773        3.081       23.305       25.066       11.510      543.124      628.280      132.491        0.166        0.065       44.695        9.703        0.047      344.748       21.787      861.998
08/20/2013  00:58:00      -20.663      -55.155        8.863       50.715       34.645       29.076     2571.964     1200.300      845.418        0.408        0.231       58.898       28.324        0.231      344.776       21.834      861.984
08/20/2013  00:59:00      -23.898      -77.559       12.455       39.375       36.740       26.790     1550.379     1349.829      717.708        0.518        0.181       81.157       18.085        0.050      344.779       21.838      861.977
08/20/2013  01:00:00      -35.785      -42.171        2.808       29.162       24.625       20.541      850.405      606.386      421.922        0.247        0.094       55.308       15.726        0.081      344.791       21.861      861.977
08/20/2013  01:01:00      -28.126      -22.436        6.769       37.530       21.109       18.818     1408.527      445.601      354.131        0.177        0.110       35.978       20.248        0.317      344.664       21.644      861.971
08/20/2013  01:02:00      -43.790      -26.960        1.670       47.110       26.336       20.728     2219.309      693.570      429.662        0.299        0.167       51.424       20.253        0.155      344.669       21.652      861.966
08/20/2013  01:03:00      -47.128      -60.334        3.623       34.664       29.430       18.069     1201.615      866.146      326.498        0.413        0.120       76.559       15.698        0.042      344.677       21.664      861.971
08/20/2013  01:04:00      -45.013      -44.958        0.771       29.702       32.805       16.709      882.220     1076.197      279.202        0.314        0.112       63.619       15.667        0.061      344.771       21.827      861.994
08/20/2013  01:05:00      -19.725      -24.819       12.003       31.484       25.771       20.960      991.232      664.164      439.330        0.162        0.105       31.703       18.513        0.341      344.692       21.691      862.006
08/20/2013  01:06:00      -47.044      -45.869        5.493       35.912       36.701       15.352     1289.640     1346.995      235.681        0.361        0.144       65.705       12.613        0.037      344.709       21.720      862.026
08/20/2013  01:07:00      -60.960      -43.851       -3.716       43.079       27.235       19.933     1855.811      741.718      397.319        0.432        0.150       75.093       11.472        0.023      344.716       21.732      862.031
08/20/2013  01:08:00      -21.892        1.756       11.901       10.575       13.265       11.412      111.823      175.959      130.236        0.052        0.021       21.962        7.794        0.126      344.619       21.567      862.041
08/20/2013  01:09:00      -25.307        1.154        1.199       13.395       10.811        7.423      179.429      116.874       55.097        0.050        0.018       25.333        4.826        0.036      344.581       21.502      862.048
08/20/2013  01:10:00      -42.267       10.647        5.209       19.060       13.938       14.383      363.291      194.264      206.882        0.135        0.038       43.588       12.124        0.077      344.599       21.533      862.057
08/20/2013  01:11:00      -35.425       -3.775       -4.000       27.849       20.699       10.368      775.543      428.455      107.499        0.130        0.066       35.626       14.608        0.168      344.566       21.475      862.065
08/20/2013  01:12:00      -35.602      -24.902       -1.526       33.672       17.446       17.266     1133.836      304.378      298.114        0.181        0.087       43.446       12.506        0.083      344.531       21.417      862.052
08/20/2013  01:13:00      -77.482      -64.777       -7.757       26.095       28.648       17.999      680.926      820.720      323.963        0.604        0.091      100.992       14.884        0.022      344.621       21.571      862.031
08/20/2013  01:14:00      -52.205      -43.176       -4.234       20.079       22.635       13.021      403.151      512.354      169.554        0.285        0.054       67.746       12.203        0.032      344.611       21.553      862.004
08/20/2013  01:15:00      -55.253      -29.906       -1.687       15.040       13.590        7.431      226.193      184.699       55.216        0.221        0.023       62.828        4.353        0.005      344.581       21.500      861.986
08/20/2013  01:16:00      -50.195      -10.958        1.435       12.296       15.372        8.932      151.198      236.308       79.783        0.155        0.023       51.377        7.379        0.021      344.569       21.481      861.974
08/20/2013  01:17:00      -41.305      -14.025        1.189       20.548       11.893        9.731      422.204      141.434       94.685        0.128        0.033       43.621        7.525        0.030      344.580       21.503      861.966
08/20/2013  01:18:00      -17.264      -12.668        5.158       15.115       13.299        8.827      228.467      176.860       77.922        0.048        0.024       21.413        7.380        0.119      344.581       21.502      861.953
08/20/2013  01:19:00      -39.019      -12.922        3.019       20.228       15.129       12.307      409.180      228.886      151.473        0.124        0.039       41.103       10.584        0.066      344.577       21.496      861.941
08/20/2013  01:20:00      -63.696       -7.539       -2.230       25.125       14.106       12.123      631.248      198.986      146.960        0.255        0.049       64.141       12.180        0.036      344.531       21.417      861.926
08/20/2013  01:21:00      -73.648        4.618        0.236       24.449       20.025       17.127      597.774      400.987      293.320        0.337        0.065       73.793       14.710        0.040      344.454       21.283      861.910
08/20/2013  01:22:00      -75.891      -12.615        3.732       24.840       26.583       17.263      617.042      706.669      298.006        0.378        0.081       76.933       14.118        0.034      344.445       21.268      861.896
08/20/2013  01:23:00      -63.662      -20.338        0.774       38.996       20.938       14.466     1520.699      438.406      209.261        0.332        0.108       66.832       17.486        0.068      344.441       21.261      861.891
08/20/2013  01:24:00      -38.133       -9.195       -2.692       19.949       17.356       11.878      397.946      301.225      141.095        0.119        0.042       39.225        7.020        0.032      344.432       21.246      861.882
08/20/2013  01:25:00      -43.620       -5.282       -4.273       16.740       14.619       10.271      280.237      213.706      105.492        0.127        0.030       43.939        5.494        0.016      344.417       21.222      861.874
08/20/2013  01:26:00      -44.247      -13.327       -4.175       13.109       15.389       13.180      171.849      236.834      173.722        0.137        0.029       46.211       10.367        0.050      344.400       21.189      861.866
08/20/2013  01:27:00      -32.738      -11.353       -7.651       11.905        8.133        7.737      141.718       66.145       59.865        0.076        0.013       34.651        4.646        0.018      344.376       21.147      861.857
08/20/2013  01:28:00      -47.343      -11.326       -4.645       18.966       15.535       11.007      359.696      241.329      121.151        0.156        0.036       48.679        5.601        0.013      344.379       21.156      861.844
08/20/2013  01:29:00      -45.087      -22.819       -5.802       15.207       14.054        8.018      231.266      197.510       64.291        0.154        0.025       50.532        7.124        0.020      344.333       21.078      861.837
08/20/2013  01:30:00      -72.925      -23.415       -7.725       16.983       11.344        8.081      288.439      128.677       65.301        0.320        0.024       76.592        8.195        0.011      344.310       21.038      861.831
08/20/2013  01:31:00      -23.167      -10.578       -3.611       19.356        7.343        4.272      374.643       53.923       18.253        0.055        0.022       25.467        3.667        0.021      344.303       21.026      861.830
08/20/2013  01:32:00       17.713      -18.488      -16.665       19.351       25.150       17.083      374.471      632.532      291.815        0.112        0.065       25.605       13.258        0.268      344.163       20.788      861.831
08/20/2013  01:33:00       18.365      -19.274        7.259       32.618       29.172       18.017     1063.925      850.986      324.604        0.150        0.112       26.622       16.645        0.391      344.000       20.509      861.833
08/20/2013  01:34:00        7.258       -0.337       30.934       19.658       13.727       13.911      386.447      188.441      193.518        0.089        0.038        7.266        7.783        1.147      343.870       20.287      861.846
08/20/2013  01:35:00        3.285       22.778       38.069       35.635       30.115       28.767     1269.838      906.893      827.541        0.249        0.150       23.014       17.389        0.571      343.711       20.014      861.857
08/20/2013  01:36:00       27.120        2.898       23.835       29.277       27.766       19.359      857.122      770.932      374.772        0.166        0.100       27.274       17.335        0.404      343.784       20.139      861.855
08/20/2013  01:37:00       22.916      -18.911        3.518       29.940       21.378       22.821      896.423      457.017      520.782        0.138        0.094       29.712       15.093        0.258      343.983       20.479      861.852
08/20/2013  01:38:00       21.416        3.644       13.574       25.076       18.455       17.274      628.812      340.583      298.388        0.096        0.063       21.724       16.622        0.585      343.877       20.298      861.858
08/20/2013  01:39:00       35.977        0.610       18.945       31.330       14.128       26.065      981.543      199.611      679.401        0.176        0.093       35.982        7.198        0.040      343.789       20.148      861.856
08/20/2013  01:40:00       -0.616        3.669        4.333        9.103        7.209       11.221       82.871       51.976      125.917        0.015        0.013        3.720        8.108        4.751      344.044       20.584      861.851
08/20/2013  01:41:00      -20.699       -7.587       -4.483       13.148       10.362        6.826      172.879      107.371       46.600        0.042        0.016       22.046        4.941        0.050      344.229       20.899      861.843
08/20/2013  01:42:00      -61.204      -26.875       -4.627       12.869       14.518        8.167      165.610      210.783       66.696        0.247        0.022       66.844        6.554        0.010      344.385       21.167      861.824
08/20/2013  01:43:00      -55.033      -22.676       -5.996        8.224       10.124        5.995       67.627      102.486       35.941        0.189        0.010       59.522        4.780        0.006      344.425       21.235      861.815
08/20/2013  01:44:00       -1.537       -9.925       -1.904       29.853       14.344       10.704      891.215      205.757      114.582        0.066        0.061       10.043       13.349        1.767      344.288       20.998      861.814
08/20/2013  01:45:00       11.175       -4.791       -6.093       12.665        8.586        8.072      160.392       73.712       65.149        0.024        0.015       12.159        7.454        0.376      344.296       21.013      861.817
08/20/2013  01:46:00      -11.685      -19.364       -2.177       12.417       11.385        8.715      154.179      129.617       75.951        0.044        0.018       22.616        7.944        0.123      344.367       21.136      861.824
08/20/2013  01:47:00       24.049      -22.276       10.470       25.218       16.542       13.168      635.957      273.635      173.401        0.113        0.054       32.781       10.272        0.098      344.447       21.272      861.821
08/20/2013  01:48:00       28.831        2.360       31.728       29.408       26.735       13.482      864.825      714.757      181.768        0.180        0.088       28.928        8.423        0.085      344.341       21.091      861.819
08/20/2013  01:49:00       37.588       -8.136       22.710       29.473       25.940       21.238      868.647      672.875      451.047        0.199        0.100       38.459       17.913        0.217      344.123       20.718      861.824
08/20/2013  01:50:00       22.815      -13.223       22.454       27.045       24.665       19.967      731.453      608.379      398.680        0.147        0.087       26.370       20.675        0.615      344.266       20.963      861.841
08/20/2013  01:51:00        8.544       -0.902       23.512       23.895       21.554       13.094      570.949      464.570      171.466        0.092        0.060        8.592       13.910        2.621      344.361       21.126      861.837
08/20/2013  01:52:00      -25.468       -3.758        7.869       12.072       12.634       10.135      145.733      159.628      102.721        0.057        0.020       25.744        8.424        0.107      344.289       21.004      861.827
08/20/2013  01:53:00        0.783      -10.084       11.672       28.525       16.668       17.127      813.656      277.817      293.338        0.081        0.069       10.114       13.129        1.685      344.391       21.177      861.827
08/20/2013  01:54:00      -31.490      -10.655        1.364        9.640        9.889        8.560       92.929       97.801       73.282        0.069        0.013       33.243        4.410        0.018      344.424       21.233      861.828
08/20/2013  01:55:00      -18.034       14.845        6.747       11.934       17.175       14.099      142.426      294.981      198.782        0.061        0.032       23.358       13.237        0.321      344.366       21.134      861.826
08/20/2013  01:56:00        8.413        8.318       21.761       29.889       21.862       17.939      893.338      477.963      321.809        0.115        0.085       11.831       19.800        2.801      344.344       21.096      861.817
08/20/2013  01:57:00       42.406      -31.739        1.146       36.395       17.208       21.213     1324.616      296.131      450.009        0.244        0.104       52.968       13.402        0.064      344.408       21.206      861.812
08/20/2013  01:58:00       12.320        1.536       16.868       15.161        8.998       18.490      229.852       80.969      341.893        0.055        0.033       12.415        7.681        0.383      344.293       21.010      861.815
08/20/2013  01:59:00      -10.089      -17.368       -8.752       11.597       18.042       17.607      134.497      325.524      310.018        0.062        0.039       20.086       12.300        0.375      344.293       21.011      861.826
08/20/2013  02:00:00       -6.204        6.643       -8.588        8.660       15.145        6.588       75.000      229.362       43.406        0.025        0.017        9.090        7.608        0.701      344.418       21.222      861.826
08/20/2013  02:01:00       -2.040       11.370       -8.544       11.129       20.703        9.527      123.859      428.629       90.756        0.042        0.032       11.552       10.292        0.794      344.485       21.336      861.820
08/20/2013  02:02:00        6.484      -27.675       -3.928       25.678       13.461       14.674      659.348      181.192      215.336        0.094        0.053       28.424        9.185        0.104      344.211       20.870      861.816
08/20/2013  02:03:00      -36.739       -2.280       -0.338       30.120       11.289        9.479      907.209      127.433       89.852        0.124        0.056       36.810       12.516        0.116      344.387       21.169      861.802
08/20/2013  02:04:00      -67.521      -14.121       -9.205       12.953       13.929        8.810      167.783      194.021       77.621        0.264        0.022       68.982        4.882        0.005      344.416       21.219      861.773
08/20/2013  02:05:00      -76.149      -15.936       -4.558       17.178       15.390        8.619      295.088      236.850       74.286        0.334        0.030       77.798        4.475        0.003      344.246       20.928      861.755
08/20/2013  02:06:00      -71.698      -26.013       -2.342       26.317       22.004       14.732      692.590      484.189      217.027        0.361        0.070       76.272       11.500        0.023      344.113       20.702      861.743
08/20/2013  02:07:00      -86.310       -6.396       -7.978       23.041       18.834       11.996      530.895      354.717      143.896        0.429        0.051       86.547        8.506        0.010      344.054       20.600      861.724
08/20/2013  02:08:00      -55.701      -11.250       -7.412       29.024       24.744       12.732      842.396      612.288      162.095        0.245        0.081       56.826        7.294        0.016      343.975       20.466      861.700
08/20/2013  02:09:00      -94.633      -26.551       -8.163       23.183       19.174       12.686      537.435      367.646      160.940        0.540        0.053       98.287        9.729        0.010      344.008       20.521      861.677
08/20/2013  02:10:00      -70.281      -39.322       -6.063       29.724       27.515       14.349      883.530      757.074      205.893        0.418        0.092       80.533       13.241        0.027      344.036       20.570      861.665
08/20/2013  02:11:00      -51.726       -8.887       -0.890       27.246       29.610       15.314      742.334      876.725      234.524        0.230        0.093       52.484       10.727        0.042      344.067       20.625      861.664
08/20/2013  02:12:00      -75.316      -16.421       -4.395       26.524       27.474       17.217      703.543      754.822      296.433        0.386        0.088       77.085       14.061        0.033      344.078       20.641      861.653
08/20/2013  02:13:00      -85.562      -40.185        2.061       21.258       30.407       15.670      451.893      924.563      245.537        0.528        0.081       94.529       11.726        0.015      344.022       20.547      861.636
08/20/2013  02:14:00      -88.229      -25.688       -0.763       25.365       23.575       13.583      643.376      555.804      184.502        0.491        0.069       91.892       11.758        0.016      343.964       20.447      861.624
08/20/2013  02:15:00      -75.112      -21.298       -4.374       18.474       17.112       13.863      341.271      292.835      192.173        0.347        0.041       78.073        9.010        0.013      343.948       20.419      861.626
08/20/2013  02:16:00      -86.689      -35.116       -0.205       19.361       24.511       13.171      374.850      600.765      173.465        0.495        0.057       93.531       11.501        0.015      343.879       20.301      861.634
08/20/2013  02:17:00     -100.532      -31.070       -3.995       32.541       20.890       21.880     1058.909      436.372      478.725        0.653        0.099      105.224       19.952        0.036      343.848       20.248      861.632
08/20/2013  02:18:00      -97.952      -11.471       -1.923       49.003       32.133       19.047     2401.332     1032.502      362.782        0.676        0.190       98.621       22.836        0.054      343.797       20.162      861.629
08/20/2013  02:19:00      -93.484       -0.640       -7.838       31.420       33.261       23.501      987.228     1106.273      552.278        0.572        0.132       93.486       18.445        0.039      343.718       20.027      861.633
08/20/2013  02:20:00     -143.261       26.317      -15.765       39.640       31.997       20.103     1571.368     1023.824      404.146        1.223        0.150      145.658        9.788        0.005      343.879       20.302      861.639
08/20/2013  02:21:00     -140.052       14.194      -14.537       28.663       22.841       14.807      821.540      521.730      219.233        1.079        0.078      140.770       12.797        0.008      343.961       20.442      861.639
08/20/2013  02:22:00     -123.004        2.337      -10.971       31.689       21.636       16.313     1004.195      468.098      266.102        0.850        0.087      123.026       14.935        0.015      343.923       20.377      861.628
08/20/2013  02:23:00     -145.792        1.822      -14.554       14.069       15.089       10.017      197.928      227.675      100.348        1.100        0.026      145.803        5.008        0.001      343.972       20.461      861.616
08/20/2013  02:24:00     -140.810       -8.643      -17.714       21.764       13.733       13.703      473.691      188.605      187.762        1.053        0.043      141.075       12.687        0.008      343.925       20.382      861.610
08/20/2013  02:25:00      -96.558        2.051       -9.458       45.927       23.765       20.458     2109.328      564.761      418.548        0.625        0.155       96.580       23.053        0.057      343.836       20.228      861.609
08/20/2013  02:26:00     -155.730       31.713       -7.614       21.397       20.118       10.272      457.850      404.736      105.517        1.314        0.048      158.926        7.891        0.002      344.044       20.584      861.604
08/20/2013  02:27:00     -179.688       40.060      -16.762       34.773       34.894       16.369     1209.137     1217.577      267.933        1.843        0.135      184.100       13.872        0.006      344.152       20.768      861.597
08/20/2013  02:28:00     -140.123      -15.001      -13.727       35.008       24.507       19.184     1225.531      600.586      368.018        1.112        0.110      140.924       19.157        0.018      344.050       20.594      861.602
08/20/2013  02:29:00     -102.102       -9.704       -1.451       33.829       30.962       23.552     1144.435      958.640      554.698        0.659        0.133      102.562       23.320        0.052      343.988       20.489      861.623
08/20/2013  02:30:00     -139.311       20.455       -9.336       14.566       13.151        8.627      212.181      172.953       74.418        1.019        0.023      140.804        7.430        0.003      344.233       20.907      861.632
08/20/2013  02:31:00      -82.097       11.830       -5.531       36.771       26.008       17.526     1352.100      676.396      307.168        0.462        0.117       82.945       17.230        0.043      344.051       20.596      861.637
08/20/2013  02:32:00     -120.437       34.953      -10.363       22.601       17.109       12.374      510.784      292.723      153.126        0.840        0.048      125.407        7.995        0.004      344.249       20.934      861.650
08/20/2013  02:33:00     -105.932       39.857      -13.021       43.748       27.489       23.159     1913.844      755.637      536.332        0.809        0.160      113.182       22.222        0.039      344.053       20.599      861.662
08/20/2013  02:34:00     -122.871       31.699      -10.657       33.417       23.446       16.316     1116.727      549.725      266.205        0.907        0.097      126.895       10.537        0.007      344.092       20.667      861.665
08/20/2013  02:35:00     -134.973        3.579      -15.760       22.276       45.050       16.697      496.218     2029.465      278.790        1.064        0.140      135.021        8.094        0.004      344.126       20.725      861.665
08/20/2013  02:36:00     -106.103      -16.184       -2.741       40.388       34.237       20.556     1631.221     1172.199      422.554        0.738        0.161      107.330       17.265        0.026      343.977       20.470      861.658
08/20/2013  02:37:00      -81.099        4.664        4.473       35.490       29.580       17.148     1259.507      874.990      294.046        0.452        0.121       81.233       14.037        0.030      343.939       20.402      861.660
08/20/2013  02:38:00      -31.360        6.048       -1.118       31.739       20.748       12.945     1007.336      430.462      167.570        0.131        0.080       31.938       11.934        0.140      343.861       20.271      861.662
08/20/2013  02:39:00      -45.034       31.269       -5.425       20.956       27.687        9.956      439.139      766.570       99.113        0.217        0.065       54.826        4.593        0.007      344.017       20.537      861.658
08/20/2013  02:40:00      -46.070       34.684       -7.975       17.177       22.348       10.271      295.065      499.422      105.499        0.214        0.045       57.667        8.152        0.020      344.146       20.758      861.658
08/20/2013  02:41:00       -5.140       27.359       -5.061       13.459       11.960        6.053      181.146      143.036       36.639        0.058        0.018       27.838        5.584        0.040      344.233       20.905      861.657
08/20/2013  02:42:00        8.894       30.066        4.508       13.683       12.922       12.400      187.213      166.965      153.750        0.076        0.025       31.354        7.812        0.062      344.085       20.657      861.664
08/20/2013  02:43:00       25.668        1.918        1.796       13.576       10.542        6.469      184.301      111.138       41.844        0.050        0.017       25.740        6.371        0.061      343.944       20.413      861.676
08/20/2013  02:44:00        9.542       -6.199       14.423       10.877       14.866        8.221      118.312      221.008       67.581        0.037        0.020       11.379        5.846        0.264      343.847       20.245      861.691
08/20/2013  02:45:00       14.748       14.119       24.575       15.235       21.550       14.014      232.100      464.402      196.387        0.096        0.045       20.417       12.540        0.377      343.815       20.193      861.698
08/20/2013  02:46:00       42.760       35.526       31.695       21.182       16.610       14.156      448.690      275.907      200.390        0.251        0.046       55.593        5.582        0.010      343.770       20.115      861.695
08/20/2013  02:47:00       30.501       40.844       19.116       29.160       17.060       19.198      850.279      291.052      368.571        0.224        0.075       50.976       20.091        0.155      343.826       20.212      861.687
08/20/2013  02:48:00       51.033       37.019       23.048       18.103       14.130       14.656      327.723      199.666      214.800        0.262        0.037       63.046        9.862        0.024      344.077       20.638      861.681
08/20/2013  02:49:00       20.265       28.952       33.949       21.308       18.501       11.190      454.031      342.272      125.212        0.166        0.046       35.340        4.868        0.019      343.946       20.416      861.688
08/20/2013  02:50:00       16.588       20.539       42.149       23.374       40.193       16.964      546.337     1615.442      287.789        0.246        0.122       26.401       23.192        0.772      343.843       20.241      861.690
08/20/2013  02:51:00       -6.862       17.582       43.041       18.346       35.878       27.470      336.590     1287.198      754.574        0.229        0.119       18.873       24.185        1.642      343.830       20.218      861.700
08/20/2013  02:52:00       -7.381      -20.652       31.010       15.567       36.791       18.397      242.342     1353.608      338.465        0.169        0.097       21.932       18.263        0.693      343.813       20.188      861.718
08/20/2013  02:53:00       11.685      -71.653       -7.084       17.661       12.816       20.006      311.908      164.256      400.247        0.310        0.044       72.599       11.300        0.024      343.834       20.226      861.737
08/20/2013  02:54:00       15.527      -65.885       -3.856       18.930       16.509       11.891      358.357      272.542      141.391        0.268        0.039       67.689        5.892        0.008      343.912       20.356      861.754
08/20/2013  02:55:00       -0.304      -25.100       -6.521        9.660       18.220       10.228       93.311      331.982      104.621        0.060        0.026       25.101        5.546        0.049      343.907       20.349      861.758
08/20/2013  02:56:00      -40.983       -9.440       -4.188       15.264       18.019       12.069      232.980      324.669      145.653        0.124        0.035       42.056        7.444        0.031      343.895       20.328      861.745
08/20/2013  02:57:00      -42.101      -21.860       -0.082       16.575       12.765       11.195      274.742      162.954      125.330        0.141        0.028       47.438        8.184        0.030      343.842       20.240      861.731
08/20/2013  02:58:00      -71.548      -18.676       -3.644       17.532       11.809        8.665      307.357      139.463       75.087        0.300        0.026       73.945        9.070        0.015      343.873       20.293      861.730
08/20/2013  02:59:00      -66.958      -30.857       -5.616       19.980        9.864        8.513      399.188       97.299       72.473        0.302        0.028       73.726        8.210        0.012      343.921       20.370      861.734
08/20/2013  03:00:00      -25.799      -28.991        0.533       18.051       11.598       12.716      325.832      134.515      161.698        0.106        0.031       38.809        1.777        0.002      344.187       20.828      861.741
08/20/2013  03:01:00       14.276       -0.761       10.429       11.717        7.107       10.329      137.294       50.515      106.684        0.030        0.015       14.296        2.777        0.038      343.936       20.398      861.741
08/20/2013  03:02:00      -25.574       17.087       -7.955       17.589       11.532        7.771      309.370      132.989       60.396        0.076        0.025       30.757        9.550        0.096      343.926       20.381      861.751
08/20/2013  03:03:00      -59.039       -9.133       -7.647        8.004       13.853        6.795       64.068      191.900       46.170        0.196        0.015       59.741        8.018        0.018      344.042       20.582      861.754
08/20/2013  03:04:00      -53.291      -10.613       -2.406       10.946       12.094        8.774      119.819      146.262       76.978        0.165        0.017       54.338        6.179        0.013      343.956       20.431      861.765
08/20/2013  03:05:00      -58.887       -7.719       -6.570       12.094        9.246        7.230      146.267       85.484       52.271        0.193        0.014       59.391        5.268        0.008      343.939       20.405      861.775
08/20/2013  03:06:00      -71.955      -18.087      -10.913       12.524        9.899        7.592      156.847       97.992       57.633        0.297        0.016       74.194        3.844        0.003      343.922       20.375      861.769
08/20/2013  03:07:00      -84.608      -12.049       -5.953       20.020       13.557       15.373      400.813      183.806      236.328        0.408        0.041       85.461       12.255        0.021      343.889       20.318      861.759
08/20/2013  03:08:00      -81.336      -20.779       -4.135       25.567       13.783       14.779      653.688      189.974      218.417        0.406        0.053       83.948       15.085        0.032      343.911       20.357      861.753
08/20/2013  03:09:00      -70.078      -19.022       -0.750       27.565       19.472       15.441      759.851      379.142      238.430        0.333        0.069       72.613       12.855        0.031      343.868       20.282      861.747
08/20/2013  03:10:00     -100.456      -19.160       -0.975       32.448       22.436       16.826     1052.880      503.357      283.102        0.615        0.092      102.267       16.391        0.026      343.895       20.330      861.735
08/20/2013  03:11:00     -133.489      -19.011       -2.036       18.833       21.520       14.438      354.672      463.102      208.446        0.961        0.051      134.836        9.939        0.005      343.935       20.397      861.729
08/20/2013  03:12:00     -130.361      -25.431       -1.135       21.929       31.174       16.679      480.886      971.834      278.198        0.969        0.087      132.818       11.350        0.007      343.961       20.441      861.723
08/20/2013  03:13:00     -101.996      -15.103      -10.159       22.304       17.732       12.562      497.469      314.426      157.803        0.585        0.048      103.108        7.424        0.005      343.935       20.397      861.719
08/20/2013  03:14:00      -66.830       -0.128       -3.187       25.659       22.185       13.546      658.393      492.183      183.489        0.291        0.067       66.831        9.711        0.021      343.814       20.191      861.723
08/20/2013  03:15:00     -120.668        9.282      -12.311       26.268       20.792       13.032      689.988      432.293      169.824        0.805        0.065      121.024       12.088        0.010      343.810       20.185      861.724
08/20/2013  03:16:00     -111.292       33.082       -5.044       31.211       19.683       14.233      974.119      387.417      202.575        0.753        0.078      116.105       14.248        0.015      343.862       20.273      861.735
08/20/2013  03:17:00     -101.441       14.994       -4.359       21.816       17.920       10.777      475.943      321.142      116.149        0.572        0.046      102.543        8.108        0.006      343.864       20.275      861.741
08/20/2013  03:18:00      -68.365       24.401       -3.753       35.079       19.724       20.000     1230.529      389.022      400.003        0.365        0.101       72.589       17.354        0.057      343.777       20.127      861.744
08/20/2013  03:19:00     -113.934       35.408       -7.540       31.999       23.595       14.454     1023.954      556.740      208.925        0.804        0.089      119.309       11.514        0.009      343.772       20.121      861.750
08/20/2013  03:20:00     -125.068       20.984       -9.287       37.420       39.625       24.473     1400.290     1570.179      598.914        0.987        0.178      126.816       23.100        0.033      343.677       19.957      861.757
08/20/2013  03:21:00     -172.194       27.167      -17.188       29.353       43.244       21.838      861.578     1870.054      476.889        1.695        0.160      174.324       12.379        0.005      343.729       20.044      861.764
08/20/2013  03:22:00     -128.602       14.680      -14.241       57.748       37.474       25.771     3334.794     1404.265      664.130        1.118        0.270      129.437       25.379        0.038      343.673       19.948      861.759
08/20/2013  03:23:00     -119.114       12.246      -17.139       47.786       35.850       22.123     2283.457     1285.209      489.446        0.934        0.203      119.742       19.984        0.028      343.712       20.014      861.741
08/20/2013  03:24:00     -161.797       57.053      -14.025       48.042       25.275       18.664     2308.029      638.843      348.358        1.646        0.165      171.561        8.428        0.002      343.809       20.182      861.720
08/20/2013  03:25:00     -136.605       32.901       -9.973       35.085       36.456       20.930     1230.964     1329.074      438.055        1.142        0.150      140.511       17.164        0.015      343.802       20.171      861.696
08/20/2013  03:26:00      -84.604       -7.712       -0.969       29.043       33.976       17.666      843.516     1154.343      312.096        0.476        0.115       84.954       18.047        0.045      343.811       20.187      861.682
08/20/2013  03:27:00      -78.810        7.124      -18.784       25.321       26.133       14.629      641.160      682.911      214.021        0.408        0.077       79.132       11.101        0.020      343.754       20.088      861.671
08/20/2013  03:28:00     -107.970      -24.098      -15.044       20.464       25.168       15.668      418.779      633.445      245.475        0.688        0.065      110.626       11.510        0.011      343.787       20.144      861.663
08/20/2013  03:29:00     -133.555      -56.803       -6.175       36.566       23.090       19.861     1337.080      533.137      394.462        1.168        0.113      145.133       20.380        0.020      343.721       20.030      861.652
08/20/2013  03:30:00     -183.610      -14.548       -9.598       39.149       30.603       27.655     1532.631      936.561      764.786        1.862        0.162      184.185       27.115        0.022      343.686       19.970      861.638
08/20/2013  03:31:00     -152.297       -0.406      -14.916       22.966       21.678       16.564      527.443      469.924      274.381        1.234        0.064      152.297       11.031        0.005      343.683       19.964      861.627
08/20/2013  03:32:00     -121.254       -3.274      -17.091       22.957       16.564       15.004      527.004      274.351      225.129        0.802        0.051      121.298       10.353        0.007      343.702       20.000      861.612
08/20/2013  03:33:00     -108.155        5.073       -7.432       14.218       20.564       10.443      202.148      422.882      109.046        0.626        0.037      108.274        7.983        0.005      343.711       20.015      861.596
08/20/2013  03:34:00     -108.654        8.363       -8.170       22.241       16.927        9.833      494.683      286.513       96.692        0.641        0.044      108.976        9.232        0.007      343.742       20.068      861.579
08/20/2013  03:35:00      -69.097        5.702       -3.860       20.994       21.937       13.567      440.744      481.227      184.059        0.296        0.055       69.332       12.021        0.030      343.803       20.169      861.569
08/20/2013  03:36:00      -26.815       -5.646       -6.197       25.877        9.531        9.252      669.638       90.848       85.599        0.082        0.042       27.403        8.995        0.108      343.759       20.097      861.576
08/20/2013  03:37:00       -4.447        4.018        5.824       10.385        9.899        8.039      107.856       97.991       64.628        0.017        0.014        5.994        6.252        1.088      343.647       19.905      861.583
08/20/2013  03:38:00        0.477       -3.053        8.050        6.727        7.852        8.467       45.247       61.655       71.697        0.013        0.009        3.091        7.373        5.692      343.738       20.062      861.595
08/20/2013  03:39:00        3.996      -22.360        1.584       14.206       20.954       11.922      201.822      439.079      142.136        0.065        0.039       22.715       12.899        0.322      343.829       20.216      861.608
08/20/2013  03:40:00       -8.111      -41.553      -10.033       11.088        8.875        8.783      122.953       78.765       77.138        0.109        0.014       42.337        6.184        0.021      344.013       20.530      861.618
08/20/2013  03:41:00        3.200      -43.639       -8.664       12.918       15.312       12.169      166.875      234.466      148.090        0.127        0.027       43.756        5.084        0.013      344.116       20.707      861.631
08/20/2013  03:42:00      -14.722      -59.119       -4.507       14.925       18.853       12.355      222.748      355.435      152.643        0.223        0.037       60.924        8.594        0.020      344.128       20.728      861.639
08/20/2013  03:43:00        2.825      -57.911        8.998       23.155       26.377       25.255      536.174      695.761      637.814        0.266        0.093       57.980       21.673        0.140      344.043       20.581      861.646
08/20/2013  03:44:00        3.660      -17.097       24.342       14.441       24.599       17.172      208.541      605.128      294.866        0.100        0.055       17.484       12.031        0.474      343.963       20.445      861.647
08/20/2013  03:45:00       25.228      -20.913        5.341       21.768       25.950       21.829      473.831      673.398      476.499        0.136        0.081       32.769       18.533        0.320      343.835       20.227      861.660
08/20/2013  03:46:00       -2.912       -5.975       14.336       11.780       27.527       15.158      138.773      757.709      229.765        0.069        0.056        6.646       14.925        5.043      343.859       20.266      861.668
08/20/2013  03:47:00        1.202      -27.664        6.413       16.165       22.434       16.017      261.300      503.288      256.548        0.091        0.051       27.690       15.785        0.325      343.994       20.497      861.667
08/20/2013  03:48:00      -40.282      -12.494        1.486       10.060        8.982       10.953      101.196       80.668      119.973        0.104        0.015       42.175        7.751        0.034      344.044       20.585      861.652
08/20/2013  03:49:00      -32.700      -59.220       -7.873       19.460       21.575       13.817      378.698      465.485      190.917        0.284        0.052       67.648       10.575        0.024      344.163       20.786      861.625
08/20/2013  03:50:00      -48.471      -38.128       -1.635       18.092       27.111       14.797      327.335      734.987      218.938        0.254        0.064       61.670       13.713        0.049      344.186       20.826      861.605
08/20/2013  03:51:00      -76.129      -36.910       -6.370       21.214       13.315        9.238      450.032      177.295       85.336        0.396        0.036       84.605       10.179        0.014      344.165       20.790      861.576
08/20/2013  03:52:00      -65.119      -51.319       -1.152       21.230       17.019       19.201      450.697      289.638      368.670        0.399        0.055       82.910       13.632        0.027      344.159       20.777      861.566
08/20/2013  03:53:00      -72.821      -62.640       -4.662       30.708       25.313       17.537      942.956      640.763      307.557        0.557        0.095       96.055        5.329        0.003      344.300       21.021      861.553
08/20/2013  03:54:00      -98.040      -49.950       -7.481       22.390       22.315       16.921      501.316      497.947      286.312        0.672        0.064      110.031       14.930        0.018      344.165       20.791      861.540
08/20/2013  03:55:00      -84.169      -72.660        7.384       36.980       34.193       23.483     1367.557     1169.151      551.471        0.775        0.154      111.194       20.993        0.036      344.113       20.703      861.528
08/20/2013  03:56:00      -94.096      -80.914       -6.053       24.787       25.723       16.978      614.382      661.652      288.247        0.850        0.078      124.102       11.443        0.009      344.142       20.751      861.509
08/20/2013  03:57:00     -103.473      -34.450       -0.099       24.425       21.327       14.100      596.587      454.860      198.805        0.657        0.063      109.057       13.381        0.015      344.059       20.607      861.496
08/20/2013  03:58:00      -91.350       -9.331       -4.878       44.370       24.669       19.787     1968.732      608.543      391.529        0.571        0.148       91.825       21.686        0.056      343.987       20.483      861.484
08/20/2013  03:59:00      -89.292        5.279        2.919       46.113       30.225       24.972     2126.391      913.526      623.600        0.584        0.183       89.448       25.028        0.078      343.946       20.416      861.473
08/20/2013  04:00:00     -111.663      -45.520        1.022       39.325       38.987       21.288     1546.454     1519.997      453.167        0.903        0.176      120.584       20.802        0.030      343.969       20.455      861.473
08/20/2013  04:01:00     -101.977      -48.848       -3.066       51.283       37.904       23.653     2629.929     1436.702      559.462        0.871        0.231      113.073       23.362        0.043      343.957       20.434      861.470
08/20/2013  04:02:00     -118.810      -42.926       -6.067       28.977       36.250       18.963      839.639     1314.086      359.612        0.925        0.126      126.327       12.448        0.010      343.924       20.378      861.472
08/20/2013  04:03:00      -96.539      -33.917       -0.278       32.001       28.862       21.316     1024.036      833.042      454.352        0.639        0.116      102.324       17.470        0.029      343.899       20.333      861.478
08/20/2013  04:04:00      -89.981      -45.596       -5.552       25.020       25.248       18.020      625.992      637.437      324.718        0.590        0.079      100.874       15.907        0.025      343.879       20.302      861.491
08/20/2013  04:05:00      -94.698      -56.151       -2.923       29.366       31.565       19.702      862.341      996.342      388.184        0.719        0.112      110.094       15.084        0.019      343.878       20.298      861.506
08/20/2013  04:06:00     -111.326      -40.125        4.649       29.121       23.035       16.937      848.041      530.612      286.861        0.785        0.083      118.337       16.594        0.020      343.836       20.229      861.521
08/20/2013  04:07:00      -66.989      -39.928        5.012       20.366       17.250       18.744      414.772      297.549      351.347        0.359        0.053       77.986        9.567        0.015      343.842       20.239      861.532
08/20/2013  04:08:00      -36.788      -17.345        7.273       16.647       20.869       10.680      277.127      435.511      114.058        0.127        0.041       40.672        8.652        0.045      343.886       20.311      861.543
08/20/2013  04:09:00      -30.383      -80.902       -4.488       33.283       54.982       20.802     1107.733     3023.057      432.739        0.603        0.228       86.419       22.172        0.066      344.091       20.666      861.560
08/20/2013  04:10:00      -71.252      -90.288       -4.605       38.242       35.997       21.467     1462.434     1295.794      460.838        0.823        0.161      115.017       19.351        0.028      344.025       20.552      861.575
08/20/2013  04:11:00      -50.076      -49.081       11.138       48.185       41.327       29.079     2321.835     1707.916      845.583        0.496        0.244       70.118       22.869        0.106      343.938       20.402      861.583
08/20/2013  04:12:00      -14.939      -56.264        8.434       37.115       26.060       25.049     1377.504      679.116      627.477        0.307        0.134       58.213       15.339        0.069      343.930       20.389      861.586
08/20/2013  04:13:00      -25.468      -70.040       11.977       44.182       34.365       26.247     1952.054     1180.924      688.885        0.476        0.191       74.527       16.449        0.049      344.000       20.507      861.595
08/20/2013  04:14:00      -80.099     -122.331       -6.379       68.352       45.247       34.054     4672.006     2047.270     1159.695        1.465        0.394      146.221       23.223        0.025      343.947       20.418      861.591
08/20/2013  04:15:00      -36.495      -91.557        2.522       66.039       56.235       34.337     4361.149     3162.347     1179.000        0.921        0.435       98.563       37.647        0.146      343.956       20.433      861.588
08/20/2013  04:16:00      -17.027      -72.864        6.751       35.586       56.759       35.294     1266.369     3221.548     1245.632        0.569        0.287       74.827       36.508        0.238      343.988       20.488      861.577
08/20/2013  04:17:00      -41.970      -70.153        2.208       36.409       36.631       19.063     1325.597     1341.862      363.384        0.486        0.152       81.749        4.966        0.004      344.035       20.568      861.559
08/20/2013  04:18:00      -24.130      -16.456        1.731       21.373       20.804       15.370      456.815      432.804      236.234        0.099        0.056       29.207       11.510        0.155      343.952       20.425      861.550
08/20/2013  04:19:00      -37.356       -2.337        9.298       32.132       20.370       15.184     1032.458      414.934      230.566        0.158        0.084       37.429       16.505        0.194      343.863       20.274      861.539
08/20/2013  04:20:00      -80.582      -20.238       -1.094       26.207       23.672       14.137      686.819      560.355      199.868        0.418        0.072       83.084       13.882        0.028      343.779       20.130      861.545
08/20/2013  04:21:00      -79.738       -0.756       -1.374       23.798       16.606       15.135      566.341      275.757      229.065        0.372        0.054       79.741       10.244        0.017      343.851       20.254      861.535
08/20/2013  04:22:00      -73.769       11.019       -3.447       14.264       13.113        8.991      203.451      171.946       80.846        0.302        0.023       74.587        6.484        0.008      343.839       20.234      861.538
08/20/2013  04:23:00      -92.404       25.476      -10.177       33.924       15.136       11.419     1150.857      229.093      130.383        0.540        0.076       95.851        6.985        0.005      343.893       20.326      861.537
08/20/2013  04:24:00      -76.422      -29.805       -8.111       24.359       19.892       12.649      593.349      395.689      159.985        0.397        0.057       82.028       13.562        0.027      344.114       20.703      861.527
08/20/2013  04:25:00      -52.905      -25.760        2.433       25.719       15.265       10.925      661.463      233.009      119.354        0.224        0.051       58.843        8.784        0.022      344.059       20.609      861.520
08/20/2013  04:26:00      -52.098      -19.779        2.868       33.687       30.753       14.028     1134.844      945.776      196.774        0.270        0.114       55.727       20.172        0.131      343.851       20.254      861.521
08/20/2013  04:27:00       19.051       54.216        1.298       12.777       27.393       23.035      163.257      750.362      530.597        0.237        0.072       57.465       21.352        0.138      343.756       20.092      861.536
08/20/2013  04:28:00       34.243       48.377       -6.374       17.571       25.275        9.634      308.743      638.843       92.817        0.230        0.052       59.269       11.153        0.035      343.866       20.278      861.545
08/20/2013  04:29:00       44.429       42.155        6.680       12.855       14.502       11.309      165.239      210.318      127.902        0.215        0.025       61.245        5.677        0.009      343.740       20.065      861.546
08/20/2013  04:30:00       46.687       33.843       -9.151       13.498       10.320       10.079      182.197      106.497      101.585        0.190        0.020       57.663        5.847        0.010      343.599       19.823      861.563
08/20/2013  04:31:00       61.153       37.500        0.408       13.900       10.850        8.836      193.199      117.712       78.077        0.277        0.019       71.735        6.547        0.008      343.601       19.829      861.572
08/20/2013  04:32:00       58.229       30.390        7.155       19.228       16.610       11.654      369.710      275.902      135.807        0.257        0.039       65.683        7.767        0.014      343.661       19.928      861.580
08/20/2013  04:33:00       46.034       35.603       15.871       18.341       10.230       14.207      336.382      104.654      201.828        0.214        0.032       58.195        9.615        0.027      343.655       19.918      861.590
08/20/2013  04:34:00        7.256        1.377        6.834        9.393        7.571       11.780       88.222       57.318      138.763        0.019        0.014        7.385        4.396        0.354      343.629       19.875      861.599
08/20/2013  04:35:00       17.821        6.764        6.567       10.719       10.238       12.136      114.891      104.823      147.288        0.039        0.018       19.062        9.106        0.228      343.557       19.752      861.610
08/20/2013  04:36:00       15.871        4.589        3.191       13.717       10.754        7.791      188.153      115.649       60.702        0.032        0.018       16.521        6.319        0.146      343.631       19.880      861.609
08/20/2013  04:37:00      -32.870      -18.056      -10.278       19.916        8.761        9.743      396.648       76.761       94.934        0.104        0.028       37.503       11.792        0.099      343.710       20.010      861.604
08/20/2013  04:38:00      -66.103      -36.432      -16.219       36.502       22.534       19.487     1332.417      507.800      379.743        0.409        0.111       75.478       15.641        0.043      343.577       19.786      861.591
08/20/2013  04:39:00      -42.695      -25.637        8.905       37.882       27.065       22.304     1435.048      732.528      497.449        0.261        0.133       49.801       15.132        0.092      343.486       19.630      861.592
08/20/2013  04:40:00      -16.572      -13.141        5.526       17.306       14.229       13.634      299.514      202.455      185.886        0.058        0.034       21.150       10.566        0.250      343.511       19.673      861.602
08/20/2013  04:41:00      -30.693       -0.633       -0.084        6.645        7.878        4.981       44.162       62.056       24.812        0.054        0.007       30.700        3.793        0.015      343.557       19.752      861.606
08/20/2013  04:42:00      -46.228       -9.800       -5.148        9.261        8.240        5.342       85.767       67.904       28.533        0.122        0.009       47.256        3.247        0.005      343.716       20.024      861.605
08/20/2013  04:43:00      -73.377      -17.508       -6.071       15.941        9.954        9.312      254.111       99.085       86.715        0.308        0.022       75.437        8.389        0.012      343.753       20.087      861.602
08/20/2013  04:44:00      -66.198       -2.932       -4.504       14.602        8.868       10.162      213.232       78.639      103.256        0.240        0.020       66.263        7.603        0.013      343.733       20.055      861.597
08/20/2013  04:45:00      -26.819       -5.349        0.222       11.663        6.887        4.535      136.017       47.431       20.562        0.048        0.010       27.347        3.787        0.019      343.760       20.100      861.596
08/20/2013  04:46:00       -1.900       -3.254       -2.885        8.741       10.584        8.048       76.409      112.028       64.766        0.014        0.013        3.768        8.220        4.759      343.855       20.261      861.601
08/20/2013  04:47:00        1.130        9.450       21.276       25.566       26.189       13.341      653.596      685.860      177.971        0.103        0.076        9.517       12.741        1.792      343.957       20.435      861.606
08/20/2013  04:48:00       24.313       35.745       -7.451       26.589       18.576       19.803      706.968      345.061      392.174        0.168        0.072       43.230       14.201        0.108      343.544       19.730      861.613
08/20/2013  04:49:00      -11.013        3.695       -7.913       17.374       11.822        7.572      301.850      139.756       57.337        0.035        0.025       11.616        2.382        0.042      343.516       19.680      861.614
08/20/2013  04:50:00      -76.041      -18.867       -7.931       14.551        9.099        7.335      211.723       82.800       53.801        0.327        0.017       78.346        5.925        0.006      343.467       19.597      861.611
08/20/2013  04:51:00      -47.169      -15.191       -2.725       13.324       12.533        5.201      177.532      157.075       27.051        0.141        0.018       49.555        4.170        0.007      343.442       19.556      861.610
08/20/2013  04:52:00        6.161       11.737        2.889        9.677        6.482        5.416       93.639       42.021       29.330        0.017        0.008       13.256        5.300        0.160      343.395       19.478      861.613
08/20/2013  04:53:00       21.263       23.371        4.819        7.410        4.823        4.829       54.904       23.262       23.324        0.056        0.005       31.596        4.623        0.021      343.643       19.901      861.619
08/20/2013  04:54:00       12.060        9.324       -1.347        8.796       10.618        4.679       77.375      112.751       21.894        0.022        0.011       15.244        5.420        0.126      343.626       19.870      861.629
08/20/2013  04:55:00      -12.384      -14.726       -2.847        5.840        9.435        2.538       34.100       89.022        6.440        0.025        0.006       19.241        3.256        0.029      343.799       20.164      861.645
08/20/2013  04:56:00       -2.717      -11.973       -3.439        9.073        8.769        4.642       82.324       76.898       21.549        0.017        0.009       12.277        3.300        0.072      343.823       20.207      861.673
08/20/2013  04:57:00      -51.189      -16.467       -7.159       11.021        7.855        5.755      121.456       61.695       33.119        0.158        0.011       53.773        4.999        0.009      343.524       19.695      861.684
08/20/2013  04:58:00      -52.410      -22.471       -5.374        6.752        6.973        5.302       45.583       48.620       28.108        0.170        0.006       57.024        2.855        0.003      343.560       19.756      861.686
08/20/2013  04:59:00      -84.870      -23.940       -3.805       16.835       12.938        8.043      283.402      167.397       64.682        0.415        0.026       88.182        6.758        0.006      343.479       19.619      861.681
08/20/2013  05:00:00      -98.589      -44.983       -2.925       23.450       18.477       14.488      549.888      341.389      209.909        0.643        0.055      108.366        7.833        0.005      343.427       19.530      861.667
08/20/2013  05:01:00      -81.240      -12.386       -0.847       33.718       21.307       15.444     1136.893      454.005      238.529        0.429        0.091       82.178       11.945        0.021      343.290       19.297      861.660
08/20/2013  05:02:00     -126.594      -21.440       -0.769       47.663       33.689       20.594     2271.721     1134.928      424.120        1.016        0.192      128.396       25.166        0.038      343.264       19.252      861.662
08/20/2013  05:03:00     -126.880      -17.437       -1.853       40.956       38.091       18.715     1677.393     1450.940      350.269        0.994        0.174      128.073       16.488        0.017      343.230       19.195      861.669
08/20/2013  05:04:00      -89.675      -25.677        4.535       37.382       25.509       18.004     1397.385      650.691      324.132        0.555        0.119       93.278       19.584        0.044      343.225       19.186      861.673
08/20/2013  05:05:00      -94.495      -14.773       -3.822       44.703       32.117       20.938     1998.314     1031.523      438.395        0.631        0.173       95.642       24.674        0.067      343.252       19.231      861.676
08/20/2013  05:06:00     -139.864      -29.506      -12.047       22.336       18.353       12.654      498.899      336.838      160.125        1.079        0.050      142.942        4.389        0.001      343.214       19.168      861.684
08/20/2013  05:07:00     -136.868      -35.001       -8.100       25.395       20.937       14.417      644.920      438.375      207.861        1.066        0.065      141.273       10.589        0.006      343.249       19.228      861.697
08/20/2013  05:08:00     -104.787      -12.552       -1.861       37.034       21.590       18.738     1371.533      466.136      351.103        0.666        0.109      105.537       20.101        0.036      343.227       19.190      861.699
08/20/2013  05:09:00     -101.890      -20.090       -0.652       34.966       20.596       17.897     1222.630      424.191      320.296        0.638        0.098      103.852       19.553        0.035      343.236       19.205      861.705
08/20/2013  05:10:00      -94.666      -19.568        5.245       44.616       27.722       19.948     1990.602      768.493      397.927        0.626        0.158       96.667       19.030        0.039      343.266       19.257      861.705
08/20/2013  05:11:00     -106.840      -44.020       -0.877       37.614       32.580       20.970     1414.776     1061.448      439.746        0.813        0.146      115.553       16.590        0.021      343.368       19.430      861.711
08/20/2013  05:12:00     -142.870      -27.223       -9.367       37.182       28.390       23.116     1382.537      806.004      534.349        1.198        0.136      145.441       23.868        0.027      343.244       19.218      861.712
08/20/2013  05:13:00     -124.421      -38.428       -4.110       46.059       41.208       22.210     2121.465     1698.090      493.305        1.064        0.216      130.220       24.651        0.036      343.285       19.289      861.719
08/20/2013  05:14:00     -136.366       22.351      -10.126       35.275       30.452       17.065     1244.330      927.321      291.201        1.083        0.123      138.185        8.746        0.004      343.215       19.170      861.721
08/20/2013  05:15:00     -121.669        2.377       -7.686       45.034       28.844       20.658     2028.017      831.952      426.748        0.908        0.164      121.692       17.538        0.021      343.264       19.253      861.730
08/20/2013  05:16:00      -87.852      -22.197       -2.987       36.457       28.468       16.821     1329.122      810.412      282.935        0.532        0.121       90.613       17.315        0.037      343.187       19.122      861.738
08/20/2013  05:17:00      -91.598      -14.444        2.241       44.386       30.666       22.354     1970.130      940.392      499.684        0.601        0.171       92.730       19.405        0.044      343.277       19.276      861.747
08/20/2013  05:18:00      -90.475      -26.892       -6.799       24.632       18.560       13.838      606.726      344.460      191.489        0.505        0.057       94.387       11.306        0.014      343.206       19.153      861.765
08/20/2013  05:19:00      -70.833      -16.214       -7.397       30.978       21.552       18.522      959.636      464.497      343.053        0.355        0.088       72.665       18.597        0.066      343.249       19.228      861.769
08/20/2013  05:20:00      -78.430      -17.840       -4.141       26.962       18.844       17.061      726.927      355.082      291.070        0.393        0.069       80.433       16.009        0.040      343.352       19.403      861.769
08/20/2013  05:21:00      -68.956      -21.065       -3.450       21.119       13.176       13.092      446.004      173.599      171.395        0.300        0.040       72.102       12.909        0.032      343.328       19.361      861.761
08/20/2013  05:22:00     -109.158      -35.148      -11.702       18.830       18.578       12.134      354.582      345.130      147.228        0.707        0.042      114.677        9.535        0.007      343.413       19.506      861.750
08/20/2013  05:23:00      -94.431      -37.632       -3.858       29.723       23.411       13.905      883.485      548.064      193.353        0.599        0.081      101.654       10.017        0.010      343.363       19.421      861.738
08/20/2013  05:24:00     -136.730      -21.566      -15.910       17.543       17.560       16.257      307.765      308.351      264.286        1.015        0.044      138.421       12.358        0.008      343.460       19.587      861.729
08/20/2013  05:25:00     -103.466      -20.532       -7.925       26.593       20.622       19.113      707.202      425.255      365.313        0.634        0.075      105.483       16.291        0.024      343.325       19.358      861.724
08/20/2013  05:26:00      -99.589      -33.078       -6.905       26.935       23.824       16.150      725.496      567.568      260.807        0.631        0.078      104.939       13.365        0.016      343.231       19.198      861.722
08/20/2013  05:27:00      -74.173      -25.310        0.461       26.610       25.913       18.384      708.104      671.487      337.974        0.393        0.086       78.372       15.297        0.038      343.176       19.103      861.709
08/20/2013  05:28:00      -93.228      -40.397       -2.524       18.899       19.631       13.511      357.189      385.369      182.551        0.563        0.046      101.604       10.548        0.011      343.180       19.111      861.698
08/20/2013  05:29:00      -71.317      -37.791       -4.301       38.517       22.169       18.385     1483.545      491.456      337.998        0.442        0.116       80.711       20.540        0.065      343.160       19.076      861.708
08/20/2013  05:30:00      -74.542      -28.915       -7.292       22.058       26.453       19.706      486.570      699.767      388.331        0.401        0.079       79.954       14.084        0.031      343.133       19.030      861.710
08/20/2013  05:31:00      -61.866       14.506        5.503       35.135       20.189       17.850     1234.453      407.595      318.609        0.301        0.098       63.544       19.116        0.091      343.161       19.078      861.707
08/20/2013  05:32:00      -46.359       -7.813        1.426       22.999       15.536       11.465      528.957      241.354      131.441        0.156        0.045       47.012       10.759        0.052      343.150       19.060      861.710
08/20/2013  05:33:00      -39.769      -14.625       -1.718       15.496       15.319        9.159      240.135      234.661       83.890        0.118        0.028       42.373        5.117        0.015      343.234       19.203      861.718
08/20/2013  05:34:00      -30.383       -6.731       -3.726       14.046        9.014        9.634      197.285       81.250       92.811        0.068        0.019       31.120        8.356        0.072      343.213       19.166      861.726
08/20/2013  05:35:00      -29.193      -16.473       -7.902        7.681        6.605        5.938       58.999       43.622       35.258        0.066        0.007       33.521        3.546        0.011      343.385       19.459      861.724
08/20/2013  05:36:00      -44.261       -6.088       -8.403       11.309       10.254        5.787      127.885      105.145       33.490        0.117        0.013       44.678        3.224        0.005      343.380       19.450      861.717
08/20/2013  05:37:00      -59.572       10.404       -5.479        8.874        6.165        5.325       78.741       38.010       28.357        0.192        0.007       60.473        4.708        0.006      343.363       19.421      861.714
08/20/2013  05:38:00      -49.837       30.810       -8.501       12.055       12.739        6.681      145.324      162.275       44.640        0.193        0.018       58.592        6.263        0.011      343.346       19.393      861.717
08/20/2013  05:39:00      -56.139       22.901      -10.110        9.154       12.899        8.123       83.797      166.373       65.985        0.205        0.016       60.630        6.970        0.013      343.277       19.275      861.719
08/20/2013  05:40:00      -69.456      -18.507       -7.765       13.193       15.797        7.138      174.057      249.557       50.951        0.285        0.024       71.879        3.427        0.002      343.173       19.099      861.722
08/20/2013  05:41:00      -41.952       -6.035       -2.503       19.367       25.721       10.824      375.072      661.547      117.149        0.148        0.058       42.384        9.411        0.049      342.985       18.779      861.723
08/20/2013  05:42:00      -67.746      -23.618       -2.862       23.979       19.637       14.294      574.992      385.599      204.312        0.316        0.058       71.745       12.238        0.029      342.995       18.795      861.725
08/20/2013  05:43:00      -32.262      -22.781        1.717       16.286       14.346        9.702      265.234      205.798       94.130        0.106        0.028       39.494        8.980        0.052      343.023       18.844      861.739
08/20/2013  05:44:00      -20.408       -3.631       -2.112       17.990       14.527       15.759      323.644      211.040      248.358        0.061        0.039       20.728       15.359        0.549      343.105       18.981      861.738
08/20/2013  05:45:00      -49.135      -25.840       -5.798       22.371       14.590        9.547      500.471      212.864       91.148        0.196        0.040       55.516        9.727        0.031      343.036       18.863      861.739
08/20/2013  05:46:00      -83.488      -36.598       -8.775       20.237       14.549       12.309      409.532      211.679      151.513        0.458        0.039       91.157        8.178        0.008      343.010       18.819      861.747
08/20/2013  05:47:00      -92.713      -11.836       -5.787       14.515       14.038        9.571      210.688      197.052       91.596        0.463        0.025       93.465        4.884        0.003      342.986       18.781      861.747
08/20/2013  05:48:00      -81.637      -22.607       -6.496       12.025       14.567        8.672      144.607      212.192       75.206        0.382        0.022       84.709        6.457        0.006      342.991       18.789      861.750
08/20/2013  05:49:00      -91.471      -21.616      -11.711       15.302       17.478       11.468      234.150      305.493      131.504        0.482        0.034       93.990        8.402        0.008      342.989       18.785      861.765
08/20/2013  05:50:00      -49.866       -7.962        5.453       23.939       19.951       13.996      573.078      398.046      195.891        0.187        0.058       50.498       13.377        0.070      342.924       18.675      861.768
08/20/2013  05:51:00      -77.564       -2.111       -6.167       22.068       14.005       11.347      487.018      196.130      128.746        0.344        0.041       77.592       11.403        0.022      342.970       18.753      861.776
08/20/2013  05:52:00      -47.992      -23.888       -4.770       18.264       12.791        7.761      333.590      163.598       60.236        0.173        0.028       53.608        5.478        0.010      343.068       18.919      861.773
08/20/2013  05:53:00      -48.733      -18.351       -4.821       10.248        7.226        5.691      105.025       52.217       32.391        0.146        0.009       52.074        2.441        0.002      343.283       19.283      861.778
08/20/2013  05:54:00      -39.798      -25.685       -8.962       13.677        5.455        5.201      187.050       29.762       27.051        0.128        0.012       47.367        4.385        0.009      343.340       19.381      861.786
08/20/2013  05:55:00       -9.454      -16.435       -5.033       12.943       12.130        7.260      167.520      147.140       52.705        0.038        0.018       18.960        7.358        0.151      343.281       19.281      861.792
08/20/2013  05:56:00        3.895      -27.073        3.867       14.385        8.151        7.375      206.926       66.441       54.389        0.055        0.016       27.352        3.117        0.013      343.324       19.357      861.788
08/20/2013  05:57:00      -16.140      -13.224        3.323       20.248       10.605        8.864      409.986      112.465       78.575        0.052        0.030       20.866        9.399        0.203      343.332       19.369      861.794
08/20/2013  05:58:00      -51.871       -3.024       -8.030       10.598        6.038        8.235      112.315       36.453       67.814        0.149        0.011       51.959        6.162        0.014      343.067       18.916      861.800
08/20/2013  05:59:00      -61.798      -12.217       -7.276       13.046       12.201        7.499      170.197      148.872       56.229        0.220        0.019       62.994        4.895        0.006      343.030       18.853      861.804
08/20/2013  06:00:00      -90.977      -13.761       -4.404       22.316       14.437       11.470      497.998      208.415      131.559        0.466        0.042       92.012        9.893        0.012      343.041       18.873      861.827
08/20/2013  06:01:00     -101.207      -26.862       -3.515       16.660       15.585       11.974      277.541      242.884      143.369        0.582        0.033      104.711        8.334        0.006      342.977       18.766      861.848
08/20/2013  06:02:00      -92.181      -36.274        2.076       22.895       16.891       12.614      524.202      285.319      159.122        0.539        0.048       99.061       12.304        0.015      343.005       18.814      861.858
08/20/2013  06:03:00      -64.003      -40.107        4.205       30.765       17.614       14.357      946.488      310.242      206.116        0.359        0.073       75.531       15.615        0.043      343.086       18.950      861.874
08/20/2013  06:04:00      -23.436      -28.339        5.568       25.519       17.032       16.850      651.197      290.074      283.927        0.130        0.061       36.774       15.280        0.173      343.095       18.965      861.882
08/20/2013  06:05:00      -32.721      -47.476        3.657       20.084       18.644       10.756      403.380      347.606      115.695        0.210        0.043       57.660        8.691        0.023      343.154       19.065      861.886
08/20/2013  06:06:00      -69.148      -53.480       -7.727       11.316       11.440        7.708      128.051      130.863       59.408        0.401        0.016       87.416        2.903        0.001      343.221       19.181      861.900
08/20/2013  06:07:00      -62.464      -45.172       -6.446       11.903       13.548       10.906      141.670      183.541      118.945        0.321        0.022       77.085        4.266        0.003      343.153       19.064      861.903
08/20/2013  06:08:00      -41.516      -51.182      -11.409       13.649       13.105       10.228      186.306      171.740      104.602        0.247        0.023       65.902        5.210        0.006      343.205       19.153      861.906
08/20/2013  06:09:00      -34.702      -24.267        0.614       28.789       17.167       12.225      828.786      294.715      149.439        0.153        0.064       42.345       12.682        0.090      343.096       18.967      861.916
08/20/2013  06:10:00      -39.867      -36.687       -4.315       23.590       19.822       11.791      556.487      392.910      139.037        0.202        0.054       54.179       10.984        0.041      342.951       18.722      861.922
08/20/2013  06:11:00      -74.965      -59.159       -5.016       22.965       27.380       16.903      527.380      749.651      285.723        0.535        0.078       95.496       14.016        0.022      342.962       18.737      861.932
08/20/2013  06:12:00      -69.173      -58.173       -0.555       32.358       26.034       19.409     1047.065      677.747      376.718        0.514        0.105       90.383       13.938        0.024      342.974       18.759      861.936
08/20/2013  06:13:00      -78.365      -48.931        1.320       27.949       23.392       18.775      781.137      547.203      352.507        0.511        0.084       92.387       14.361        0.024      342.942       18.705      861.930
08/20/2013  06:14:00      -81.299      -47.899       -3.118       41.947       24.367       20.149     1759.571      593.745      405.968        0.584        0.138       94.361       15.893        0.028      342.899       18.632      861.931
08/20/2013  06:15:00     -103.882      -57.954       -6.427       33.654       28.230       18.046     1132.601      796.959      325.642        0.822        0.113      118.954       12.602        0.011      342.788       18.442      861.935
08/20/2013  06:16:00      -70.150      -72.583        6.382       49.862       41.643       31.493     2486.185     1734.148      991.805        0.772        0.261      100.942       29.925        0.088      342.765       18.403      861.934
08/20/2013  06:17:00     -117.827      -77.234       -9.324       43.461       33.973       23.765     1888.888     1154.191      564.788        1.177        0.180      140.884       22.131        0.025      342.844       18.537      861.934
08/20/2013  06:18:00      -93.783      -73.278       -7.076       41.256       27.734       22.661     1702.053      769.180      513.540        0.860        0.149      119.016       23.390        0.039      342.819       18.494      861.938
08/20/2013  06:19:00      -85.573      -68.288       -3.664       45.534       41.930       24.522     2073.372     1758.086      601.304        0.822        0.222      109.480       22.721        0.043      342.824       18.503      861.942
08/20/2013  06:20:00      -86.072      -68.118       -0.660       32.433       30.042       18.375     1051.923      902.510      337.655        0.717        0.115      109.766       16.179        0.022      342.892       18.621      861.938
08/20/2013  06:21:00      -96.737      -56.931       -3.595       23.994       19.932       18.137      575.694      397.285      328.943        0.696        0.065      112.246       14.365        0.016      342.915       18.658      861.938
08/20/2013  06:22:00      -56.349      -53.619        1.200       33.647       27.943       17.522     1132.114      780.795      307.024        0.414        0.111       77.783       18.222        0.055      342.904       18.641      861.946
08/20/2013  06:23:00      -75.254      -48.764       -0.695       19.273       14.066       14.331      371.454      197.856      205.380        0.441        0.039       89.672        9.625        0.012      343.010       18.820      861.949
08/20/2013  06:24:00      -56.495      -45.055       -1.270       21.843       12.491       12.075      477.103      156.028      145.798        0.300        0.039       72.261        9.605        0.018      343.019       18.837      861.955
08/20/2013  06:25:00      -68.072      -40.373      -12.080       20.165       10.322        8.066      406.612      106.551       65.053        0.349        0.029       79.144        8.469        0.011      342.963       18.741      861.960
08/20/2013  06:26:00      -99.293      -31.972      -16.659        8.976        9.150        8.255       80.567       83.729       68.148        0.570        0.012      104.314        4.884        0.002      342.877       18.596      861.969
08/20/2013  06:27:00      -68.909      -30.820       -8.558        9.677        6.610        7.144       93.646       43.686       51.040        0.298        0.009       75.487        3.161        0.002      342.903       18.639      861.969
08/20/2013  06:28:00      -16.315      -42.582       -6.789       28.359       11.927        8.390      804.211      142.253       70.398        0.157        0.051       45.601        8.347        0.034      342.982       18.774      861.974
08/20/2013  06:29:00      -35.592      -35.557       -7.095       13.139       12.546       12.090      172.634      157.406      146.178        0.153        0.024       50.310       11.174        0.049      343.009       18.819      861.987
08/20/2013  06:30:00      -50.214      -22.127       -8.362       10.733        7.434        7.497      115.205       55.269       56.210        0.165        0.011       54.873        4.267        0.006      342.980       18.770      861.999
08/20/2013  06:31:00      -40.062      -22.006       -2.330       12.212        8.134        9.093      149.125       66.167       82.679        0.120        0.015       45.708        7.765        0.029      342.915       18.661      862.002
08/20/2013  06:32:00      -19.854      -24.933       -2.826       11.426        8.234        9.135      130.558       67.806       83.450        0.065        0.014       31.872        3.090        0.009      342.931       18.686      862.003
08/20/2013  06:33:00      -23.999      -23.408       -7.942       14.194       11.338       10.636      201.475      128.560      113.130        0.081        0.022       33.525        8.903        0.071      342.914       18.655      862.007
08/20/2013  06:34:00       -2.766      -37.506        1.581        9.468        9.154        9.327       89.638       83.792       86.995        0.084        0.013       37.608        3.285        0.008      342.899       18.632      862.018
08/20/2013  06:35:00      -46.592      -26.175       -1.125       25.324       15.565       11.143      641.298      242.258      124.167        0.193        0.050       53.441       13.824        0.067      342.898       18.629      862.027
08/20/2013  06:36:00      -84.885      -53.647       -4.015       23.195       17.255       15.729      537.988      297.748      247.388        0.559        0.054      100.416        6.309        0.004      342.822       18.500      862.029
08/20/2013  06:37:00      -49.218      -43.776        3.436       34.546       27.785       19.786     1193.434      771.991      391.469        0.335        0.118       65.869       19.456        0.087      342.820       18.497      862.041
08/20/2013  06:38:00      -55.414      -50.430        4.453       35.557       19.227       18.105     1264.271      369.693      327.784        0.380        0.098       74.926       20.785        0.077      342.842       18.534      862.050
08/20/2013  06:39:00      -55.026      -53.845       -1.305       34.126       29.316       22.087     1164.596      859.449      487.838        0.422        0.126       76.988       19.641        0.065      342.942       18.706      862.058
08/20/2013  06:40:00      -52.080      -35.603       -1.403       19.039       13.660       13.951      362.483      186.592      194.635        0.236        0.037       63.086       11.770        0.035      342.846       18.541      862.065
08/20/2013  06:41:00      -40.712      -42.652        2.594       20.374       16.458       11.752      415.080      270.881      138.120        0.215        0.041       58.963        7.425        0.016      342.926       18.677      862.073
08/20/2013  06:42:00      -35.173      -24.036        1.869       19.725       14.231       10.835      389.090      202.508      117.400        0.126        0.035       42.601        8.139        0.036      342.939       18.701      862.081
08/20/2013  06:43:00      -97.150      -32.607      -16.052       15.143       10.977        7.944      229.298      120.501       63.111        0.559        0.021      102.476        4.917        0.002      342.880       18.598      862.090
08/20/2013  06:44:00      -52.091      -61.110       -2.891       44.731       27.366       17.830     2000.857      748.877      317.922        0.476        0.153       80.299       21.196        0.070      342.975       18.760      862.091
08/20/2013  06:45:00      -48.273      -30.308        3.941       28.510       17.090       14.533      812.841      292.060      211.203        0.229        0.066       56.999       13.651        0.057      342.934       18.690      862.092
08/20/2013  06:46:00      -77.067      -33.498       -1.579       29.089       28.180       17.865      846.158      794.087      319.144        0.451        0.098       84.033       19.997        0.057      342.933       18.690      862.090
08/20/2013  06:47:00      -93.867      -37.699       -0.615       17.474       13.562       13.322      305.334      183.930      177.476        0.545        0.033      101.155        8.605        0.007      342.915       18.658      862.097
08/20/2013  06:48:00      -79.147      -33.537       -0.600       22.361       18.880       11.789      500.034      356.468      138.973        0.419        0.050       85.959        6.942        0.007      342.897       18.629      862.111
08/20/2013  06:49:00      -75.300      -37.471       -6.336       22.755       12.933       10.099      517.803      167.261      101.991        0.395        0.039       84.108        5.625        0.004      342.895       18.626      862.117
08/20/2013  06:50:00      -55.031      -38.677        2.207       25.815       18.688       14.662      666.434      349.250      214.976        0.288        0.062       67.263       12.294        0.033      342.863       18.571      862.131
08/20/2013  06:51:00      -54.943      -37.006       -5.725       16.613       12.399       11.020      276.003      153.735      121.451        0.249        0.028       66.243        9.285        0.020      342.906       18.644      862.128
08/20/2013  06:52:00      -78.571      -35.014       -6.876       17.284       13.013       10.579      298.728      169.335      111.907        0.401        0.029       86.020        7.699        0.008      342.873       18.586      862.134
08/20/2013  06:53:00      -36.283      -17.797        0.872       20.609       29.448       11.410      424.719      867.187      130.185        0.153        0.071       40.413       10.155        0.063      342.898       18.630      862.144
08/20/2013  06:54:00      -26.684       -2.551        3.743       26.536       19.162       11.377      704.133      367.195      129.442        0.097        0.060       26.805       12.984        0.235      343.034       18.861      862.151
08/20/2013  06:55:00      -42.679       14.921       -8.323       20.696       21.452       11.972      428.309      460.195      143.339        0.157        0.052       45.212        5.675        0.016      343.014       18.828      862.144
08/20/2013  06:56:00      -40.585       -6.923       -8.115       14.041       18.913        8.757      197.139      357.704       76.680        0.120        0.032       41.171        5.547        0.018      342.957       18.731      862.152
08/20/2013  06:57:00      -34.850      -16.896        1.053       19.261       17.644       12.481      371.002      311.313      155.764        0.117        0.042       38.730       12.718        0.108      342.993       18.793      862.149
08/20/2013  06:58:00      -31.961      -20.685        0.164       17.146       10.442       12.701      293.998      109.040      161.305        0.101        0.028       38.070        6.248        0.027      342.916       18.660      862.148
08/20/2013  06:59:00      -39.573      -20.505       -3.904       27.486       12.811        9.216      755.473      164.109       84.936        0.150        0.050       44.570        7.160        0.026      342.996       18.798      862.157
08/20/2013  07:00:00      -22.733      -25.728       -3.006       21.697       12.492        8.987      470.756      156.044       80.762        0.095        0.035       34.332        9.025        0.069      342.951       18.721      862.157
08/20/2013  07:01:00      -15.274      -22.575        6.783       17.361       11.143       10.018      301.421      124.168      100.370        0.066        0.026       27.257        7.913        0.084      343.011       18.823      862.160
08/20/2013  07:02:00      -34.448      -34.578       -1.739       11.202        9.401        9.336      125.494       88.384       87.169        0.134        0.015       48.809        3.786        0.006      342.951       18.722      862.162
08/20/2013  07:03:00      -14.283      -15.302        1.696       18.549       12.829        9.459      344.056      164.576       89.481        0.052        0.030       20.932       10.163        0.236      342.993       18.792      862.164
08/20/2013  07:04:00      -42.085      -19.945       -2.814       19.857       15.970        9.819      394.290      255.043       96.405        0.146        0.037       46.572        9.515        0.042      342.931       18.685      862.175
08/20/2013  07:05:00      -52.772      -27.724       -8.486        8.624        5.405        3.848       74.366       29.219       14.804        0.187        0.006       59.611        4.121        0.005      342.936       18.693      862.170
08/20/2013  07:06:00      -30.559      -24.379       -0.624       17.494       12.803       11.092      306.039      163.914      123.038        0.106        0.030       39.092        9.426        0.058      342.981       18.771      862.188
08/20/2013  07:07:00      -15.858      -15.637        1.848       13.751       11.181       10.609      189.098      125.007      112.551        0.046        0.021       22.271        7.984        0.129      343.147       19.053      862.187
08/20/2013  07:08:00      -12.995      -16.028        0.278        9.331        7.850        7.429       87.059       61.622       55.190        0.031        0.010       20.634        6.854        0.110      343.137       19.038      862.196
08/20/2013  07:09:00      -12.221       -8.991        3.107        9.813        6.626        9.134       96.286       43.902       83.430        0.023        0.011       15.172        5.626        0.138      343.256       19.241      862.197
08/20/2013  07:10:00      -28.930      -21.562        0.017       19.773        9.103        7.715      390.980       82.867       59.521        0.092        0.027       36.081        7.038        0.038      343.187       19.124      862.202
08/20/2013  07:11:00      -36.163      -27.258       -4.189       18.295        8.584        6.099      334.713       73.679       37.193        0.126        0.022       45.285        6.404        0.020      343.135       19.034      862.208
08/20/2013  07:12:00       -7.690      -16.256        5.856       19.767       16.646       14.414      390.729      277.074      207.763        0.062        0.044       17.983       14.398        0.641      343.279       19.280      862.198
08/20/2013  07:13:00      -29.566      -22.761        2.761       19.030       21.466       14.554      362.145      460.802      211.828        0.122        0.052       37.312       15.156        0.165      343.295       19.306      862.205
08/20/2013  07:14:00      -17.251      -33.851       -3.958       21.648       15.984       12.477      468.655      255.484      155.672        0.117        0.044       37.993        5.881        0.024      343.229       19.192      862.205
08/20/2013  07:15:00      -13.880      -12.423       -4.317       18.465       21.660        9.133      340.944      469.141       83.409        0.063        0.045       18.628        9.271        0.248      343.292       19.301      862.215
08/20/2013  07:16:00      -42.329      -26.137       -6.641       22.353       10.461       11.854      499.640      109.437      140.523        0.163        0.037       49.748       12.793        0.066      343.238       19.210      862.209
08/20/2013  07:17:00      -55.356      -46.562       -8.422       10.641       13.403        7.412      113.237      179.631       54.944        0.283        0.017       72.335        5.001        0.005      343.293       19.303      862.209
08/20/2013  07:18:00      -54.278      -38.917       -9.934       12.720       12.338       10.233      161.809      152.231      104.723        0.249        0.021       66.788        6.266        0.009      343.291       19.300      862.195
08/20/2013  07:19:00      -40.891      -46.342       -3.361       21.694       16.703       11.009      470.642      278.991      121.194        0.235        0.044       61.804       14.281        0.053      343.295       19.306      862.189
08/20/2013  07:20:00      -37.063      -38.949        8.039       24.066       21.678       13.215      579.171      469.939      174.638        0.209        0.061       53.765       15.561        0.084      343.409       19.501      862.174
08/20/2013  07:21:00      -62.014      -54.830       -2.638       28.706       26.553       14.206      824.022      705.036      201.799        0.429        0.087       82.777       12.303        0.022      343.295       19.307      862.169
08/20/2013  07:22:00      -63.881      -61.241       -2.113       24.903       19.685       11.761      620.142      387.516      138.318        0.449        0.057       88.494       13.326        0.023      343.305       19.322      862.167
08/20/2013  07:23:00      -48.884      -15.592        4.288       22.660       14.513        6.756      513.486      210.639       45.650        0.171        0.038       51.310        6.718        0.017      343.401       19.485      862.166
08/20/2013  07:24:00      -23.752      -14.189        6.936       17.056       10.059       10.405      290.918      101.185      108.271        0.066        0.025       27.668       10.666        0.149      343.607       19.837      862.174
08/20/2013  07:25:00      -14.362      -22.341        0.685       11.922       17.288        7.412      142.130      298.886       54.932        0.060        0.025       26.559        6.671        0.063      343.471       19.606      862.187
08/20/2013  07:26:00      -20.661      -52.012        0.259        9.256        9.255        6.041       85.674       85.660       36.490        0.167        0.010       55.966        1.702        0.001      343.401       19.488      862.201
08/20/2013  07:27:00       -5.187      -25.171       -9.104       18.588       18.073       11.581      345.521      326.619      134.120        0.077        0.040       25.699        9.150        0.127      343.352       19.402      862.214
08/20/2013  07:28:00       -2.893      -27.751      -13.515       22.924       24.110       24.600      525.497      581.312      605.166        0.134        0.086       27.901       17.948        0.414      343.321       19.352      862.225
08/20/2013  07:29:00       -3.237      -17.338       -0.632       22.657       16.820       12.969      513.337      282.902      168.205        0.064        0.048       17.637       10.326        0.343      343.254       19.235      862.231
08/20/2013  07:30:00      -16.822      -17.101        9.367       35.862       25.786       19.417     1286.116      664.931      377.002        0.150        0.116       23.988       23.838        0.988      343.656       19.921      862.241
08/20/2013  07:31:00      -52.452      -69.662       -3.568       24.177       17.071       13.174      584.545      291.417      173.558        0.433        0.052       87.201        8.344        0.009      343.402       19.489      862.236
08/20/2013  07:32:00      -58.518      -62.464       -4.576       29.001       22.480       18.002      841.062      505.358      324.074        0.451        0.084       85.593       16.988        0.039      343.420       19.517      862.239
08/20/2013  07:33:00      -57.203      -49.784       -2.681       23.169       17.254       14.285      536.825      297.689      204.059        0.340        0.052       75.833       11.184        0.022      343.461       19.589      862.243
08/20/2013  07:34:00      -71.911      -49.261       -1.680       30.180       18.864       13.476      910.836      355.847      181.590        0.452        0.072       87.166       14.544        0.028      343.516       19.684      862.240
08/20/2013  07:35:00      -30.599      -40.745        2.610       21.646       18.175       17.041      468.558      330.332      290.398        0.185        0.054       50.956       12.970        0.065      343.565       19.766      862.239
08/20/2013  07:36:00      -47.033      -49.054       -4.185       23.936       14.362       13.895      572.919      206.273      193.060        0.280        0.049       67.958       13.722        0.041      343.612       19.846      862.232
08/20/2013  07:37:00      -59.515      -44.510       -0.351       24.049       17.181       12.677      578.353      295.197      160.701        0.328        0.052       74.317        9.036        0.015      343.640       19.894      862.239
08/20/2013  07:38:00      -55.423      -35.280        2.144       18.163       26.964       11.056      329.877      727.076      122.236        0.275        0.059       65.699       12.608        0.037      343.677       19.956      862.243
08/20/2013  07:39:00      -54.522      -14.191        3.728       22.730       18.764       14.403      516.649      352.092      207.448        0.213        0.054       56.339       13.966        0.061      343.780       20.132      862.252
08/20/2013  07:40:00      -30.669        2.908        1.963       14.703       17.582       12.749      216.177      309.125      162.529        0.082        0.034       30.807       10.239        0.110      343.805       20.174      862.264
08/20/2013  07:41:00      -26.463        1.856       -7.628       12.388       11.239        5.754      153.465      126.315       33.104        0.054        0.016       26.528        6.149        0.054      343.724       20.035      862.264
08/20/2013  07:42:00       -6.397       14.043       -2.977       15.325       18.342       20.619      234.870      336.445      425.130        0.062        0.050       15.431        8.724        0.320      343.923       20.377      862.272
08/20/2013  07:43:00      -25.026        4.428       -2.700       22.538       12.028       12.336      507.959      144.662      152.182        0.073        0.040       25.415       11.376        0.200      343.890       20.320      862.270
08/20/2013  07:44:00      -24.055       10.856        2.042       18.056       12.674       22.702      326.016      160.640      515.388        0.085        0.050       26.391        9.633        0.133      343.781       20.134      862.271
08/20/2013  07:45:00       -7.254       13.238       15.298       11.992       11.659       13.884      143.805      135.935      192.770        0.047        0.024       15.095        8.078        0.286      344.154       20.773      862.261
08/20/2013  07:46:00      -39.045       -1.771       -0.501       20.311       12.732        9.927      412.527      162.096       98.537        0.110        0.034       39.086        8.037        0.042      343.754       20.088      862.245
08/20/2013  07:47:00      -25.256      -21.928        2.133       24.691       18.281       12.721      609.644      334.209      161.823        0.111        0.055       33.446       12.924        0.149      343.809       20.184      862.230
08/20/2013  07:48:00      -23.304      -37.090        1.851       22.020       21.020       14.418      484.860      441.826      207.872        0.153        0.057       43.803       13.321        0.092      343.863       20.274      862.214
08/20/2013  07:49:00      -45.728      -28.049       -2.889        8.920       12.965        8.179       79.569      168.104       66.897        0.160        0.016       53.645        5.617        0.011      343.851       20.253      862.211
08/20/2013  07:50:00      -34.584      -25.061       -4.131       14.699       15.270        6.045      216.049      233.158       36.542        0.116        0.024       42.710        5.027        0.014      343.906       20.346      862.215
08/20/2013  07:51:00      -51.934      -66.556       -2.793       24.065       21.829       16.550      579.142      476.501      273.910        0.423        0.066       84.420       15.848        0.035      343.907       20.349      862.225
08/20/2013  07:52:00      -48.955      -60.046       -4.931       21.761       15.614        9.875      473.555      243.811       97.523        0.342        0.041       77.474       11.782        0.023      343.918       20.372      862.237
08/20/2013  07:53:00      -63.116      -64.975       -6.510       20.499       22.875       14.369      420.198      523.283      206.465        0.470        0.057       90.583       13.632        0.023      343.945       20.414      862.242
08/20/2013  07:54:00      -68.726      -45.625       -1.934       24.558       20.846       16.052      603.080      434.575      257.677        0.405        0.065       82.492       14.922        0.033      344.002       20.511      862.249
08/20/2013  07:55:00      -51.922      -67.278        1.549       19.039       27.496       14.841      362.478      756.010      220.251        0.428        0.067       84.984       11.777        0.019      344.075       20.636      862.257
08/20/2013  07:56:00      -72.784      -48.625        9.791       44.768       30.906       24.992     2004.169      955.167      624.585        0.567        0.179       87.532       26.411        0.091      344.099       20.679      862.257
08/20/2013  07:57:00     -122.586      -77.144        1.199       44.495       34.285       25.317     1979.790     1175.480      640.940        1.239        0.190      144.840       27.663        0.036      344.049       20.593      862.261
08/20/2013  07:58:00     -106.718      -70.504       -0.667       39.208       29.901       21.925     1537.289      894.064      480.715        0.964        0.146      127.904       19.844        0.024      344.085       20.654      862.254
08/20/2013  07:59:00     -111.836      -46.061       -3.748       20.300       22.089       12.980      412.100      487.931      168.479        0.786        0.053      120.950        7.424        0.004      344.132       20.738      862.259
08/20/2013  08:00:00      -50.756      -61.865        2.485       33.041       45.378       22.109     1091.738     2059.123      488.821        0.502        0.182       80.021       22.136        0.077      344.214       20.873      862.268
08/20/2013  08:01:00      -43.497      -57.176       -0.255       19.797       24.531       14.939      391.928      601.786      223.167        0.319        0.061       71.841       13.728        0.037      344.218       20.881      862.270
08/20/2013  08:02:00      -55.445      -37.703       -4.999       22.686       16.031       14.230      514.666      256.990      202.490        0.275        0.049       67.050        6.219        0.009      344.266       20.963      862.281
08/20/2013  08:03:00      -59.142      -17.294       -3.374       20.283       19.201       11.349      411.390      368.675      128.811        0.236        0.045       61.619       12.664        0.042      344.310       21.038      862.281
08/20/2013  08:04:00      -34.013       -2.352       -2.640        7.771       12.685        9.794       60.381      160.897       95.914        0.074        0.016       34.094        3.613        0.011      344.356       21.117      862.280
08/20/2013  08:05:00      -31.354      -16.251       -0.335        9.352       17.054        7.289       87.455      290.839       53.130        0.084        0.022       35.315        3.111        0.008      344.400       21.192      862.289
08/20/2013  08:06:00      -52.207      -18.401       -6.622       19.507       14.722       13.195      380.534      216.730      174.114        0.194        0.039       55.355        8.121        0.022      344.434       21.250      862.294
08/20/2013  08:07:00      -58.258      -39.877       -6.129       15.898       19.116       16.524      252.746      365.414      273.026        0.296        0.045       70.599       12.202        0.030      344.438       21.257      862.302
08/20/2013  08:08:00      -49.358      -21.579       -7.614       16.662       15.726       12.654      277.612      247.315      160.120        0.182        0.034       53.869        8.746        0.026      344.458       21.292      862.311
08/20/2013  08:09:00      -62.300      -73.820       -1.590       21.119       44.930       14.549      446.032     2018.724      211.684        0.600        0.134       96.596       11.278        0.014      344.457       21.291      862.320
08/20/2013  08:10:00      -37.040     -111.984        3.306       16.320       19.821       11.827      266.353      392.855      139.883        0.736        0.040      117.950       10.469        0.008      344.476       21.322      862.331
08/20/2013  08:11:00      -38.848      -94.903       -3.716       14.216       18.710       15.456      202.091      350.053      238.895        0.566        0.040      102.547       11.579        0.013      344.485       21.339      862.340
08/20/2013  08:12:00      -42.602     -117.102       -2.337       17.604       27.072       13.021      309.910      732.880      169.540        0.837        0.061      124.611        8.371        0.005      344.510       21.379      862.352
08/20/2013  08:13:00      -39.897      -84.940       -1.901       15.283       21.711       12.500      233.562      471.356      156.238        0.484        0.043       93.843        9.489        0.010      344.531       21.415      862.370
08/20/2013  08:14:00      -29.071      -26.142        8.533       22.587       22.046       20.425      510.152      486.013      417.196        0.151        0.071       39.097       21.234        0.295      344.920       22.082      862.364
08/20/2013  08:15:00      -27.387      -21.534        9.950       26.552       23.131       19.438      705.013      535.020      377.819        0.147        0.081       34.839       22.517        0.418      345.173       22.516      862.372
08/20/2013  08:16:00       -9.871       -2.161       14.426       24.430       21.458       17.205      596.802      460.448      296.006        0.083        0.068       10.105       14.784        2.141      345.095       22.381      862.375
08/20/2013  08:17:00      -20.564        3.928       10.237       19.584       16.265       19.319      383.526      264.553      373.223        0.078        0.051       20.936       13.858        0.438      345.233       22.618      862.372
08/20/2013  08:18:00      -29.418        8.403        1.081       13.431       18.094       15.432      180.391      327.406      238.133        0.084        0.037       30.595       11.330        0.137      344.897       22.043      862.384
08/20/2013  08:19:00      -59.185      -18.144       -3.360       23.464       26.743       12.803      550.556      715.204      163.905        0.264        0.071       61.904       11.119        0.032      344.702       21.708      862.378
08/20/2013  08:20:00      -19.805      -13.701        4.136       17.643       47.451       15.878      311.281     2251.563      252.096        0.171        0.141       24.082       16.403        0.464      344.894       22.039      862.364
08/20/2013  08:21:00      -17.436      -46.518        1.363       16.645       17.821       10.121      277.044      317.591      102.425        0.158        0.035       49.679       10.126        0.042      344.728       21.751      862.357
08/20/2013  08:22:00      -16.349      -68.032        1.202       22.044       17.383       13.531      485.949      302.159      183.078        0.293        0.049       69.969       10.601        0.023      344.736       21.765      862.350
08/20/2013  08:23:00      -10.321      -46.825        5.206       12.836       12.014       11.942      164.776      144.332      142.616        0.139        0.023       47.949        5.772        0.014      344.771       21.827      862.338
08/20/2013  08:24:00      -21.759      -58.020        4.588        8.657       10.408        9.373       74.950      108.337       87.855        0.207        0.014       61.966        3.935        0.004      344.805       21.885      862.335
08/20/2013  08:25:00      -13.770      -45.716        3.012       11.897       14.304       13.733      141.536      204.607      188.608        0.141        0.027       47.744        9.337        0.038      344.916       22.074      862.334
08/20/2013  08:26:00      -33.227      -37.472       -9.726       10.986       25.069       11.254      120.694      628.435      126.660        0.174        0.044       50.081        6.275        0.016      344.951       22.134      862.326
08/20/2013  08:27:00      -27.010       -0.852       -3.488       19.341       10.313       12.450      374.066      106.366      155.005        0.069        0.032       27.024       10.926        0.163      345.259       22.661      862.325
08/20/2013  08:28:00      -19.445       -4.745       12.226       11.979       15.001       11.153      143.499      225.043      124.397        0.052        0.025       20.016        9.784        0.239      345.388       22.884      862.331
08/20/2013  08:29:00      -23.659        0.300       11.530       10.007        8.154       10.618      100.144       66.481      112.731        0.049        0.014       23.661        5.477        0.054      345.346       22.812      862.332
08/20/2013  08:30:00       -7.255        4.600       44.165       14.076       22.150       11.534      198.144      490.618      133.028        0.142        0.041        8.590        7.128        0.689      346.187       24.255      862.344
08/20/2013  08:31:00      -13.617      -12.017       21.613       19.900       19.153       17.269      396.029      366.823      298.229        0.093        0.053       18.161       16.373        0.813      345.641       23.317      862.351
08/20/2013  08:32:00       -5.106      -19.873        9.201       18.673       14.087       22.054      348.681      198.446      486.395        0.077        0.052       20.519        9.817        0.229      345.432       22.959      862.348
08/20/2013  08:33:00      -39.390      -11.509       -7.291       15.664       10.080        9.679      245.361      101.609       93.693        0.109        0.022       41.037        5.814        0.020      345.147       22.470      862.353
08/20/2013  08:34:00      -18.055       11.874       -7.040       15.749       21.821       13.543      248.029      476.145      183.416        0.071        0.045       21.610        7.255        0.113      345.370       22.852      862.356
08/20/2013  08:35:00      -25.687       18.891       11.555       24.270       20.456       19.470      589.018      418.458      379.072        0.127        0.069       31.885        3.229        0.010      345.640       23.314      862.355
08/20/2013  08:36:00      -24.364       12.635        7.618       10.389       11.897       13.508      107.922      141.534      182.464        0.062        0.022       27.445        6.522        0.056      345.470       23.024      862.355
08/20/2013  08:37:00      -37.991       13.386       -4.736       12.771       10.212       13.117      163.108      104.291      172.062        0.104        0.022       40.280        7.492        0.035      345.361       22.835      862.355
08/20/2013  08:38:00        1.170       18.925       23.009       15.207       21.222       16.646      231.246      450.376      277.100        0.092        0.048       18.961       11.203        0.349      346.215       24.303      862.355
08/20/2013  08:39:00       13.278       -9.477       26.157       26.134       23.950       21.642      682.965      573.587      468.394        0.134        0.086       16.313       18.993        1.356      346.106       24.115      862.350
08/20/2013  08:40:00       39.502      -18.949       -2.705       29.725       27.873       20.808      883.559      776.888      432.961        0.201        0.105       43.811        7.714        0.031      345.298       22.729      862.354
08/20/2013  08:41:00       27.762      -48.072        4.210       28.496       21.807       28.320      812.009      475.526      801.997        0.259        0.104       55.512       17.202        0.096      345.357       22.829      862.358
08/20/2013  08:42:00       14.392      -33.415       16.201       41.984       36.832       31.944     1762.649     1356.563     1020.418        0.286        0.207       36.382       24.468        0.452      345.517       23.104      862.353
08/20/2013  08:43:00        9.684      -50.611       29.700       31.021       28.516       32.278      962.293      813.172     1041.839        0.318        0.141       51.529       14.613        0.080      345.727       23.466      862.355
08/20/2013  08:44:00       35.903      -65.209       11.933       35.261       24.307       31.099     1243.335      590.838      967.157        0.424        0.140       74.439       13.276        0.032      345.533       23.131      862.354
08/20/2013  08:45:00       11.073      -17.689       26.895       18.137       30.491       13.649      328.959      929.704      186.304        0.130        0.072       20.869        9.384        0.202      346.023       23.972      862.353
08/20/2013  08:46:00        0.686       -2.820       31.429       23.921       41.749       25.990      572.229     1742.957      675.456        0.199        0.150        2.902       25.207       75.442      346.428       24.669      862.356
08/20/2013  08:47:00       -4.307       28.119       54.227       13.880       26.772       17.321      192.642      716.762      300.033        0.248        0.060       28.447       10.339        0.132      346.416       24.646      862.355
08/20/2013  08:48:00       -6.805        6.120       30.991       13.797       29.077       16.468      190.350      845.444      271.204        0.118        0.065        9.152       14.295        2.439      346.232       24.332      862.362
08/20/2013  08:49:00       30.005       -1.207       16.472       35.995       22.736       23.067     1295.664      516.937      532.075        0.176        0.117       30.030       22.448        0.559      346.336       24.510      862.358
08/20/2013  08:50:00        3.241       16.419       32.583       12.831       15.498        9.978      164.639      240.175       99.564        0.092        0.025       16.736        4.934        0.087      346.614       24.989      862.355
08/20/2013  08:51:00       14.455      -17.762        1.994       22.065       15.711       23.173      486.874      246.844      536.978        0.090        0.064       22.900       12.955        0.320      346.042       24.006      862.345
08/20/2013  08:52:00        5.198        9.315       23.964       18.909       27.463       21.506      357.546      754.233      462.490        0.113        0.079       10.667       17.221        2.606      346.664       25.074      862.342
08/20/2013  08:53:00       21.696       -7.176       25.720       27.918       30.674       25.107      779.425      940.886      630.371        0.177        0.118       22.852       20.112        0.775      346.392       24.606      862.340
08/20/2013  08:54:00       29.069      -15.555       13.487       33.321       35.087       28.594     1110.264     1231.098      817.633        0.221        0.158       32.969       22.021        0.446      346.266       24.390      862.334
08/20/2013  08:55:00        2.663      -23.521       23.259       30.757       29.253       20.078      946.009      855.751      403.140        0.165        0.110       23.672       13.289        0.315      346.410       24.639      862.336
08/20/2013  08:56:00       -3.769       26.853       59.335       27.522       44.836       21.875      757.469     2010.280      478.523        0.375        0.162       27.116       19.583        0.522      346.561       24.897      862.333
08/20/2013  08:57:00      -14.176      -22.665       13.693       31.888       33.576       23.701     1016.840     1127.368      561.730        0.180        0.135       26.733       14.472        0.293      346.214       24.300      862.347
08/20/2013  08:58:00      -44.946       -9.770       -0.868       15.035       12.704       11.808      226.047      161.397      139.423        0.132        0.026       45.995        4.825        0.011      345.913       23.784      862.356
08/20/2013  08:59:00      -65.591      -20.685       -5.556       16.737       20.883       13.873      280.117      436.113      192.447        0.283        0.045       68.776       11.177        0.026      345.961       23.865      862.355
08/20/2013  09:00:00      -25.869      -17.341        0.319       17.563       38.668       17.163      308.464     1495.250      294.584        0.153        0.105       31.144       10.162        0.106      346.117       24.133      862.363
08/20/2013  09:01:00      -46.855      -15.537       11.419       23.891       24.074       17.542      570.780      579.579      307.720        0.201        0.073       49.364       14.113        0.082      346.200       24.278      862.361
08/20/2013  09:02:00      -42.822      -35.830       -1.755       11.253       20.273       11.253      126.624      410.975      126.640        0.189        0.033       55.835        5.294        0.009      346.009       23.948      862.353
08/20/2013  09:03:00      -33.018       -0.592        3.919       19.812       22.619       16.352      392.513      511.631      267.393        0.114        0.059       33.023       17.146        0.270      346.473       24.746      862.356
08/20/2013  09:04:00       -5.764      -15.905       12.088       16.563       23.648       18.085      274.322      559.208      327.075        0.080        0.058       16.918       17.525        1.073      346.702       25.142      862.354
08/20/2013  09:05:00      -25.104       -1.892        5.881       21.813       20.901       15.849      475.788      436.859      251.194        0.092        0.058       25.176        4.543        0.033      346.642       25.038      862.365
08/20/2013  09:06:00      -18.640       -4.131       10.058       19.063       19.202       15.533      363.414      368.729      241.281        0.072        0.049       19.092       13.434        0.495      346.980       25.619      862.365
08/20/2013  09:07:00      -33.680      -45.924       -2.380       29.518       28.985       15.290      871.329      840.137      233.772        0.260        0.097       56.950       15.826        0.077      346.262       24.384      862.361
08/20/2013  09:08:00      -76.775      -73.567       -2.606       25.163       20.424       18.988      633.160      417.159      360.529        0.636        0.071      106.332       10.235        0.009      346.144       24.179      862.364
08/20/2013  09:09:00      -54.331      -21.587       -5.374       27.868       18.103       12.388      776.623      327.727      153.458        0.235        0.063       58.463       14.226        0.059      346.173       24.230      862.366
08/20/2013  09:10:00      -47.025       -6.339        1.653       21.910       18.898       12.280      480.027      357.135      150.793        0.162        0.049       47.450        7.178        0.023      346.313       24.468      862.358
08/20/2013  09:11:00      -35.110       -9.300        7.042       27.218       17.270       15.668      740.815      298.269      245.472        0.133        0.064       36.321       17.432        0.230      346.755       25.230      862.352
08/20/2013  09:12:00      -38.160      -21.825       -1.334       17.461       14.337       11.117      304.881      205.542      123.580        0.128        0.032       43.960        6.947        0.025      346.361       24.555      862.342
08/20/2013  09:13:00       -3.737      -10.416       18.721       20.798       14.768       20.121      432.561      218.089      404.838        0.076        0.053       11.066       17.435        2.482      347.044       25.728      862.326
08/20/2013  09:14:00      -20.070       10.693       10.244       21.072       18.018       15.353      444.018      324.654      235.718        0.081        0.050       22.741       13.393        0.347      346.949       25.565      862.313
08/20/2013  09:15:00      -42.951      -30.356       -7.047       29.218       27.752       15.730      853.690      770.157      247.441        0.234        0.094       52.595       13.105        0.062      346.415       24.646      862.294
08/20/2013  09:16:00      -23.900      -10.892        4.541       21.862       19.278       16.121      477.954      371.635      259.899        0.091        0.055       26.265       12.566        0.229      346.661       25.069      862.282
08/20/2013  09:17:00      -30.087      -11.165        4.930       16.764       23.534       15.491      281.038      553.834      239.956        0.106        0.054       32.092       14.145        0.194      346.741       25.206      862.276
08/20/2013  09:18:00       -2.604        9.480       35.784       15.748       17.598       17.520      247.984      309.690      306.962        0.112        0.043        9.831       11.631        1.400      347.768       26.978      862.267
08/20/2013  09:19:00      -21.801      -45.853        2.310       35.949       35.132       25.220     1292.340     1234.286      636.050        0.287        0.158       50.772       22.880        0.203      346.529       24.843      862.260
08/20/2013  09:20:00      -34.847      -46.932       11.909       26.154       28.738       16.361      684.030      825.896      267.691        0.267        0.089       58.455       14.645        0.063      346.563       24.899      862.262
08/20/2013  09:21:00      -22.804       -3.760        0.711       26.971       16.173        9.705      727.432      261.550       94.180        0.081        0.054       23.112        8.701        0.142      346.726       25.181      862.268
08/20/2013  09:22:00      -12.748      -11.941       21.122       23.157       35.346       23.392      536.231     1249.362      547.181        0.154        0.117       17.468       20.751        1.411      346.960       25.585      862.271
08/20/2013  09:23:00       10.371        1.751       28.008       26.384       42.911       19.168      696.112     1841.383      367.396        0.190        0.145       10.518        9.357        0.791      346.901       25.482      862.274
08/20/2013  09:24:00       16.102       13.591       31.245       22.359       23.059       17.277      499.913      531.725      298.493        0.137        0.067       21.071        8.948        0.180      347.231       26.052      862.280
08/20/2013  09:25:00       36.487        3.751       38.396       40.678       50.308       38.376     1654.728     2530.868     1472.685        0.424        0.283       36.679       36.600        0.996      346.986       25.629      862.281
08/20/2013  09:26:00       51.744      -38.722       25.407       58.172       74.106       45.658     3383.990     5491.720     2084.666        0.789        0.548       64.628       46.841        0.525      346.852       25.398      862.277
08/20/2013  09:27:00       41.028      -32.481       37.265       51.170       63.575       47.287     2618.407     4041.771     2236.040        0.651        0.445       52.329       39.921        0.582      347.092       25.811      862.276
08/20/2013  09:28:00        9.642      -64.421       12.720       37.198       44.106       30.320     1383.692     1945.323      919.328        0.433        0.212       65.138       23.692        0.132      346.777       25.269      862.268
08/20/2013  09:29:00       18.746      -12.086       35.753       41.415       57.706       38.582     1715.176     3329.955     1488.564        0.415        0.327       22.305       39.937        3.206      347.298       26.166      862.264
08/20/2013  09:30:00       24.222      -67.560      -13.121       30.318       39.839       29.708      919.205     1587.128      882.537        0.436        0.169       71.770       27.298        0.145      346.849       25.393      862.267
08/20/2013  09:31:00      -42.870      -23.451       -0.313       44.319       19.980       18.390     1964.210      399.197      338.174        0.254        0.135       48.865       16.928        0.120      346.764       25.246      862.262
08/20/2013  09:32:00      -44.758      -25.764       -0.803       25.974       21.426       15.032      674.672      459.082      225.962        0.201        0.068       51.643        9.455        0.034      346.597       24.961      862.266
08/20/2013  09:33:00      -13.520      -15.017        2.213       21.909       23.604       17.215      480.014      557.160      296.367        0.087        0.067       20.207       14.613        0.523      347.073       25.779      862.263
08/20/2013  09:34:00      -20.193      -29.890       -0.805       21.353       25.327       16.237      455.969      641.450      263.652        0.133        0.068       36.072       10.319        0.082      346.894       25.471      862.259
08/20/2013  09:35:00       -7.973      -13.293        7.487       33.561       37.133       28.570     1126.362     1378.865      816.257        0.181        0.166       15.501       16.659        1.155      346.849       25.392      862.260
08/20/2013  09:36:00       22.906      -22.760       15.525       43.599       48.027       35.290     1900.909     2306.603     1245.403        0.337        0.273       32.290       21.791        0.455      346.925       25.524      862.253
08/20/2013  09:37:00       19.399      -19.961       18.094       40.367       27.305       34.705     1629.495      745.552     1204.412        0.234        0.179       27.834       23.329        0.702      346.920       25.514      862.249
08/20/2013  09:38:00        3.707      -33.181       21.756       45.567       40.314       33.425     2076.384     1625.223     1117.213        0.320        0.241       33.387       29.083        0.759      347.105       25.833      862.253
08/20/2013  09:39:00      -25.908      -33.109       12.021       32.616       54.477       27.828     1063.819     2967.708      774.379        0.336        0.240       42.041       18.392        0.191      346.969       25.599      862.254
08/20/2013  09:40:00       18.051        5.585       42.157       25.156       53.989       36.626      632.814     2914.834     1341.457        0.351        0.244       18.896       38.857        4.229      347.170       25.945      862.272
08/20/2013  09:41:00        4.734       -4.551       19.567       39.190       41.930       38.904     1535.838     1758.151     1513.521        0.262        0.240        6.567       40.133       37.351      347.256       26.093      862.271
08/20/2013  09:42:00       -7.261      -13.396       20.596       20.084       22.238       19.326      403.380      494.529      373.510        0.096        0.064       15.237       18.051        1.403      347.580       26.653      862.281
08/20/2013  09:43:00       25.112      -29.394       17.723       30.448       29.947       29.933      927.100      896.814      895.986        0.226        0.136       38.660       15.116        0.153      347.051       25.741      862.291
08/20/2013  09:44:00        8.316      -33.457       14.039       27.751       43.553       25.260      770.102     1896.849      638.078        0.234        0.165       34.475       23.836        0.478      347.118       25.856      862.294
08/20/2013  09:45:00        2.467      -50.811        0.495       17.701       39.387       17.585      313.326     1551.359      309.240        0.238        0.109       50.871       21.682        0.182      347.173       25.951      862.302
08/20/2013  09:46:00       -6.050       -9.620       32.590       14.004       25.513       18.172      196.101      650.925      330.226        0.118        0.059       11.365       17.552        2.385      347.937       27.270      862.299
08/20/2013  09:47:00       -6.142       17.391       34.113       23.907       22.244       21.331      571.521      494.804      455.033        0.151        0.076       18.443        9.129        0.245      347.884       27.178      862.302
08/20/2013  09:48:00      -22.293       11.009       27.868       19.931       19.984       16.007      397.264      399.346      256.208        0.122        0.053       24.863       11.392        0.210      347.879       27.170      862.305
08/20/2013  09:49:00        5.240        6.520       33.293       27.022       34.520       16.917      730.184     1191.630      286.174        0.169        0.110        8.364       13.053        2.435      347.955       27.300      862.307
08/20/2013  09:50:00       82.681       65.579       35.978       57.035       39.993       37.384     3252.961     1599.430     1397.565        0.934        0.312      105.531       34.709        0.108      347.011       25.670      862.306
08/20/2013  09:51:00       53.952       68.548       64.792       61.729       41.902       43.491     3810.426     1755.754     1891.446        0.963        0.373       87.233       37.851        0.188      347.234       26.056      862.300
08/20/2013  09:52:00       65.013       63.400       49.356       45.015       47.362       35.435     2026.354     2243.127     1255.672        0.810        0.276       90.809       20.947        0.053      347.018       25.683      862.310
08/20/2013  09:53:00        2.092      -83.891        7.312       25.105       41.554       23.116      630.285     1726.697      534.350        0.499        0.145       83.917       11.273        0.018      346.829       25.358      862.305
08/20/2013  09:54:00        6.160       -0.018       34.588       25.318       36.954       27.582      641.015     1365.633      760.773        0.200        0.138        6.160       17.619        8.180      347.793       27.020      862.309
08/20/2013  09:55:00       23.116       31.546       53.445       34.613       43.155       27.463     1198.053     1862.328      754.199        0.410        0.191       39.109       21.624        0.306      347.514       26.539      862.312
08/20/2013  09:56:00       38.150       -1.483       21.631       29.077       31.324       37.851      845.467      981.189     1432.703        0.259        0.163       38.179       26.173        0.470      347.401       26.343      862.320
08/20/2013  09:57:00       16.150       23.360       45.924       38.702       45.338       33.843     1497.820     2055.506     1145.325        0.381        0.235       28.399       36.103        1.616      347.568       26.633      862.312
08/20/2013  09:58:00       39.424       -7.317       28.969       41.134       38.437       38.097     1691.976     1477.401     1451.365        0.353        0.231       40.098       25.769        0.413      347.622       26.726      862.317
08/20/2013  09:59:00       81.421      -89.489        9.636       39.325       47.041       38.024     1546.454     2212.875     1445.836        0.997        0.260      120.986       29.367        0.059      347.247       26.078      862.319
08/20/2013  10:00:00       48.818      -72.150        1.774       46.009       52.387       41.662     2116.870     2744.406     1735.734        0.709        0.330       87.114       37.114        0.182      347.479       26.480      862.323
08/20/2013  10:01:00        5.539      -97.976       20.695       49.511       62.568       34.362     2451.352     3914.798     1180.723        0.880        0.377       98.132       35.050        0.128      347.094       25.815      862.325
08/20/2013  10:02:00       33.398       31.150       25.469       35.702       26.984       25.269     1274.653      728.137      638.527        0.269        0.132       45.670       21.382        0.219      348.251       27.811      862.333
08/20/2013  10:03:00       22.235       36.140       35.526       34.265       36.653       37.027     1174.108     1343.459     1370.965        0.347        0.194       42.432       21.521        0.257      348.013       27.400      862.336
08/20/2013  10:04:00       50.568       30.339       50.796       47.885       56.661       39.344     2293.021     3210.415     1547.976        0.655        0.353       58.971       27.651        0.220      347.572       26.638      862.334
08/20/2013  10:05:00       72.957       46.815       26.978       73.201       53.374       31.471     5358.378     2848.784      990.395        0.872        0.460       86.686       28.268        0.106      347.578       26.649      862.333
08/20/2013  10:06:00       19.223       45.129       33.968       36.444       31.895       26.033     1328.183     1017.297      677.729        0.329        0.151       49.052       10.882        0.049      347.849       27.117      862.336
08/20/2013  10:07:00       64.913       34.941       15.528       29.464       61.429       25.140      868.141     3773.524      632.039        0.547        0.264       73.719       11.487        0.024      347.343       26.244      862.331
08/20/2013  10:08:00       50.444     -111.831      -10.422       55.203       63.445       36.281     3047.332     4025.321     1316.335        1.177        0.419      122.682       32.942        0.072      347.653       26.777      862.322
08/20/2013  10:09:00       14.992       14.082       53.967       26.291       51.119       26.358      691.241     2613.191      694.751        0.367        0.200       20.569       21.670        1.110      348.167       27.666      862.299
08/20/2013  10:10:00        9.006       35.918       46.497       33.774       46.471       28.204     1140.687     2159.579      795.470        0.381        0.205       37.030       18.939        0.262      348.005       27.386      862.300
08/20/2013  10:11:00       54.513       43.593       44.861       57.102       57.420       39.196     3260.684     3297.069     1536.295        0.749        0.405       69.800       27.014        0.150      347.881       27.173      862.282
08/20/2013  10:12:00       20.556       12.137       45.302       39.927       32.356       29.870     1594.199     1046.936      892.227        0.308        0.177       23.871       15.979        0.448      348.286       27.872      862.290
08/20/2013  10:13:00       13.276      -15.044       34.228       32.264       58.292       45.591     1040.986     3398.001     2078.540        0.404        0.326       20.064       36.729        3.351      348.076       27.509      862.273
08/20/2013  10:14:00       67.631      -64.742        9.679       52.337       87.359       40.916     2739.125     7631.604     1674.090        1.045        0.602       93.624       42.176        0.203      347.696       26.852      862.276
08/20/2013  10:15:00       47.526       29.316       40.831       54.380       34.195       33.611     2957.187     1169.330     1129.670        0.502        0.263       55.840       28.940        0.269      347.756       26.957      862.265
08/20/2013  10:16:00       77.350       28.291       15.182       49.542       34.177       26.245     2454.392     1168.083      688.775        0.566        0.216       82.361       21.350        0.067      347.648       26.770      862.266
08/20/2013  10:17:00      129.508       67.353        9.843       45.737       39.608       33.516     2091.840     1568.754     1123.296        1.309        0.239      145.976       10.246        0.005      347.785       27.005      862.266
08/20/2013  10:18:00      101.602       74.481       23.107       63.609       39.607       49.571     4046.109     1568.701     2457.314        1.224        0.404      125.978       39.380        0.098      347.723       26.900      862.254
08/20/2013  10:19:00      101.958       72.193       31.018       64.944       41.849       39.122     4217.760     1751.320     1530.565        1.203        0.375      124.929       22.322        0.032      347.910       27.222      862.257
08/20/2013  10:20:00      129.696       56.049       34.381       66.402       46.859       41.459     4409.246     2195.798     1718.838        1.473        0.416      141.289       33.346        0.056      347.492       26.499      862.250
08/20/2013  10:21:00      105.673       99.096       36.225       49.755       43.353       34.883     2475.583     1879.477     1216.820        1.393        0.279      144.868       21.010        0.021      347.621       26.724      862.241
08/20/2013  10:22:00       87.786       93.694        5.947       53.968       36.540       33.075     2912.591     1335.147     1093.955        1.093        0.267      128.394       33.912        0.070      347.506       26.525      862.229
08/20/2013  10:23:00       39.660       58.357        7.718       41.773       30.499       31.927     1744.947      930.208     1019.359        0.437        0.185       70.558       17.807        0.064      348.066       27.491      862.214
08/20/2013  10:24:00       81.343       59.226       15.900       37.112       27.050       30.676     1377.334      731.677      941.018        0.671        0.153      100.620       18.153        0.033      348.111       27.569      862.210
08/20/2013  10:25:00      135.528       95.349       49.306       46.176       32.000       41.759     2132.198     1023.981     1743.839        1.739        0.245      165.709       25.113        0.023      347.976       27.336      862.187
08/20/2013  10:26:00       66.508       64.171       40.645       64.758       38.450       34.145     4193.618     1478.400     1165.884        0.851        0.342       92.419       34.044        0.136      347.868       27.150      862.190
08/20/2013  10:27:00       69.484       70.530        5.258       35.746       32.515       35.525     1277.748     1057.220     1262.025        0.671        0.180       99.008       17.807        0.032      347.836       27.094      862.179
08/20/2013  10:28:00       38.367       42.550       -2.561       20.284       31.508       23.650      411.447      992.765      559.317        0.263        0.098       57.294       17.088        0.089      347.771       26.982      862.170
08/20/2013  10:29:00       37.533       34.627       16.926       31.029       43.393       42.531      962.775     1882.954     1808.851        0.377        0.233       51.066       34.189        0.448      347.908       27.217      862.167
08/20/2013  10:30:00       31.710       22.879       54.751       71.286       75.555       32.791     5081.674     5708.490     1075.261        0.819        0.593       39.102       38.971        0.993      348.033       27.433      862.149
08/20/2013  10:31:00       38.698      -34.454       13.731       43.393       50.637       26.970     1882.913     2564.060      727.400        0.402        0.259       51.813       26.687        0.265      347.749       26.944      862.146
08/20/2013  10:32:00       32.372       16.151       23.383       43.515       42.336       30.175     1893.523     1792.340      910.509        0.323        0.230       36.177       10.237        0.080      348.201       27.725      862.138
08/20/2013  10:33:00      141.786       71.689       29.005       80.136       56.144       44.191     6421.855     3152.198     1952.828        1.880        0.576      158.879       39.498        0.062      348.007       27.387      862.126
08/20/2013  10:34:00       73.162       43.756       14.318       54.698       34.074       37.532     2991.882     1161.025     1408.650        0.652        0.278       85.249       27.813        0.106      348.553       28.333      862.122
08/20/2013  10:35:00       54.837       31.203       36.872       72.304       66.437       30.859     5227.936     4413.876      952.261        0.797        0.530       63.093       22.295        0.125      348.315       27.922      862.113
08/20/2013  10:36:00       32.730       11.767       41.987       46.889       65.837       42.795     2198.613     4334.547     1831.411        0.567        0.418       34.781       49.604        2.034      347.854       27.125      862.111
08/20/2013  10:37:00      102.259      103.158       38.739       44.449       34.997       52.240     1975.708     1224.792     2729.023        1.426        0.296      145.253       36.118        0.062      347.909       27.221      862.097
08/20/2013  10:38:00       61.415       54.962        9.171       36.280       26.569       25.321     1316.251      705.887      641.131        0.477        0.133       82.418       10.733        0.017      347.893       27.192      862.098
08/20/2013  10:39:00       52.057       56.414        3.686       16.168       25.220       35.024      261.391      636.037     1226.671        0.401        0.106       76.763       20.175        0.069      347.978       27.338      862.090
08/20/2013  10:40:00        0.150       27.626       11.730       28.575       28.008       22.324      816.524      784.449      498.342        0.150        0.105       27.626       20.666        0.560      348.652       28.505      862.087
08/20/2013  10:41:00      -10.639       28.784       -8.165       32.263       21.550       26.659     1040.933      464.396      710.692        0.161        0.111       30.687       11.980        0.152      348.247       27.804      862.086
08/20/2013  10:42:00      -10.901       21.027       19.135       23.120       29.966       21.517      534.542      897.960      462.981        0.141        0.095       23.685       15.496        0.428      348.706       28.598      862.083
08/20/2013  10:43:00        2.318       16.725       27.573       18.009       22.542       16.673      324.307      508.144      277.988        0.108        0.056       16.885       10.755        0.406      349.153       29.373      862.080
08/20/2013  10:44:00      -32.338        5.136        2.025       22.021       15.930       15.115      484.919      253.755      228.460        0.102        0.048       32.743       13.920        0.181      348.304       27.900      862.070
08/20/2013  10:45:00      -30.305       23.451       17.939       19.935       25.029       21.696      397.424      626.429      470.727        0.164        0.075       38.319        9.971        0.068      348.643       28.489      862.065
08/20/2013  10:46:00       15.868        7.580       29.053       31.246       20.162       14.334      976.325      406.512      205.455        0.137        0.079       17.586        8.081        0.211      349.069       29.227      862.053
08/20/2013  10:47:00       -0.797        0.832       25.545       21.817       22.692       29.268      475.977      514.922      856.595        0.125        0.092        1.152       13.786      143.237      349.201       29.455      862.052
08/20/2013  10:48:00        6.903        8.493       44.837       24.361       31.006       14.337      593.446      961.379      205.555        0.194        0.088       10.944        8.878        0.658      349.218       29.486      862.035
08/20/2013  10:49:00       -1.508       -8.009       31.324       23.567       24.780       21.090      555.391      614.028      444.780        0.133        0.081        8.150       18.055        4.908      349.076       29.239      862.035
08/20/2013  10:50:00       27.411        0.726       22.381       31.485       25.830       24.420      991.312      667.207      596.314        0.175        0.113       27.420       12.985        0.224      348.802       28.767      862.029
08/20/2013  10:51:00       18.461       31.277       22.062       25.805       26.467       25.841      665.911      700.514      667.763        0.192        0.102       36.318       14.826        0.167      348.680       28.553      862.034
08/20/2013  10:52:00       44.303       26.075       19.104       75.922       47.613       35.552     5764.089     2266.992     1263.939        0.615        0.465       51.407       30.456        0.351      349.136       29.343      862.019
08/20/2013  10:53:00       15.049      -12.170       56.169       34.646       52.413       24.030     1200.319     2747.147      577.420        0.403        0.226       19.354       23.047        1.418      349.350       29.714      862.026
08/20/2013  10:54:00       30.979       20.764       16.410       44.049       29.077       28.242     1940.319      845.470      797.591        0.262        0.179       37.294       18.373        0.243      349.198       29.449      862.018
08/20/2013  10:55:00       25.559       31.429       13.529       37.944       30.547       29.951     1439.763      933.126      897.091        0.255        0.163       40.510       22.858        0.318      349.423       29.841      862.012
08/20/2013  10:56:00       20.904       -7.440       38.532       32.434       31.762       23.215     1051.933     1008.843      538.918        0.229        0.130       22.188       19.405        0.765      349.291       29.612      862.003
08/20/2013  10:57:00       42.174      -21.593       10.976       34.143       25.755       32.110     1165.756      663.326     1031.021        0.261        0.143       47.381       18.975        0.160      348.639       28.482      862.006
08/20/2013  10:58:00      110.775       83.315       48.750       58.116       39.012       42.951     3377.468     1521.903     1844.824        1.417        0.337      138.609       25.005        0.033      348.547       28.322      862.007
08/20/2013  10:59:00       43.185      -75.023       -0.273       41.338       63.975       32.409     1708.849     4092.770     1050.314        0.717        0.343       86.564       28.690        0.110      348.585       28.389      861.995
08/20/2013  11:00:00        6.234       17.358       42.574       32.997       73.561       45.089     1088.807     5411.276     2032.998        0.534        0.427       18.443       43.720        5.619      348.979       29.071      861.985
08/20/2013  11:01:00       37.098       10.619       57.015       69.504       68.261       34.245     4830.812     4659.526     1172.718        0.770        0.533       38.588       19.875        0.265      349.025       29.152      861.972
08/20/2013  11:02:00      117.602       97.979       52.211       68.030       48.647       47.057     4628.129     2366.576     2214.386        1.768        0.460      153.069       18.649        0.015      348.644       28.490      861.970
08/20/2013  11:03:00       68.515       83.772       69.004       64.170       35.400       51.601     4117.776     1253.188     2662.618        1.225        0.402      108.222       47.386        0.192      348.824       28.802      861.965
08/20/2013  11:04:00       64.693       45.339       23.116       37.567       25.598       33.808     1411.298      655.265     1143.014        0.499        0.160       78.999       15.628        0.039      348.670       28.534      861.973
08/20/2013  11:05:00       66.768       44.639       27.824       28.827       20.644       22.142      831.001      426.187      490.253        0.449        0.087       80.316       10.650        0.018      348.513       28.264      861.969
08/20/2013  11:06:00       41.333       94.361      101.992       50.526       48.466       40.686     2552.837     2348.941     1655.317        1.378        0.328      103.017       35.095        0.116      348.694       28.576      861.978
08/20/2013  11:07:00       43.484       63.539       47.840       58.940       47.904       37.412     3473.925     2294.820     1399.680        0.769        0.358       76.994       31.009        0.162      348.996       29.100      861.973
08/20/2013  11:08:00       48.000       40.440       11.414       41.961       33.548       34.386     1760.704     1125.466     1182.364        0.407        0.203       62.765       18.482        0.087      349.048       29.190      861.970
08/20/2013  11:09:00       34.878       33.607       16.933       44.054       35.713       26.785     1940.774     1275.442      717.415        0.328        0.197       48.435       25.577        0.279      349.211       29.472      861.958
08/20/2013  11:10:00      110.757       52.057       10.899       57.713       33.405       31.715     3330.756     1115.888     1005.835        1.027        0.273      122.380        8.067        0.004      348.882       28.905      861.961
08/20/2013  11:11:00       79.199       65.630       17.802       38.989       33.525       34.261     1520.147     1123.925     1173.786        0.736        0.191      102.858       17.766        0.030      348.881       28.901      861.939
08/20/2013  11:12:00       92.733       68.074       32.876       21.906       26.688       27.554      479.887      712.241      759.238        0.813        0.098      115.037       16.375        0.020      348.855       28.855      861.929
08/20/2013  11:13:00       70.201       60.182       13.422       40.669       32.680       34.021     1653.992     1068.006     1157.398        0.630        0.194       92.466       17.992        0.038      348.944       29.010      861.917
08/20/2013  11:14:00       68.265       71.244        3.809       34.610       30.468       36.478     1197.867      928.326     1330.672        0.660        0.173       98.671       20.992        0.045      348.704       28.596      861.912
08/20/2013  11:15:00       63.346       43.154       17.366       30.255       26.033       32.124      915.388      677.733     1031.925        0.440        0.131       76.648       17.105        0.050      348.917       28.963      861.900
08/20/2013  11:16:00       32.484      -62.843      -15.718       28.110       44.410       20.265      790.146     1972.279      410.671        0.421        0.159       70.743       13.029        0.034      348.958       29.035      861.903
08/20/2013  11:17:00        6.021      -68.402        2.649       31.037       51.771       24.182      963.267     2680.254      584.761        0.447        0.211       68.667       22.602        0.108      348.658       28.515      861.885
08/20/2013  11:18:00      -11.094      -17.996        1.411       21.945       43.472       20.623      481.596     1889.779      425.318        0.162        0.140       21.141       20.529        0.943      348.741       28.658      861.878
08/20/2013  11:19:00        1.781       18.461       33.118       29.537       42.638       31.071      872.453     1817.982      965.390        0.255        0.183       18.547       27.065        2.129      349.261       29.562      861.859
08/20/2013  11:20:00       66.232       89.887       93.423       47.584       38.285       37.640     2264.199     1465.773     1416.806        1.317        0.257      111.653       22.831        0.042      348.914       28.958      861.850
08/20/2013  11:21:00       54.347       43.310       34.239       53.332       30.252       39.515     2844.344      915.210     1561.423        0.566        0.266       69.493       26.322        0.143      348.746       28.668      861.837
08/20/2013  11:22:00        0.981       40.460       35.012       28.914       31.225       24.944      836.000      975.028      622.199        0.265        0.122       40.472        9.317        0.053      349.182       29.423      861.831
08/20/2013  11:23:00       41.711       46.704       13.351       41.777       30.120       27.969     1745.335      907.206      782.265        0.377        0.172       62.618       16.588        0.070      348.895       28.924      861.800
08/20/2013  11:24:00       19.815       16.925       44.576       52.213       50.928       44.883     2726.192     2593.612     2014.504        0.500        0.367       26.059       41.684        2.559      349.305       29.635      861.785
08/20/2013  11:25:00       22.045        1.874       46.627       33.202       35.297       26.873     1102.353     1245.888      722.139        0.287        0.154       22.125       20.247        0.837      349.777       30.455      861.778
08/20/2013  11:26:00       14.857       17.220       32.128       41.599       64.596       32.912     1730.491     4172.607     1083.216        0.427        0.349       22.743       42.384        3.473      349.416       29.829      861.766
08/20/2013  11:27:00       12.621      -38.909       37.384       38.937       69.367       36.197     1516.058     4811.788     1310.206        0.535        0.382       40.904       31.299        0.586      349.476       29.932      861.749
08/20/2013  11:28:00       41.105       52.383       53.321       40.762       63.710       38.546     1661.581     4058.973     1485.756        0.724        0.360       66.585       42.652        0.410      349.220       29.490      861.730
08/20/2013  11:29:00       62.767      -42.601        6.762       57.081       72.256       50.507     3258.273     5220.886     2550.980        0.841        0.552       75.859       54.669        0.519      349.576       30.106      861.725
08/20/2013  11:30:00       94.407     -126.925      -40.526       54.367       75.150       45.672     2955.790     5647.448     2085.973        1.868        0.534      158.186       40.557        0.066      349.222       29.490      861.715
08/20/2013  11:31:00       13.701        5.990       56.263       36.143       53.235       39.544     1306.343     2833.951     1563.734        0.455        0.285       14.954       18.170        1.477      349.881       30.636      861.713
08/20/2013  11:32:00        3.801       -4.167       40.586       22.209       51.222       30.614      493.251     2623.698      937.240        0.287        0.203        5.640       31.567       31.328      349.863       30.604      861.706
08/20/2013  11:33:00        4.294      -65.927       15.767       41.063       68.937       34.446     1686.202     4752.306     1186.504        0.612        0.381       66.067       31.979        0.234      349.508       29.988      861.691
08/20/2013  11:34:00       33.748      -91.874       -7.512       38.383       71.534       35.705     1473.251     5117.077     1274.832        0.875        0.393       97.876       41.815        0.183      349.487       29.951      861.687
08/20/2013  11:35:00        3.238     -155.202      -13.289       36.938       46.977       28.810     1364.433     2206.823      830.019        1.434        0.220      155.235       15.804        0.010      348.985       29.081      861.676
08/20/2013  11:36:00       34.630       34.698       19.619       40.865       50.981       34.185     1669.968     2599.051     1168.591        0.411        0.272       49.023       28.925        0.348      349.379       29.765      861.669
08/20/2013  11:37:00       47.902       22.936       36.278       72.058       71.805       37.691     5192.355     5155.996     1420.595        0.795        0.588       53.110       36.626        0.476      349.562       30.082      861.654
08/20/2013  11:38:00       88.970       77.448        0.651       66.842       41.342       36.770     4467.816     1709.195     1352.051        1.072        0.376      117.957       25.294        0.046      349.419       29.832      861.642
08/20/2013  11:39:00       38.195      -45.619        5.137       59.402       48.837       26.968     3528.640     2385.075      727.283        0.510        0.332       59.497       22.794        0.147      349.615       30.173      861.625
08/20/2013  11:40:00       79.833      -24.002       30.179       78.316       77.221       52.242     6133.400     5963.070     2729.218        1.134        0.741       83.363       50.033        0.360      349.940       30.739      861.622
08/20/2013  11:41:00       38.982      -35.313       39.857       60.483       81.116       49.442     3658.155     6579.815     2444.493        0.852        0.634       52.599       30.853        0.344      349.644       30.223      861.602
08/20/2013  11:42:00       28.518      -85.641       -2.396       52.884       50.932       43.820     2796.695     2594.039     1920.200        0.773        0.366       90.264       33.857        0.141      349.474       29.930      861.616
08/20/2013  11:43:00      -38.811       16.211       -4.035       46.337       65.429       24.934     2147.112     4281.000      621.708        0.442        0.352       42.061       14.864        0.125      349.376       29.757      861.593
08/20/2013  11:44:00        8.517     -130.027      -13.635       74.117       67.696       51.379     5493.266     4582.800     2639.818        1.494        0.636      130.305       24.973        0.037      349.508       29.986      861.580
08/20/2013  11:45:00       -2.123      -62.822       29.193       39.489       54.804       33.853     1559.385     3003.448     1146.039        0.526        0.285       62.858       25.437        0.164      349.887       30.645      861.593
08/20/2013  11:46:00       14.898      -87.521       21.066       72.323       72.133       61.664     5230.674     5203.149     3802.500        1.128        0.712       88.780       49.344        0.309      349.834       30.553      861.584
08/20/2013  11:47:00       83.527      -94.301      -11.873       57.228       70.180       53.275     3275.097     4925.261     2838.261        1.352        0.552      125.973       51.337        0.166      349.659       30.250      861.599
08/20/2013  11:48:00       99.509      -98.336      -34.725       67.834       67.759       46.574     4601.405     4591.220     2169.130        1.607        0.568      139.900       40.764        0.085      349.419       29.831      861.599
08/20/2013  11:49:00       43.843     -101.907       -0.115       42.935       60.949       39.109     1843.410     3714.827     1529.551        0.970        0.354      110.938       34.501        0.097      349.455       29.896      861.600
08/20/2013  11:50:00       58.527       -1.132       19.783       48.375       52.299       38.379     2340.176     2735.201     1472.936        0.518        0.327       58.538       35.961        0.377      349.549       30.058      861.602
08/20/2013  11:51:00       12.931      -29.906        8.971       59.615       34.069       27.773     3553.964     1160.729      771.348        0.331        0.274       32.582       13.034        0.160      349.705       30.331      861.592
08/20/2013  11:52:00      -35.378      -10.612       27.849       58.785       57.151       43.488     3455.647     3266.183     1891.223        0.537        0.431       36.936       46.727        1.600      349.767       30.436      861.585
08/20/2013  11:53:00     -119.332      -26.563       -9.455       59.216       44.252       20.027     3506.591     1958.256      401.071        1.045        0.293      122.253       22.294        0.033      349.216       29.480      861.580
08/20/2013  11:54:00     -143.980      -54.803       -3.680       35.860       29.769       20.416     1285.971      886.177      416.811        1.317        0.129      154.058        8.619        0.003      349.253       29.546      861.563
08/20/2013  11:55:00      -68.532      -62.851       14.143       43.461       49.137       27.054     1888.842     2414.461      731.914        0.694        0.252       92.988       25.108        0.073      349.504       29.982      861.560
08/20/2013  11:56:00      -15.967      -34.331       15.581       38.517       38.844       30.964     1483.531     1508.891      958.753        0.281        0.198       37.863       22.177        0.343      349.588       30.126      861.560
08/20/2013  11:57:00        9.484        5.857       42.949       39.551       58.795       44.017     1564.321     3456.846     1937.469        0.446        0.348       11.146       33.620        9.097      349.917       30.696      861.543
08/20/2013  11:58:00       40.591     -130.915        3.386       44.198       44.014       27.754     1953.449     1937.202      770.297        1.173        0.233      137.064       24.924        0.033      349.664       30.259      861.518
08/20/2013  11:59:00       73.687       -2.006       16.481       53.034       76.835       41.025     2812.608     5903.612     1683.051        0.805        0.520       73.714       43.003        0.340      349.750       30.408      861.505
08/20/2013  12:00:00      147.908      -90.716       57.715      100.575      123.454       70.429    10115.386    15240.788     4960.185        3.187        1.516      173.511       74.924        0.186      349.854       30.586      861.469
08/20/2013  12:01:00      123.580     -155.688       -0.653       92.894       89.290       69.695     8629.286     7972.785     4857.461        3.048        1.073      198.773       58.076        0.085      349.748       30.402      861.464
08/20/2013  12:02:00       99.383     -124.258        2.820       80.449      125.798       78.995     6471.965    15825.133     6240.213        2.693        1.427      159.113       86.297        0.294      349.740       30.388      861.461
08/20/2013  12:03:00       92.591     -144.305      -12.141       69.567       88.840       50.287     4839.534     7892.512     2528.766        2.240        0.763      171.456       49.484        0.083      349.721       30.355      861.473
08/20/2013  12:04:00       37.887      -24.815       22.093       47.741       39.062       29.184     2279.186     1525.847      851.718        0.360        0.233       45.290       24.603        0.295      349.968       30.787      861.482
08/20/2013  12:05:00       20.262      -79.576       21.201       52.090       55.389       55.784     2713.372     3067.974     3111.885        0.804        0.445       82.115       37.320        0.207      349.714       30.347      861.465
08/20/2013  12:06:00       51.806       23.716       79.133       89.994       85.769       49.419     8098.980     7356.253     2442.195        1.370        0.895       56.976       61.769        1.175      350.035       30.903      861.475
08/20/2013  12:07:00       74.454      -79.955        1.446       63.944       86.752       58.281     4088.852     7525.854     3396.644        1.347        0.751      109.253       64.966        0.354      349.584       30.118      861.471
08/20/2013  12:08:00       -3.327       60.913       79.374       29.260       44.805       40.004      856.127     2007.487     1600.322        0.724        0.223       61.004       26.564        0.190      349.800       30.496      861.454
08/20/2013  12:09:00       20.892       38.473       35.369       31.795       47.302       31.910     1010.917     2237.485     1018.224        0.372        0.213       43.780       15.612        0.127      349.584       30.119      861.449
08/20/2013  12:10:00       69.743       73.573       38.097       52.451       42.446       46.988     2751.111     1801.640     2207.840        0.924        0.338      101.376       27.816        0.075      349.756       30.416      861.439
08/20/2013  12:11:00       50.486       78.826        2.790       53.427       41.185       37.723     2854.410     1696.174     1423.022        0.737        0.299       93.607       24.527        0.069      349.827       30.540      861.421
08/20/2013  12:12:00       98.001       71.302       21.434       49.517       45.805       38.803     2451.966     2098.140     1505.643        1.060        0.303      121.195       32.197        0.071      349.755       30.417      861.400
08/20/2013  12:13:00      137.345      107.659       29.986       59.120       53.710       42.925     3495.128     2884.789     1842.534        1.979        0.411      174.511       23.365        0.018      349.759       30.420      861.406
08/20/2013  12:14:00      121.724       89.391       44.866       57.934       43.142       44.878     3356.308     1861.217     2014.076        1.602        0.362      151.022       29.253        0.038      349.693       30.308      861.381
08/20/2013  12:15:00      126.637       75.975       46.712       92.252       67.048       57.814     8510.491     4495.476     3342.489        2.017        0.817      147.679       50.778        0.118      349.629       30.194      861.377
08/20/2013  12:16:00      180.092     -203.284      -46.420       58.505       76.050       36.424     3422.850     5783.618     1326.721        4.322        0.527      271.584       19.125        0.005      349.665       30.256      861.371
08/20/2013  12:17:00      131.570     -142.921       -8.569       86.014      111.174       71.864     7398.491    12359.616     5164.403        3.136        1.246      194.260       72.114        0.138      349.806       30.501      861.352
08/20/2013  12:18:00       94.014     -148.458      -22.712       75.935      108.528       59.935     5766.167    11778.280     3592.188        2.626        1.057      175.722       61.964        0.124      349.658       30.247      861.342
08/20/2013  12:19:00      106.212     -168.742      -28.462       69.735       91.564       48.879     4862.950     8384.031     2389.159        2.810        0.782      199.386       41.977        0.044      349.741       30.390      861.325
08/20/2013  12:20:00      113.338     -124.390       -8.258       72.078      111.741       62.683     5195.190    12486.122     3929.175        2.499        1.081      168.281       73.552        0.191      349.825       30.534      861.322
08/20/2013  12:21:00       53.962       83.419       44.816       56.358       61.105       51.188     3176.180     3733.880     2620.248        1.070        0.477       99.351       37.343        0.141      349.595       30.139      861.313
08/20/2013  12:22:00       26.028       62.821       24.491       32.933       32.177       34.005     1084.573     1035.339     1156.321        0.425        0.164       67.999       11.419        0.028      349.798       30.490      861.300
08/20/2013  12:23:00       23.851       56.097       61.957       34.910       48.986       40.993     1218.681     2399.612     1680.431        0.643        0.265       60.957       28.008        0.211      349.919       30.701      861.287
08/20/2013  12:24:00       43.629       30.813       51.037       50.858       34.949       26.716     2586.549     1221.427      713.751        0.499        0.226       53.413       27.714        0.269      349.946       30.747      861.286
08/20/2013  12:25:00      142.484       77.731       19.620       68.864       43.861       40.139     4742.318     1923.813     1611.146        1.750        0.414      162.308       23.487        0.021      349.860       30.597      861.273
08/20/2013  12:26:00       51.580       38.152        6.181       32.543       24.933       26.566     1059.075      621.675      705.742        0.327        0.119       64.157       10.274        0.026      349.751       30.409      861.276
08/20/2013  12:27:00      -10.450        9.308       12.466       20.942       25.916       23.551      438.574      671.650      554.665        0.101        0.083       13.994       14.671        1.099      350.515       31.737      861.270
08/20/2013  12:28:00       18.897       -2.410        8.900       17.054       16.983       20.433      290.837      288.418      417.521        0.072        0.050       19.050       10.519        0.305      350.429       31.586      861.280
08/20/2013  12:29:00       34.580      -36.221       11.070       30.793       50.048       33.281      948.200     2504.788     1107.645        0.359        0.228       50.077       31.550        0.397      349.939       30.736      861.288
08/20/2013  12:30:00      -20.299      -24.568      -18.438       31.021       40.320       29.607      962.313     1625.678      876.547        0.241        0.173       31.869       25.314        0.631      349.603       30.152      861.291
08/20/2013  12:31:00      -43.124        5.322      -17.668       19.077       14.432       23.305      363.922      208.269      543.102        0.166        0.056       43.452       15.079        0.120      349.688       30.301      861.282
08/20/2013  12:32:00      -60.673      -52.624       -2.358       65.761       60.549       27.765     4324.493     3666.227      770.869        0.761        0.438       80.315       27.385        0.116      349.870       30.616      861.283
08/20/2013  12:33:00      -65.470      -82.318       -7.353       64.865       61.359       32.277     4207.508     3764.962     1041.825        1.006        0.451      105.178       21.576        0.042      349.792       30.480      861.280
08/20/2013  12:34:00      -29.632      -83.716       11.754       71.612       66.515       38.077     5128.259     4424.268     1449.880        0.951        0.550       88.805       32.265        0.132      350.085       30.988      861.274
08/20/2013  12:35:00      -57.423      -87.825       -5.839       71.151       48.269       32.241     5062.415     2329.926     1039.480        0.974        0.422      104.931       21.460        0.042      349.913       30.691      861.235
08/20/2013  12:36:00      -65.522      -59.558       -9.234       76.011       66.871       35.158     5777.740     4471.769     1236.065        0.970        0.574       88.545       28.733        0.105      349.942       30.740      861.195
08/20/2013  12:37:00       -6.617      -23.169        5.341      105.753      126.807       63.145    11183.624    16080.014     3987.302        1.592        1.563       24.095       34.486        2.049      350.251       31.277      861.178
08/20/2013  12:38:00      102.130       81.379       15.573       71.292       74.332       50.175     5082.590     5525.221     2517.553        1.521        0.656      130.588       43.207        0.109      350.204       31.195      861.165
08/20/2013  12:39:00      162.652      101.615       35.466       80.834       52.862       47.487     6534.072     2794.396     2255.042        2.481        0.579      191.785       37.210        0.038      349.975       30.795      861.180
08/20/2013  12:40:00       87.073       22.767       26.451       38.080       70.414       40.542     1450.050     4958.192     1643.675        0.842        0.403       90.000       29.582        0.108      350.030       30.894      861.182
08/20/2013  12:41:00       61.861      -88.506       -2.980       62.994       94.287       60.269     3968.245     8890.038     3632.372        1.408        0.825      107.982       49.173        0.207      350.004       30.847      861.163
08/20/2013  12:42:00      103.399     -158.666      -25.293       87.312       89.164       64.274     7623.356     7950.293     4131.165        2.810        0.985      189.383       63.621        0.113      350.016       30.868      861.132
08/20/2013  12:43:00      102.465     -191.809      -30.004       76.145       88.258       61.620     5798.122     7789.436     3796.969        3.278        0.869      217.462       43.230        0.040      349.925       30.707      861.135
08/20/2013  12:44:00       41.925      -37.194       21.319       64.640       96.081       77.706     4178.352     9231.543     6038.177        1.152        0.972       56.046       73.684        1.728      350.166       31.131      861.123
08/20/2013  12:45:00       17.494     -106.219      -13.098       57.470       85.096       34.325     3302.817     7241.354     1178.209        1.174        0.586      107.650       35.152        0.107      349.932       30.723      861.132
08/20/2013  12:46:00      -15.063      -66.996       -8.033       46.003       56.440       28.759     2116.290     3185.480      827.061        0.545        0.306       68.668       30.955        0.203      350.184       31.162      861.124
08/20/2013  12:47:00       27.325     -127.020      -14.216       48.060      102.978       38.564     2309.784    10604.456     1487.191        1.574        0.720      129.926       41.611        0.103      350.035       30.901      861.114
08/20/2013  12:48:00       26.736      -63.660       23.989       50.859       86.804       67.674     2586.626     7534.947     4579.766        1.002        0.735       69.046       62.874        0.829      350.256       31.286      861.106
08/20/2013  12:49:00       29.206       15.185       51.290       48.775       63.742       45.960     2379.040     4062.983     2112.300        0.613        0.428       32.917       45.137        1.880      350.090       30.997      861.113
08/20/2013  12:50:00      -30.967       28.527       32.614       70.959       57.700       33.840     5035.118     3329.318     1145.174        0.617        0.475       42.104       32.776        0.606      350.335       31.423      861.121
08/20/2013  12:51:00     -127.947       51.534      -36.361       46.069       28.632       22.810     2122.358      819.793      520.302        1.190        0.173      137.936       16.229        0.014      349.693       30.309      861.122
08/20/2013  12:52:00     -107.172      103.184      -23.287       32.752       36.201       28.117     1072.695     1310.483      790.558        1.292        0.159      148.771       21.212        0.020      349.771       30.444      861.108
08/20/2013  12:53:00      -85.301      117.050       -8.910       61.419       55.999       35.594     3772.286     3135.905     1266.910        1.461        0.409      144.834       38.114        0.069      350.227       31.236      861.099
08/20/2013  12:54:00     -140.113       87.672      -23.390       46.247       59.732       29.010     2138.804     3567.962      841.565        1.721        0.327      165.282       29.358        0.032      349.962       30.774      861.093
08/20/2013  12:55:00      -44.035       79.799        9.592       44.860       63.334       38.505     2012.395     4011.139     1482.641        0.795        0.375       91.143       45.526        0.250      350.769       32.180      861.084
08/20/2013  12:56:00       -9.295       42.015       21.382       26.320       38.342       29.605      692.749     1470.080      876.481        0.267        0.152       43.031       24.338        0.320      351.014       32.606      861.079
08/20/2013  12:57:00      -17.707      116.003       15.323       34.480       65.015       41.703     1188.840     4226.991     1739.161        1.058        0.358      117.346       37.228        0.101      350.587       31.862      861.067
08/20/2013  12:58:00       22.199      169.855       -2.810       37.916       80.645       39.990     1437.622     6503.601     1599.169        1.944        0.477      171.299       44.381        0.067      350.352       31.452      861.045
08/20/2013  12:59:00       19.933      105.329       -8.219       34.988       55.363       30.882     1224.140     3065.043      953.698        0.840        0.262      107.199       29.413        0.075      350.335       31.424      861.031
08/20/2013  13:00:00      -10.611      136.300        4.691       49.069       55.065       44.069     2407.800     3032.204     1942.075        1.305        0.369      136.713       37.460        0.075      350.450       31.623      861.021
08/20/2013  13:01:00       -6.437      148.036      -18.932       35.087       52.072       31.645     1231.115     2711.458     1001.432        1.363        0.247      148.176       32.849        0.049      350.124       31.058      861.003
08/20/2013  13:02:00       39.656       42.731       11.688       53.502       46.607       32.025     2862.515     2172.190     1025.610        0.480        0.303       58.297       23.474        0.162      350.396       31.531      860.994
08/20/2013  13:03:00        8.733      101.328        3.995       36.258       68.419       32.310     1314.640     4681.188     1043.961        0.870        0.352      101.703       31.641        0.097      350.546       31.791      860.985
08/20/2013  13:04:00       27.271       58.523       21.984       33.498       41.078       35.219     1122.131     1687.421     1240.368        0.435        0.202       64.565       23.496        0.132      350.508       31.725      860.974
08/20/2013  13:05:00       52.295       85.100       -9.437       34.403       43.680       31.219     1183.569     1907.919      974.644        0.707        0.203       99.884       28.718        0.083      350.183       31.158      860.960
08/20/2013  13:06:00       51.334       17.303       -4.149       31.985       23.945       16.666     1023.070      573.363      277.759        0.241        0.094       54.172       12.911        0.057      349.847       30.577      860.940
08/20/2013  13:07:00        2.274       25.532       -7.167       54.778       38.227       22.682     3000.639     1461.340      514.453        0.284        0.249       25.634       14.072        0.301      350.045       30.920      860.933
08/20/2013  13:08:00       -7.899      -35.699       21.248       33.585       40.712       20.641     1127.939     1657.470      426.063        0.250        0.161       36.562       19.560        0.286      350.461       31.644      860.926
08/20/2013  13:09:00       -7.664       20.202       26.253       23.351       18.989       18.626      545.266      360.600      346.922        0.120        0.063       21.607       11.673        0.292      351.075       32.712      860.914
08/20/2013  13:10:00       47.541        7.013       11.407       42.361       22.422       24.522     1794.462      502.748      601.341        0.267        0.145       48.056       20.425        0.181      350.709       32.078      860.900
08/20/2013  13:11:00       73.073       27.215       26.788       44.623       36.635       23.315     1991.242     1342.114      543.577        0.534        0.194       77.976       18.077        0.054      350.372       31.489      860.877
08/20/2013  13:12:00       -0.814      116.764       -4.529       45.159       56.478       32.989     2039.352     3189.752     1088.271        0.999        0.316      116.766       35.299        0.091      350.555       31.806      860.865
08/20/2013  13:13:00      -75.945       16.555       -2.950       41.597       51.915       27.098     1730.293     2695.165      734.300        0.560        0.258       77.728       17.819        0.053      350.758       32.161      860.847
08/20/2013  13:14:00      -33.504      -31.735        2.673       45.585       49.426       24.050     2078.008     2442.967      578.423        0.362        0.255       46.147       26.920        0.340      350.811       32.252      860.849
08/20/2013  13:15:00      -56.636       -5.828       15.097       57.118       46.346       27.997     3262.480     2147.925      783.856        0.483        0.310       56.935       31.771        0.311      350.973       32.535      860.835
08/20/2013  13:16:00     -119.437       -8.780       -4.095       62.778       82.254       36.628     3941.092     6765.714     1341.635        1.320        0.602      119.760       35.878        0.090      350.721       32.097      860.832
08/20/2013  13:17:00     -234.798     -131.132       -4.420      114.074      100.546       48.017    13012.846    10109.442     2305.634        4.888        1.271      268.934       38.573        0.021      350.324       31.400      860.815
08/20/2013  13:18:00      -47.532      -71.818        5.938       72.797       48.268       31.905     5299.426     2329.807     1017.948        0.805        0.432       86.122       35.248        0.168      350.090       30.997      860.856
08/20/2013  13:19:00        0.039     -160.909       11.615       27.113       39.187       21.777      735.123     1535.631      474.227        1.439        0.137      160.909       17.240        0.011      349.844       30.570      860.827
08/20/2013  13:20:00       15.174      -25.675        1.257       39.856       67.130       32.397     1588.518     4506.456     1049.554        0.402        0.357       29.824       36.507        1.498      350.710       32.078      860.810
08/20/2013  13:21:00       28.042       33.243       19.396       31.261       30.515       28.893      977.279      931.139      834.789        0.250        0.137       43.491       20.852        0.230      350.815       32.259      860.788
08/20/2013  13:22:00        9.634       42.151       14.580       50.358       30.933       37.511     2535.929      956.837     1407.038        0.349        0.245       43.238       36.555        0.715      350.588       31.863      860.771
08/20/2013  13:23:00        7.866       68.503       21.057       58.544       52.739       47.600     3427.453     2781.401     2265.782        0.683        0.424       68.953       32.858        0.227      350.790       32.216      860.759
08/20/2013  13:24:00        2.894       35.383       24.476       26.258       25.087       26.089      689.469      629.333      680.653        0.193        0.100       35.501        4.117        0.013      350.817       32.262      860.751
08/20/2013  13:25:00       44.066       21.012       27.501       56.726       32.557       28.973     3217.797     1059.975      839.423        0.413        0.256       48.819       25.359        0.270      350.934       32.467      860.732
08/20/2013  13:26:00      -13.554       36.109       -8.479       31.604       34.178       27.518      998.825     1168.154      757.221        0.224        0.146       38.569       25.445        0.435      350.700       32.060      860.734
08/20/2013  13:27:00     -102.879       45.878        2.760       91.822       45.789       31.755     8431.329     2096.678     1008.374        1.211        0.577      112.645       35.655        0.100      350.742       32.133      860.740
08/20/2013  13:28:00      -41.266       44.781       19.908       47.472       60.588       32.771     2253.612     3670.961     1073.951        0.555        0.350       60.895       30.952        0.258      351.121       32.793      860.728
08/20/2013  13:29:00      -43.309       54.142        5.932       31.924       79.924       34.013     1019.115     6387.895     1156.853        0.670        0.428       69.333       27.557        0.158      350.826       32.278      860.708
08/20/2013  13:30:00        9.602       22.249       19.646       45.258       39.451       34.552     2048.314     1556.386     1193.863        0.289        0.240       24.233       30.996        1.636      350.992       32.568      860.694
08/20/2013  13:31:00      -46.697       -1.674       -5.478       45.654       47.760       21.400     2084.326     2280.997      457.960        0.352        0.241       46.727       17.814        0.145      350.645       31.963      860.681
08/20/2013  13:32:00      -21.368       41.824        9.047       48.517       62.819       28.742     2353.918     3946.219      826.087        0.471        0.356       46.966       26.776        0.325      351.296       33.098      860.658
08/20/2013  13:33:00      -25.143      152.598      -13.702       33.169       86.685       37.151     1100.203     7514.230     1380.183        1.705        0.500      154.655       37.207        0.058      350.535       31.771      860.678
08/20/2013  13:34:00       11.486      118.110      -10.226       64.341       65.903       39.119     4139.786     4343.204     1530.298        1.210        0.501      118.667       35.095        0.087      350.498       31.707      860.660
08/20/2013  13:35:00       19.855      119.246       -8.741       48.867       87.507       42.281     2388.011     7657.441     1787.681        1.326        0.592      120.888       36.504        0.091      350.580       31.849      860.652
08/20/2013  13:36:00       27.514       90.285       10.720       49.333       77.186       40.999     2433.707     5957.663     1680.891        0.955        0.504       94.384       46.306        0.241      350.657       31.983      860.635
08/20/2013  13:37:00      110.782       76.609        7.301       57.832       46.343       34.853     3344.564     2147.677     1214.721        1.245        0.335      134.691       16.213        0.014      350.372       31.488      860.616
08/20/2013  13:38:00       30.760       50.230       10.360       52.321       47.578       23.440     2737.477     2263.709      549.418        0.456        0.278       58.900       20.600        0.122      350.677       32.019      860.613
08/20/2013  13:39:00        1.059      170.569       -9.823       37.322       70.884       39.155     1392.919     5024.574     1533.127        1.857        0.398      170.572       42.110        0.061      350.633       31.941      860.614
08/20/2013  13:40:00      -32.465      101.538      -16.441       35.061       56.062       31.699     1229.276     3142.925     1004.811        0.850        0.269      106.602       29.121        0.075      350.521       31.747      860.613
08/20/2013  13:41:00        4.804       19.248       15.809       44.693       28.441       37.724     1997.490      808.915     1423.130        0.244        0.211       19.838       21.880        1.216      350.882       32.376      860.600
08/20/2013  13:42:00       30.677       20.927       11.487       42.310       22.803       24.030     1790.095      519.976      577.425        0.220        0.144       37.135       15.291        0.170      350.921       32.443      860.618
08/20/2013  13:43:00      -20.021       73.451        4.943       31.119       52.191       36.368      968.381     2723.889     1322.665        0.542        0.251       76.131       27.567        0.131      350.814       32.258      860.613
08/20/2013  13:44:00      -21.293       25.895       13.586       40.064       36.295       33.138     1605.131     1317.334     1098.126        0.266        0.201       33.525       19.732        0.346      350.912       32.429      860.603
08/20/2013  13:45:00      -62.909       26.838      -11.028       41.932       32.415       31.769     1758.290     1050.746     1009.281        0.431        0.191       68.395       25.267        0.136      350.492       31.696      860.574
08/20/2013  13:46:00      -15.539       17.099       23.046       52.807       42.981       26.990     2788.537     1847.370      728.434        0.321        0.268       23.105       28.643        1.537      350.926       32.452      860.547
08/20/2013  13:47:00      -29.710       95.787       -2.346       40.056       46.296       26.832     1604.513     2143.326      719.944        0.726        0.223      100.289       22.803        0.052      350.612       31.905      860.525
08/20/2013  13:48:00       70.823       -4.612       22.529       58.095       40.499       42.037     3375.013     1640.170     1767.145        0.616        0.339       70.973       36.967        0.271      350.166       31.130      860.517
08/20/2013  13:49:00       88.491      -24.096       45.661       65.568       57.656       40.697     4299.101     3324.237     1656.210        0.989        0.464       91.713       38.385        0.175      350.450       31.623      860.493
08/20/2013  13:50:00       22.174       16.909       46.734       37.190       48.966       36.238     1383.088     2397.636     1313.205        0.403        0.255       27.886       35.183        1.592      350.884       32.379      860.489
08/20/2013  13:51:00       -2.072       21.275       54.403       30.808       47.845       34.194      949.145     2289.129     1169.211        0.391        0.220       21.376       24.590        1.323      350.767       32.175      860.466
08/20/2013  13:52:00       23.879       -6.237      -11.769       39.575       56.693       31.590     1566.209     3214.103      997.903        0.326        0.289       24.680       24.781        1.008      350.607       31.896      860.468
08/20/2013  13:53:00        9.015      -18.042       38.213       35.020       58.529       37.759     1226.376     3425.618     1425.742        0.397        0.304       20.169       36.328        3.244      351.101       32.758      860.438
08/20/2013  13:54:00      -72.814      -17.425       16.314       62.944       64.475       34.889     3961.954     4157.024     1217.265        0.760        0.467       74.870       35.206        0.221      351.222       32.969      860.436
08/20/2013  13:55:00      -68.997     -164.559       -1.643       62.949       82.360       36.869     3962.632     6783.166     1359.296        2.197        0.605      178.438       25.643        0.021      350.494       31.697      860.438
08/20/2013  13:56:00      -81.513     -164.071       -5.683       49.538       62.028       33.919     2454.062     3847.518     1150.474        2.052        0.373      183.204       27.734        0.023      350.375       31.493      860.431
08/20/2013  13:57:00      -44.500      -91.097       -6.890       38.485       89.546       37.022     1481.061     8018.445     1370.639        1.060        0.544      101.385       24.730        0.059      350.497       31.704      860.424
08/20/2013  13:58:00       30.891       32.290       22.327       31.320       29.787       36.145      980.951      887.277     1306.428        0.283        0.159       44.687       18.208        0.166      350.953       32.498      860.387
08/20/2013  13:59:00       58.250       21.192       10.232       56.567       50.795       43.262     3199.782     2580.163     1871.567        0.580        0.383       61.985       31.075        0.251      350.367       31.477      860.377
08/20/2013  14:00:00     -131.013      -74.162      -13.211       68.375       43.300       30.344     4675.182     1874.892      920.786        1.515        0.374      150.547        8.957        0.004      350.652       31.974      860.381
08/20/2013  14:01:00      -34.968       15.383       17.813       63.885      104.683       46.467     4081.269    10958.506     2159.169        0.948        0.860       38.202       32.745        0.735      350.731       32.113      860.386
08/20/2013  14:02:00       -3.502       14.037        9.737       57.217       49.867       32.320     3273.788     2486.718     1044.565        0.355        0.340       14.467       10.158        0.493      351.159       32.858      860.361
08/20/2013  14:03:00      -56.220       10.392       22.778       45.125       33.148       25.855     2036.225     1098.810      668.470        0.379        0.190       57.172       26.431        0.214      351.332       33.159      860.340
08/20/2013  14:04:00      -53.408      -10.542       12.223       66.712       58.868       36.483     4450.425     3465.389     1331.032        0.618        0.462       54.438       46.466        0.729      351.150       32.842      860.316
08/20/2013  14:05:00     -142.247      -34.609       -5.964       62.294       68.753       42.517     3880.592     4726.966     1807.676        1.594        0.521      146.396       34.182        0.055      351.024       32.621      860.300
08/20/2013  14:06:00     -178.424     -131.125        3.870      119.969       84.139       61.402    14392.517     7079.356     3770.160        3.714        1.262      221.425       69.705        0.099      350.811       32.250      860.294
08/20/2013  14:07:00     -289.358     -150.914       -6.518      193.572      113.107       68.897    37470.096    12793.158     4746.849        8.077        2.751      326.348       74.149        0.052      350.561       31.813      860.282
08/20/2013  14:08:00     -110.168      -48.001        2.651      114.273       56.111       41.167    13058.353     3148.451     1694.731        1.617        0.895      120.171       47.010        0.153      350.825       32.276      860.294
08/20/2013  14:09:00     -149.553     -133.684        5.780      133.831      112.634       75.129    17910.761    12686.334     5644.403        3.825        1.812      200.593       84.725        0.178      350.980       32.542      860.281
08/20/2013  14:10:00     -166.707     -162.989       11.741      121.562       91.214       71.351    14777.432     8320.069     5090.925        4.134        1.409      233.145       73.280        0.099      350.640       31.952      860.283
08/20/2013  14:11:00     -143.985     -123.358        0.687      120.995       96.192       60.778    14639.801     9252.961     3693.934        3.176        1.379      189.602       67.080        0.125      350.689       32.037      860.287
08/20/2013  14:12:00     -251.770     -126.551       -3.990      145.653       83.892       53.839    21214.767     7037.895     2898.603        5.528        1.558      281.785       71.159        0.064      350.508       31.723      860.285
08/20/2013  14:13:00     -326.982     -132.856      -10.627      129.353       82.755       62.841    16732.237     6848.325     3949.045        7.610        1.376      352.942       63.876        0.033      350.475       31.666      860.283
08/20/2013  14:14:00     -188.918      -28.974      -37.255       57.675       58.244       27.118     3326.459     3392.347      735.370        2.268        0.373      191.127       22.234        0.014      350.295       31.353      860.322
08/20/2013  14:15:00      -27.328      -29.369      -24.727       41.048       58.374       30.192     1684.940     3407.484      911.539        0.411        0.300       40.117       27.777        0.479      350.288       31.340      860.319
08/20/2013  14:16:00       31.882        9.855       28.396       31.312       24.483       32.357      980.420      599.439     1046.966        0.227        0.131       33.370       15.351        0.212      350.395       31.526      860.276
08/20/2013  14:17:00       38.336      -37.875        7.690       39.689       32.053       28.699     1575.228     1027.401      823.629        0.319        0.171       53.890       21.881        0.165      350.069       30.959      860.227
08/20/2013  14:18:00      -88.738      -37.698       -7.952       37.259       28.949       17.483     1388.216      838.040      305.654        0.594        0.127       96.414       15.298        0.025      350.326       31.406      860.221
08/20/2013  14:19:00      -44.814      -32.813        6.481       41.002       36.043       24.215     1681.163     1299.127      586.347        0.335        0.178       55.543       20.677        0.139      350.442       31.610      860.214
08/20/2013  14:20:00       -4.203       -7.444       14.089       55.093       28.160       22.000     3035.189      792.970      483.991        0.229        0.216        8.549       16.907        3.912      350.329       31.413      860.202
08/20/2013  14:21:00      -25.596      -35.942       23.407       64.558       38.827       35.414     4167.724     1507.540     1254.177        0.471        0.346       44.125       28.464        0.416      350.547       31.794      860.198
08/20/2013  14:22:00     -389.002        6.191      -27.873      121.686       88.363       45.815    14807.549     7808.068     2099.013        8.842        1.236      389.051       59.068        0.023      350.497       31.700      860.178
08/20/2013  14:23:00     -201.410      -95.792       -3.755      120.963      103.348       58.785    14632.087    10680.891     3455.732        3.926        1.438      223.029       64.314        0.083      350.672       32.006      860.157
08/20/2013  14:24:00     -178.588     -168.539       -9.327      131.518      137.416       52.592    17297.068    18883.227     2765.870        4.966        1.947      245.559       45.411        0.034      350.576       31.841      860.146
08/20/2013  14:25:00     -229.217     -182.844       -0.614      190.439      155.963       90.457    36267.050    24324.352     8182.497        7.736        3.439      293.211      107.533        0.135      350.851       32.317      860.127
08/20/2013  14:26:00     -259.313     -215.425        6.458      194.520      145.414       92.361    37837.867    21145.336     8530.632        9.059        3.376      337.121      113.138        0.113      350.881       32.371      860.137
08/20/2013  14:27:00     -198.842      -84.824        5.070      131.577       98.596       47.243    17312.523     9721.202     2231.885        3.801        1.463      216.179       49.375        0.052      351.092       32.738      860.151
08/20/2013  14:28:00     -198.114       -3.960       13.949      147.521      100.434       64.035    21762.347    10087.086     4100.419        3.770        1.797      198.153       73.286        0.137      351.016       32.607      860.144
08/20/2013  14:29:00     -117.432      -87.058       11.273      128.632       91.896       50.660    16546.212     8444.900     2566.444        2.452        1.378      146.183       62.201        0.181      350.914       32.431      860.138
08/20/2013  14:30:00     -184.129     -166.113       12.378      132.317      118.404       84.019    17507.870    14019.433     7059.165        5.011        1.929      247.986       76.361        0.095      350.816       32.257      860.106
08/20/2013  14:31:00     -194.793     -131.394       -2.664      120.706      101.353       54.922    14569.914    10272.365     3016.377        4.153        1.393      234.965       61.608        0.069      350.742       32.129      860.094
08/20/2013  14:32:00     -140.310     -124.365       -1.754       76.146       93.262       44.321     5798.151     8697.731     1964.308        2.581        0.823      187.493       42.830        0.052      350.855       32.326      860.071
08/20/2013  14:33:00      -95.235      -31.790       23.046      109.468       76.369       56.637    11983.141     5832.194     3207.784        1.581        1.051      100.401       56.976        0.322      351.190       32.911      860.053
08/20/2013  14:34:00     -141.490      -37.244       -9.350       58.013       65.652       37.065     3365.537     4310.172     1373.830        1.527        0.452      146.309       32.427        0.049      350.817       32.263      860.054
08/20/2013  14:35:00      -57.177     -147.561        8.011       66.921       81.199       38.952     4478.382     6593.277     1517.282        1.885        0.629      158.251       33.235        0.044      350.746       32.138      860.036
08/20/2013  14:36:00      -55.738     -138.120       10.106       41.825       77.937       29.523     1749.317     6074.101      871.602        1.549        0.435      148.943       11.291        0.006      350.721       32.094      859.992
08/20/2013  14:37:00      -39.886      -68.427       -7.308       89.108       59.211       39.869     7940.227     3505.949     1589.530        0.968        0.652       79.204       28.405        0.129      350.849       32.318      859.971
08/20/2013  14:38:00      -71.603      -91.572        4.645       87.352       55.999       34.357     7630.326     3135.943     1180.372        1.274        0.597      116.243       30.570        0.069      350.833       32.288      859.966
08/20/2013  14:39:00     -147.570      -89.633       11.838      108.106       66.181       45.873    11686.987     4379.963     2104.362        2.406        0.909      172.659       46.142        0.071      350.868       32.347      859.954
08/20/2013  14:40:00     -158.877      -31.738       -1.183       92.046       47.133       36.294     8472.540     2221.526     1317.233        1.913        0.601      162.016       36.372        0.050      350.991       32.562      859.942
08/20/2013  14:41:00     -143.995     -131.115        3.165       82.600       90.868       41.026     6822.783     8256.986     1683.145        2.735        0.838      194.745       31.997        0.027      350.834       32.290      859.931
08/20/2013  14:42:00      -91.548     -132.969       17.443       89.006       91.355       54.582     7922.095     8345.674     2979.168        2.280        0.962      161.437       51.639        0.102      350.789       32.209      859.925
08/20/2013  14:43:00     -278.933     -189.052        6.073      130.579       99.392       60.452    17050.832     9878.847     3654.451        7.208        1.529      336.963       62.864        0.035      350.749       32.140      859.911
08/20/2013  14:44:00     -196.711     -132.325        4.522      154.126       88.262       55.190    23754.793     7790.143     3045.938        4.540        1.730      237.076       61.776        0.068      350.715       32.083      859.916
08/20/2013  14:45:00      -99.600     -143.597        8.544       95.644       86.996       58.169     9147.807     7568.288     3383.665        2.535        1.005      174.757       63.202        0.131      350.854       32.324      859.934
08/20/2013  14:46:00     -136.331      -55.130       -0.212      125.734       50.381       39.132    15809.099     2538.288     1531.275        2.075        0.994      147.056       51.151        0.121      351.008       32.594      859.931
08/20/2013  14:47:00     -225.231      -13.149      -15.012       68.273       66.657       41.184     4661.219     4443.163     1696.149        3.096        0.540      225.614       41.646        0.034      350.804       32.235      859.925
08/20/2013  14:48:00     -207.852      -19.322      -13.668       52.174       44.542       35.676     2722.090     1984.010     1272.775        2.487        0.299      208.748       23.635        0.013      350.598       31.878      859.908
08/20/2013  14:49:00      -89.415       44.095       -9.400       51.401       30.168       31.139     2642.055      910.122      969.619        0.727        0.226       99.697       32.013        0.103      350.894       32.398      859.875
08/20/2013  14:50:00     -160.181      -74.198       -9.961       79.655       46.709       34.869     6344.871     2181.754     1215.876        2.050        0.487      176.531       35.200        0.040      350.695       32.049      859.842
08/20/2013  14:51:00     -119.235      -64.668       -7.573       72.998       49.000       25.578     5328.745     2400.963      654.258        1.342        0.419      135.642       11.800        0.008      350.829       32.283      859.820
08/20/2013  14:52:00     -107.985      -58.473       -1.545       43.059       35.334       22.465     1854.105     1248.469      504.697        0.934        0.180      122.800       20.866        0.029      350.839       32.300      859.805
08/20/2013  14:53:00        2.384        9.936       36.695       47.509       23.111       21.171     2257.087      534.102      448.209        0.234        0.162       10.218       13.552        1.759      350.900       32.407      859.796
08/20/2013  14:54:00       38.927       30.294        7.822       33.754       47.351       29.401     1139.339     2242.085      864.439        0.337        0.212       49.326       27.012        0.300      350.627       31.932      859.783
08/20/2013  14:55:00       48.841       44.798        7.573       26.726       27.527       28.351      714.270      757.728      803.790        0.336        0.114       66.275       20.530        0.096      350.594       31.875      859.781
08/20/2013  14:56:00      -20.706       77.069       -6.017       27.899       31.651       19.500      778.359     1001.805      380.234        0.428        0.108       79.802       21.973        0.076      350.774       32.188      859.784
08/20/2013  14:57:00      -80.425       53.403      -12.225       85.040       56.389       49.272     7231.863     3179.734     2427.726        1.115        0.642       96.540       56.251        0.340      351.022       32.618      859.793
08/20/2013  14:58:00     -148.420      149.849      -20.323       63.249       85.602       38.240     4000.399     7327.748     1462.302        2.884        0.640      210.911       24.269        0.013      350.855       32.325      859.791
08/20/2013  14:59:00      -33.174      184.212      -13.666       57.807       94.197       45.238     3341.655     8873.088     2046.454        2.474        0.713      187.175       48.843        0.068      350.860       32.335      859.780
08/20/2013  15:00:00        0.787      216.529      -14.839       60.958       85.748       49.707     3715.825     7352.770     2470.777        3.032        0.677      216.531       48.679        0.051      350.818       32.260      859.756
08/20/2013  15:01:00      -60.304      181.165      -27.622       41.781       58.003       27.974     1745.660     3364.334      782.524        2.156        0.295      190.938       26.127        0.019      350.765       32.169      859.738
08/20/2013  15:02:00     -101.797      170.226      -17.157       79.161       89.373       33.095     6266.453     7987.492     1095.283        2.749        0.767      198.342       20.803        0.011      350.886       32.380      859.727
08/20/2013  15:03:00      -63.140       79.655       -6.871       72.642       68.689       40.542     5276.875     4718.114     1643.619        1.101        0.582      101.644       41.691        0.168      350.992       32.566      859.700
08/20/2013  15:04:00     -121.401      123.497      -13.754       68.444       77.073       44.923     4684.530     5940.191     2018.053        2.141        0.632      173.175       45.678        0.070      351.166       32.867      859.675
08/20/2013  15:05:00     -198.571       76.882      -27.610       76.934      113.059       43.929     5918.871    12782.379     1929.737        3.336        1.032      212.935       49.417        0.054      351.035       32.639      859.690
08/20/2013  15:06:00     -193.120       -9.615      -16.453      115.291      110.812       60.802    13292.058    12279.253     3696.936        3.346        1.463      193.359       65.390        0.114      350.966       32.521      859.686
08/20/2013  15:07:00     -213.220      107.755      -27.392      127.616      144.427       68.111    16285.924    20859.302     4639.138        4.980        2.089      238.902       67.191        0.079      351.012       32.598      859.677
08/20/2013  15:08:00     -170.774      100.894      -32.995      128.541      132.881       68.348    16522.713    17657.412     4671.399        3.964        1.943      198.352       58.047        0.086      350.870       32.352      859.667
08/20/2013  15:09:00     -360.085       37.295      -34.328      121.681      122.426       62.579    14806.202    14988.159     3916.187        8.296        1.686      362.011       56.569        0.024      350.608       31.894      859.665
08/20/2013  15:10:00     -110.025      -31.039        1.546      115.195       60.584       57.501    13269.865     3670.477     3306.409        1.666        1.012      114.319       58.247        0.260      350.942       32.480      859.650
08/20/2013  15:11:00     -246.978      -93.171      -12.166      174.058       86.552       50.647    30296.296     7491.215     2565.073        5.508        2.018      263.968       58.795        0.050      350.878       32.366      859.654
08/20/2013  15:12:00     -315.798     -124.970      -36.031      135.962      105.189       67.847    18485.734    11064.771     4603.252        7.539        1.708      339.626       69.336        0.042      350.864       32.342      859.635
08/20/2013  15:13:00     -108.385       17.995        9.647      107.647      153.312       63.324    11587.862    23504.510     4009.892        2.563        1.955      109.869       57.516        0.274      350.964       32.515      859.622
08/20/2013  15:14:00     -122.187      128.521       -0.338      121.719      114.091       64.530    14815.515    13016.866     4164.123        3.172        1.600      177.334       54.073        0.093      351.179       32.890      859.648
08/20/2013  15:15:00     -290.776       57.890      -39.796      119.592      166.750       65.698    14302.205    27805.592     4316.285        6.795        2.321      296.483       74.720        0.064      350.804       32.238      859.673
08/20/2013  15:16:00     -176.791      143.513      -30.847       92.442      111.533       63.179     8545.572    12439.601     3991.632        3.889        1.249      227.708       62.260        0.075      350.662       31.990      859.697
08/20/2013  15:17:00     -224.145       59.963      -33.852       66.316       59.400       42.624     4397.809     3528.339     1816.818        3.236        0.487      232.027       30.961        0.018      350.617       31.910      859.683
08/20/2013  15:18:00     -217.023        3.900      -36.145       68.583       93.177       34.063     4703.628     8681.940     1160.319        3.148        0.727      217.058       34.988        0.026      350.694       32.045      859.665
08/20/2013  15:19:00     -226.085       -6.265       -4.807      152.017      144.941       64.526    23109.187    21007.832     4163.622        4.972        2.414      226.171       58.419        0.067      350.775       32.186      859.646
08/20/2013  15:20:00     -118.239       81.460      -26.477       79.411      127.788       50.114     6306.162    16329.868     2511.366        2.323        1.257      143.583       49.385        0.118      350.911       32.424      859.646
08/20/2013  15:21:00     -103.342       75.555        3.800      120.870       93.855       52.609    14609.641     8808.782     2767.666        2.129        1.309      128.016       51.734        0.163      351.036       32.641      859.625
08/20/2013  15:22:00      -27.963      251.153      -30.226       76.006      102.108       46.525     5776.896    10426.041     2164.574        4.157        0.918      252.705       41.815        0.027      350.802       32.234      859.645
08/20/2013  15:23:00      -63.766      358.526      -30.072       68.321      147.526       56.028     4667.803    21764.017     3139.173        8.154        1.479      364.153       48.976        0.018      350.733       32.114      859.626
08/20/2013  15:24:00     -157.114      269.203      -26.392       96.679      104.498       70.540     9346.774    10919.900     4975.853        6.154        1.262      311.697       66.509        0.046      350.759       32.158      859.628
08/20/2013  15:25:00      -69.112      235.186      -33.881       92.861       73.059       51.017     8623.091     5337.606     2602.732        3.890        0.828      245.131       33.423        0.019      350.685       32.028      859.613
08/20/2013  15:26:00      -11.022      358.947      -43.793       88.719      128.937       54.955     7871.100    16624.649     3020.065        7.919        1.376      359.116       56.977        0.025      350.596       31.876      859.608
08/20/2013  15:27:00       94.841      171.572        5.628       72.804      140.315       73.557     5300.456    19688.252     5410.652        3.443        1.520      196.040       78.002        0.158      350.659       31.985      859.575
08/20/2013  15:28:00       66.617      208.993      -12.180       74.690      121.387       53.240     5578.652    14734.867     2834.502        3.570        1.157      219.354       66.671        0.092      350.577       31.841      859.556
08/20/2013  15:29:00      203.529      113.488       33.764       84.264       73.543       75.803     7100.357     5408.602     5746.046        3.685        0.913      233.031       54.641        0.055      350.405       31.541      859.528
08/20/2013  15:30:00      117.255      103.717       53.247       58.920       50.403       46.438     3471.578     2540.423     2156.524        1.775        0.408      156.543       38.558        0.061      350.444       31.612      859.507
08/20/2013  15:31:00      102.207       69.372       11.564       52.331       34.485       35.480     2738.490     1189.191     1258.847        1.029        0.259      123.526       18.870        0.023      350.506       31.720      859.506
08/20/2013  15:32:00      144.082       78.109       11.423       59.812       43.065       35.970     3577.460     1854.575     1293.874        1.686        0.336      163.892       19.400        0.014      350.583       31.854      859.492
08/20/2013  15:33:00      115.130       73.264       15.848       73.193       56.636       40.464     5357.277     3207.592     1637.297        1.454        0.510      136.465       35.094        0.066      350.606       31.894      859.495
08/20/2013  15:34:00       18.302      102.366       12.226       50.472       78.625       39.509     2547.406     6181.849     1561.000        1.062        0.515      103.989       48.583        0.218      350.461       31.641      859.492
08/20/2013  15:35:00       10.139      111.157        0.052       50.948       62.284       32.618     2595.705     3879.345     1063.923        1.000        0.377      111.619       37.355        0.112      350.653       31.976      859.493
08/20/2013  15:36:00       29.109       26.026       -5.123       18.864       24.432       24.379      355.840      596.922      594.346        0.155        0.077       39.048        5.799        0.022      350.455       31.632      859.489
08/20/2013  15:37:00      -10.798      138.913      -12.354       55.312       94.683       35.362     3059.410     8964.848     1250.480        1.642        0.664      139.332       35.029        0.063      350.617       31.912      859.485
08/20/2013  15:38:00       41.002      122.573      -14.685       82.927       73.046       45.295     6876.864     5335.673     2051.665        1.559        0.713      129.249       42.336        0.107      350.663       31.992      859.457
08/20/2013  15:39:00      -67.710      141.431       -8.756       53.908       63.096       34.577     2906.116     3981.074     1195.599        1.637        0.404      156.803       29.685        0.036      350.710       32.073      859.453
08/20/2013  15:40:00       11.824       70.217        7.495       70.666       78.949       40.828     4993.733     6233.016     1666.888        0.901        0.645       71.205       39.719        0.311      350.777       32.192      859.424
08/20/2013  15:41:00       -6.122       48.478        7.567       66.635       38.323       30.815     4440.280     1468.637      949.571        0.465        0.343       48.863       23.883        0.239      350.965       32.520      859.424
08/20/2013  15:42:00      -92.423       90.422      -22.643       60.734       49.609       30.713     3688.576     2461.036      943.312        1.216        0.355      129.298       29.644        0.053      350.975       32.537      859.429
08/20/2013  15:43:00     -102.184       29.223      -12.581       80.033       89.701       38.454     6405.240     8046.240     1478.700        1.369        0.797      106.280       48.735        0.210      350.933       32.463      859.420
08/20/2013  15:44:00     -137.896      149.217      -26.503       58.282       62.491       39.164     3396.760     3905.180     1533.838        2.541        0.442      203.177       32.414        0.025      350.820       32.264      859.425
08/20/2013  15:45:00     -145.706      172.013      -31.027       69.434       71.745       36.762     4821.114     5147.289     1351.420        3.155        0.566      225.430       31.219        0.019      350.840       32.300      859.404
08/20/2013  15:46:00     -210.258      162.487      -37.235      121.709      107.750       79.483    14813.076    11610.094     6317.560        5.236        1.637      265.726       81.538        0.094      350.909       32.418      859.397
08/20/2013  15:47:00     -115.912       33.968       -0.841       63.772       72.044       54.466     4066.885     5190.273     2966.577        1.340        0.611      120.786       43.105        0.127      351.255       33.025      859.365
08/20/2013  15:48:00     -132.714       45.684       -3.875      121.111      128.177       55.345    14667.886    16429.336     3063.110        2.693        1.708      140.357       63.564        0.205      351.149       32.838      859.377
08/20/2013  15:49:00     -134.107      307.973      -26.064       69.036       88.518       61.105     4766.010     7835.446     3733.878        6.492        0.817      335.905       39.303        0.014      350.913       32.425      859.382
08/20/2013  15:50:00     -213.119      300.996      -48.551       78.086       90.823       50.223     6097.447     8248.840     2522.336        7.762        0.843      368.807       35.430        0.009      350.854       32.322      859.361
08/20/2013  15:51:00     -238.662      309.898      -56.275       89.739      115.473       51.231     8053.050    13333.952     2624.630        9.008        1.201      391.148       49.260        0.016      350.775       32.185      859.351
08/20/2013  15:52:00      -53.126      237.311      -28.228       58.060       85.070       46.627     3371.014     7236.860     2174.046        3.636        0.639      243.185       47.245        0.038      350.788       32.207      859.321
08/20/2013  15:53:00      -56.009      233.384      -35.918       44.819       87.165       40.844     2008.718     7597.816     1668.240        3.508        0.564      240.011       35.520        0.022      350.779       32.193      859.301
08/20/2013  15:54:00      -20.069      245.089      -31.679       81.547       69.532       42.790     6649.922     4834.680     1831.004        3.739        0.666      245.909       38.842        0.025      350.822       32.267      859.280
08/20/2013  15:55:00       -4.193      262.087      -35.897       69.229      107.098       48.042     4792.651    11469.961     2308.058        4.428        0.929      262.121       49.284        0.035      350.898       32.400      859.261
08/20/2013  15:56:00       16.169      281.569      -36.199       86.960      145.080       47.556     7562.006    21048.281     2261.541        5.586        1.544      282.033       57.888        0.042      350.894       32.394      859.214
08/20/2013  15:57:00      -63.714      348.174      -42.785       83.222      125.985       57.042     6925.913    15872.225     3253.816        7.658        1.303      353.956       56.307        0.025      350.801       32.231      859.225
08/20/2013  15:58:00      -57.475      308.146      -35.895      101.116      103.974       48.408    10224.484    10810.570     2343.368        6.146        1.169      313.460       51.756        0.027      350.942       32.476      859.208
08/20/2013  15:59:00      -23.939      331.761      -48.453      106.614      119.789       56.189    11366.620    14349.391     3157.185        7.092        1.444      332.624       54.688        0.027      350.965       32.517      859.209
08/20/2013  16:00:00       -1.246      337.371      -43.037       77.032      112.266       55.467     5933.953    12603.596     3076.565        6.864        1.081      337.373       49.439        0.021      350.817       32.257      859.212
08/20/2013  16:01:00      -32.161      271.330      -31.350      141.739      105.790       50.703    20090.055    11191.598     2570.777        5.474        1.693      273.229       66.716        0.060      350.769       32.175      859.186
08/20/2013  16:02:00      -39.938      145.290      -10.139       68.356       94.643       38.102     4672.593     8957.314     1451.781        1.894        0.754      150.679       28.708        0.036      351.028       32.628      859.183
08/20/2013  16:03:00     -116.495       96.569      -12.049       68.576       55.243       42.191     4702.707     3051.763     1780.070        1.629        0.477      151.317       43.911        0.084      351.132       32.809      859.183
08/20/2013  16:04:00      -66.314      178.596       -0.828       93.236      129.133       56.877     8692.886    16675.287     3235.030        3.244        1.430      190.510       54.286        0.081      351.209       32.941      859.165
08/20/2013  16:05:00      -69.394      112.657      -21.030       72.705      127.418       51.758     5285.994    16235.350     2678.889        2.107        1.210      132.314       36.564        0.076      351.208       32.941      859.142
08/20/2013  16:06:00     -126.936      189.337      -37.168       88.329      104.545       44.581     7802.041    10929.646     1987.458        3.703        1.036      227.950       51.482        0.051      351.000       32.578      859.130
08/20/2013  16:07:00      -18.382      203.605       -6.713      115.139      134.064       52.514    13257.102    17973.028     2757.708        3.791        1.699      204.433       69.664        0.116      351.021       32.614      859.095
08/20/2013  16:08:00     -235.755      399.457      -66.790      112.994      177.644       72.253    12767.639    31557.553     5220.566       13.457        2.477      463.839       75.228        0.026      350.969       32.525      859.101
08/20/2013  16:09:00     -165.786      296.236      -42.181      107.188      133.584       54.617    11489.172    17844.593     2982.963        7.466        1.616      339.471       71.375        0.044      351.054       32.672      859.074
08/20/2013  16:10:00     -117.459      322.570      -38.479       77.229      130.941       46.777     5964.244    17145.486     2188.100        7.231        1.265      343.291       59.209        0.030      350.885       32.377      859.084
08/20/2013  16:11:00     -177.630      216.123      -35.410      102.998      113.691       51.563    10608.651    12925.553     2658.717        5.285        1.310      279.753       44.973        0.026      350.917       32.432      859.041
08/20/2013  16:12:00      -32.642      435.978      -53.080       98.812      105.888       59.566     9763.781    11212.265     3548.137       10.924        1.226      437.198       58.975        0.018      350.711       32.073      859.047
08/20/2013  16:13:00      -36.981      417.591      -53.875       70.174      115.631       45.930     4924.347    13370.493     2109.576        9.952        1.020      419.225       54.365        0.017      350.705       32.065      859.019
08/20/2013  16:14:00      -66.829      371.763      -47.796       88.260      116.522       49.902     7789.753    13577.299     2490.221        8.440        1.193      377.722       52.915        0.020      350.747       32.136      858.991
08/20/2013  16:15:00      -16.941      458.107      -50.555      119.664      123.178       63.580    14319.530    15172.741     4042.468       12.311        1.677      458.420       65.538        0.020      350.822       32.267      858.970
08/20/2013  16:16:00       -1.039      358.527      -12.860      131.236      149.368      102.587    17222.927    22310.852    10524.054        8.937        2.503      358.528      100.481        0.079      350.904       32.411      858.935
08/20/2013  16:17:00     -177.127      207.517      -23.756      130.645      101.138       69.404    17068.077    10228.968     4816.927        5.355        1.606      272.832       64.797        0.056      350.916       32.431      858.956
08/20/2013  16:18:00     -211.297      260.513      -47.797      152.129      119.905       73.191    23143.262    14377.323     5356.926        7.883        2.144      335.430       90.581        0.073      350.705       32.065      858.960
08/20/2013  16:19:00     -202.553      259.758      -45.805      162.108      167.256       73.589    26279.017    27974.681     5415.368        8.512        2.983      329.397       77.099        0.055      350.696       32.048      858.945
08/20/2013  16:20:00     -159.235      211.845      -33.500      207.128      137.729       72.056    42902.198    18969.265     5192.023        6.920        3.353      265.017       72.370        0.075      350.747       32.137      858.938
08/20/2013  16:21:00      -85.052      404.668      -43.870       98.104      135.834       62.777     9624.305    18450.927     3940.990       10.246        1.601      413.509       68.282        0.027      350.670       32.003      858.945
08/20/2013  16:22:00      -43.606      437.860      -45.220       88.593      137.107       66.382     7848.784    18798.311     4406.567       11.336        1.553      440.026       69.637        0.025      350.695       32.046      858.937
08/20/2013  16:23:00     -188.064      329.963      -55.459       94.382      144.524       58.281     8907.878    20887.323     3396.733        9.025        1.660      379.794       57.466        0.023      350.840       32.299      858.974
08/20/2013  16:24:00      -97.400      261.378      -36.054      105.160       87.882       44.823    11058.612     7723.174     2009.122        4.994        1.040      278.936       35.352        0.016      350.897       32.400      858.961
08/20/2013  16:25:00     -237.371      195.433      -37.165      171.562      139.100       62.307    29433.363    19348.842     3882.182        7.428        2.633      307.472       61.071        0.039      351.009       32.593      858.961
08/20/2013  16:26:00     -219.690      283.022      -46.795      160.779      129.864       77.800    25849.745    16864.552     6052.854        8.965        2.438      358.281       87.164        0.059      350.838       32.296      859.010
08/20/2013  16:27:00     -137.959      267.404      -43.063       91.745      124.704       57.990     8417.147    15551.024     3362.818        5.986        1.367      300.895       58.320        0.038      350.707       32.067      859.001
08/20/2013  16:28:00      -87.569      364.692      -42.854       68.603      111.197       51.951     4706.360    12364.729     2698.902        8.113        0.988      375.058       46.269        0.015      350.645       31.957      858.985
08/20/2013  16:29:00      -61.960      249.630      -26.861       59.913       89.582       33.197     3589.605     8024.943     1102.034        3.979        0.636      257.205       31.897        0.015      350.548       31.792      858.973
08/20/2013  16:30:00      -42.560      352.621      -38.787       55.380       93.068       45.479     3066.928     8661.603     2068.383        7.072        0.690      355.180       35.669        0.010      350.572       31.831      858.950
08/20/2013  16:31:00      -77.437      221.730      -28.197       42.323       75.650       28.421     1791.213     5722.987      807.761        3.214        0.416      234.863       31.962        0.019      350.588       31.862      858.951
08/20/2013  16:32:00      -60.255      222.243      -30.707       48.908       97.685       31.964     2392.034     9542.272     1021.692        3.346        0.648      230.267       43.507        0.036      350.661       31.987      858.953
08/20/2013  16:33:00     -181.357      270.637      -41.820      121.736      133.923       63.182    14819.560    17935.413     3991.999        7.231        1.837      325.783       61.683        0.036      350.698       32.051      858.946
08/20/2013  16:34:00     -166.250      279.809      -33.255       94.173      123.628       57.252     8868.464    15283.803     3277.833        6.723        1.372      325.472       62.884        0.037      350.726       32.100      858.978
08/20/2013  16:35:00       -6.508      223.515      -21.658       73.299      108.372       48.022     5372.745    11744.470     2306.067        3.494        0.971      223.609       62.109        0.077      350.638       31.946      858.938
08/20/2013  16:36:00     -132.286      267.911      -37.662       87.292       99.507       50.881     7619.857     9901.656     2588.885        5.540        1.006      298.791       45.873        0.024      350.662       31.988      858.975
08/20/2013  16:37:00      -69.291      201.026      -28.124       52.052       84.399       37.889     2709.411     7123.140     1435.554        2.863        0.563      212.633       30.841        0.021      350.678       32.017      858.944
08/20/2013  16:38:00       -9.509      240.233      -23.628       66.462      114.683       54.846     4417.158    13152.168     3008.135        3.947        1.029      240.421       61.025        0.064      350.702       32.059      858.922
08/20/2013  16:39:00      -30.001      300.882      -38.713       49.881       95.213       38.381     2488.149     9065.573     1473.139        5.298        0.651      302.375       44.817        0.022      350.616       31.908      858.915
08/20/2013  16:40:00       -9.421      274.133      -28.963       63.460       88.766       45.587     4027.126     7879.482     2078.204        4.503        0.699      274.295       47.949        0.031      350.618       31.911      858.918
08/20/2013  16:41:00      -33.275      192.994      -27.572       57.632       85.621       37.088     3321.478     7331.016     1375.506        2.557        0.601      195.842       37.741        0.037      350.675       32.012      858.918
08/20/2013  16:42:00      -86.964      118.869      -17.758       74.972      101.457       44.356     5620.812    10293.510     1967.492        1.994        0.894      147.284       39.607        0.072      350.689       32.038      858.907
08/20/2013  16:43:00     -134.816      115.580      -26.352       88.869       67.064       48.489     7897.678     4497.610     2351.197        2.349        0.737      177.578       50.173        0.080      350.718       32.086      858.916
08/20/2013  16:44:00     -110.512      111.534      -13.866       51.914       61.182       42.238     2695.014     3743.217     1784.039        1.653        0.411      157.012       41.905        0.071      350.805       32.242      858.944
08/20/2013  16:45:00      -88.829       60.122      -11.591       43.438       82.506       28.128     1886.880     6807.176      791.167        1.056        0.474      107.262       24.875        0.054      350.825       32.276      858.940
08/20/2013  16:46:00     -154.937        7.015       -7.211       70.065       81.182       41.091     4909.036     6590.531     1688.509        1.865        0.659      155.095       41.605        0.072      350.726       32.100      858.935
08/20/2013  16:47:00     -207.497       -6.213      -24.740      129.147      105.082       64.414    16678.942    11042.223     4149.201        3.778        1.594      207.590       61.160        0.087      350.692       32.041      858.915
08/20/2013  16:48:00      -57.287        9.288        5.506       84.101       55.175       38.885     7072.941     3044.273     1512.012        0.751        0.581       58.035       49.418        0.725      350.694       32.049      858.926
08/20/2013  16:49:00      -83.191       58.528      -24.732      110.518      113.070       58.401    12214.308    12784.766     3410.718        1.968        1.420      101.716       71.420        0.493      350.680       32.022      858.934
08/20/2013  16:50:00      -68.052       46.507        5.511       70.111       48.620       41.974     4915.504     2363.889     1761.832        0.793        0.452       82.426       37.863        0.211      350.654       31.978      858.921
08/20/2013  16:51:00     -242.681       35.756      -27.859      105.714       86.424       49.452    11175.548     7469.157     2445.528        4.102        1.055      245.301       45.743        0.035      350.566       31.822      858.913
08/20/2013  16:52:00     -159.286       55.356      -23.329       86.769       78.722       39.347     7528.946     6197.130     1548.150        2.212        0.764      168.630       31.235        0.034      350.565       31.821      858.904
08/20/2013  16:53:00     -153.351       18.307      -35.970       55.847      111.159       38.196     3118.922    12356.308     1458.922        2.104        0.847      154.440       36.753        0.057      350.572       31.835      858.892
08/20/2013  16:54:00      -65.666      -30.918        9.984       63.779       62.118       45.580     4067.703     3858.619     2077.542        0.768        0.500       72.580       41.692        0.330      350.597       31.877      858.875
08/20/2013  16:55:00     -150.692      114.130      -34.867       58.752      112.084       38.262     3451.814    12562.721     1463.949        2.721        0.874      189.034       41.834        0.049      350.550       31.793      858.869
08/20/2013  16:56:00     -110.855       64.591      -31.797       42.302       55.814       31.048     1789.427     3115.232      963.971        1.167        0.293      128.300       31.743        0.061      350.542       31.781      858.846
08/20/2013  16:57:00      -58.464       79.036        5.674       67.653       53.846       40.698     4576.995     2899.368     1656.287        0.941        0.457       98.310       41.072        0.175      350.555       31.805      858.834
08/20/2013  16:58:00      -48.508       68.493        8.939       61.225       49.067       31.490     3748.469     2407.569      991.592        0.713        0.357       83.930       25.660        0.093      350.593       31.872      858.828
08/20/2013  16:59:00      -34.462      116.201       -4.932       69.636       55.581       32.383     4849.140     3089.266     1048.642        1.185        0.449      121.204       37.133        0.094      350.597       31.878      858.822
08/20/2013  17:00:00     -208.476      178.160      -42.549       68.011      110.173       58.040     4625.447    12138.043     3368.645        4.857        1.007      274.232       57.648        0.044      350.561       31.812      858.838
08/20/2013  17:01:00     -136.038      191.639      -21.086       52.436      102.905       41.609     2749.558    10589.401     1731.343        3.537        0.754      235.015       47.185        0.040      350.540       31.776      858.827
08/20/2013  17:02:00     -170.981      218.585      -40.085       66.809       79.163       43.489     4463.478     6266.776     1891.277        4.562        0.631      277.513       36.688        0.017      350.577       31.840      858.814
08/20/2013  17:03:00     -131.937      191.997      -24.032       50.171       83.456       39.637     2517.088     6964.975     1571.084        3.295        0.553      232.960       33.188        0.020      350.604       31.888      858.807
08/20/2013  17:04:00      -74.273      171.360      -14.130       68.388       80.529       37.022     4676.888     6484.950     1370.620        2.380        0.627      186.764       34.678        0.034      350.610       31.900      858.790
08/20/2013  17:05:00      -73.899      125.157      -18.333       44.964       72.180       35.181     2021.798     5209.926     1237.724        1.496        0.423      145.346       31.704        0.048      350.559       31.814      858.767
08/20/2013  17:06:00     -109.065      145.254      -16.594       68.641      119.959       38.689     4711.549    14390.130     1496.814        2.693        1.030      181.642       40.510        0.050      350.611       31.901      858.754
08/20/2013  17:07:00      -55.933      176.000      -15.393       48.190       82.531       30.768     2322.239     6811.369      946.663        2.221        0.504      184.675       27.006        0.021      350.554       31.802      858.723
08/20/2013  17:08:00      -60.159      135.945       -7.170       37.452       71.131       43.409     1402.639     5059.643     1884.329        1.525        0.417      148.661       41.854        0.079      350.587       31.860      858.704
08/20/2013  17:09:00      -72.584      117.432       -5.845       52.978       79.495       29.037     2806.685     6319.466      843.163        1.453        0.498      138.054       22.871        0.027      350.616       31.910      858.678
08/20/2013  17:10:00      -92.543       44.526       -1.711       88.693       59.949       39.438     7866.470     3593.847     1555.392        1.178        0.651      102.697       42.427        0.171      350.636       31.946      858.654
08/20/2013  17:11:00      -94.711      137.668      -18.236       74.658       83.029       42.509     5573.827     6893.846     1807.013        2.126        0.714      167.101       48.222        0.083      350.620       31.917      858.634
08/20/2013  17:12:00     -117.936      120.922      -16.179       53.243       98.823       34.865     2834.797     9766.074     1215.591        2.130        0.691      168.911       33.930        0.040      350.601       31.885      858.613
08/20/2013  17:13:00     -142.292      144.394      -32.463       64.241       63.930       36.826     4126.941     4087.078     1356.124        2.586        0.479      202.723       36.694        0.033      350.579       31.846      858.590
08/20/2013  17:14:00      -67.250      127.235      -13.646       43.693       49.421       32.601     1909.085     2442.432     1062.812        1.316        0.271      143.914       25.315        0.031      350.547       31.790      858.579
08/20/2013  17:15:00      -88.703      105.679      -23.216       48.779       57.902       24.443     2379.350     3352.695      597.443        1.295        0.316      137.972       16.913        0.015      350.525       31.753      858.560
08/20/2013  17:16:00     -239.148       39.383      -28.149       96.918      100.237       50.814     9393.183    10047.475     2582.065        4.078        1.101      242.370       48.529        0.040      350.592       31.867      858.561
08/20/2013  17:17:00     -125.248       73.037      -15.060       85.941       46.658       41.818     7385.790     2176.964     1748.743        1.628        0.566      144.988       27.367        0.036      350.576       31.842      858.560
08/20/2013  17:18:00      -42.797       99.321       -1.043       33.940       59.095       32.796     1151.933     3492.273     1075.588        0.871        0.286      108.149       37.334        0.119      350.528       31.757      858.558
08/20/2013  17:19:00     -104.654      127.489      -10.348       67.521       57.466       34.388     4559.042     3302.290     1182.528        1.818        0.452      164.942       35.509        0.046      350.556       31.806      858.568
08/20/2013  17:20:00     -184.385       66.356      -19.719      124.114       81.787       57.336    15404.387     6689.078     3287.441        3.208        1.269      195.962       67.725        0.119      350.584       31.852      858.574
08/20/2013  17:21:00     -133.467       30.622      -20.092       81.278       48.621       39.411     6606.100     2363.985     1553.230        1.484        0.526      136.935       42.586        0.097      350.581       31.851      858.571
08/20/2013  17:22:00      -22.707       87.328       -2.750       44.445       45.561       35.239     1975.399     2075.806     1241.797        0.672        0.265       90.232       29.414        0.106      350.519       31.742      858.574
08/20/2013  17:23:00     -109.039      116.785      -10.104       58.751       71.033       39.935     3451.654     5045.652     1594.777        1.786        0.505      159.776       25.183        0.025      350.483       31.679      858.593
08/20/2013  17:24:00     -124.325       55.491      -17.694       64.246       41.069       33.456     4127.501     1686.691     1119.323        1.289        0.347      136.147       33.921        0.062      350.538       31.775      858.603
08/20/2013  17:25:00      -63.344        1.861      -11.096       90.988      116.448       53.910     8278.745    13560.118     2906.257        1.444        1.237       63.372       42.976        0.460      350.529       31.760      858.618
08/20/2013  17:26:00      -51.474       63.272       14.723       58.905       80.567       34.981     3469.838     6491.008     1223.641        0.903        0.559       81.566       28.902        0.126      350.494       31.699      858.648
08/20/2013  17:27:00     -192.522      -20.412       -0.464      143.296      115.522       47.521    20533.678    13345.361     2258.218        3.680        1.807      193.601       53.541        0.076      350.486       31.684      858.677
08/20/2013  17:28:00     -308.256      -95.397      -14.476      143.732      103.894       65.665    20658.837    10793.975     4311.869        7.004        1.788      322.680       63.456        0.039      350.392       31.519      858.698
08/20/2013  17:29:00     -337.577     -148.945       -8.403      166.657      121.367       76.707    27774.473    14730.040     5883.985        9.229        2.419      368.976       82.652        0.050      350.263       31.296      858.726
08/20/2013  17:30:00     -418.198      -68.244      -29.995      151.827      123.070       71.309    23051.527    15146.316     5085.043       11.186        2.164      423.729       59.590        0.020      350.194       31.174      858.755
08/20/2013  17:31:00     -446.766     -103.376      -17.919      175.323      121.417       74.271    30738.299    14741.993     5516.133       13.079        2.550      458.570       77.072        0.028      350.120       31.047      858.812
08/20/2013  17:32:00     -402.240      -73.554      -17.931      143.778      118.425       70.956    20672.225    14024.531     5034.793       10.362        1.987      408.910       71.360        0.030      349.909       30.680      858.842
08/20/2013  17:33:00     -288.350      -61.421       -8.242      130.122       97.704       63.082    16931.795     9546.071     3979.316        5.872        1.523      294.819       69.572        0.056      349.587       30.122      858.883
08/20/2013  17:34:00     -270.002     -141.124       -8.821      144.305      127.441       76.169    20824.012    16241.286     5801.732        6.787        2.143      304.659       68.879        0.051      349.334       29.683      858.929
08/20/2013  17:35:00     -351.624     -206.242      -19.113      139.373      136.700       67.575    19424.888    18686.850     4566.321       10.460        2.134      407.646       53.482        0.017      348.931       28.985      858.979
08/20/2013  17:36:00     -414.121     -165.028        3.669      164.392      121.135       79.706    27024.874    14673.733     6353.106       12.339        2.403      445.792       82.423        0.034      348.366       28.006      859.072
08/20/2013  17:37:00     -472.250     -330.324       -6.722      281.908      212.994      114.203    79472.088    45366.439    13042.217       23.501        6.894      576.311      132.294        0.053      347.102       25.826      859.085
08/20/2013  17:38:00     -740.818     -517.055        4.366      344.975      329.942      153.498   119007.892   108861.689    23561.575       53.376       12.572      903.414      166.026        0.034      347.131       25.874      859.071
08/20/2013  17:39:00     -610.354     -442.416       -1.162      409.775      390.309      175.625   167915.448   152341.192    30844.253       45.962       17.555      753.833      221.664        0.086      347.362       26.273      859.204
08/20/2013  17:40:00     -694.793     -507.451       -8.568      333.879      246.851      161.558   111475.115    60935.293    26100.967       46.938        9.926      860.374      184.598        0.046      347.084       25.795      859.526
08/20/2013  17:41:00     -501.650     -123.829      -11.407      240.152      178.790      101.925    57673.125    31965.757    10388.663       18.356        5.001      516.707      105.557        0.042      346.480       24.753      859.996
08/20/2013  17:42:00     -308.965     -143.736      -10.148      210.688      175.437       97.518    44389.491    30778.234     9509.770       10.044        4.234      340.763      109.519        0.103      345.890       23.741      859.947
08/20/2013  17:43:00      -82.675      -90.459       -6.985      196.409      118.383       61.908    38576.450    14014.468     3832.586        3.574        2.821      122.547       48.667        0.158      346.077       24.063      859.770
08/20/2013  17:44:00     -368.665     -236.647        2.034      202.870      150.573       81.076    41156.132    22672.366     6573.262       13.115        3.520      438.082       93.350        0.045      346.269       24.391      859.686
08/20/2013  17:45:00     -450.175     -250.051        6.350      261.499      219.428      113.576    68381.973    48148.591    12899.582       19.731        6.472      514.959      124.660        0.059      346.281       24.412      859.673
08/20/2013  17:46:00     -356.039     -276.483       -6.560      209.066      186.904      114.644    43708.611    34933.084    13143.320       14.750        4.589      450.785      105.975        0.055      346.724       25.175      859.626
08/20/2013  17:47:00     -339.406     -241.340      -23.586      178.808      122.648       86.966    31972.249    15042.468     7563.171       11.428        2.729      416.464       80.586        0.037      346.670       25.082      859.584
08/20/2013  17:48:00     -399.263     -103.864      -26.096      123.775      125.600       68.186    15320.216    15775.330     4649.380       10.331        1.787      412.551       64.116        0.024      346.363       24.553      859.575
08/20/2013  17:49:00     -447.769     -102.453      -17.556      133.389      117.114       77.933    17792.698    13715.728     6073.507       12.444        1.879      459.341       69.770        0.023      346.037       23.993      859.572
08/20/2013  17:50:00     -476.443     -139.303       -9.486      199.132      151.706       93.858    39653.685    23014.671     8809.252       15.897        3.574      496.390       99.900        0.041      345.965       23.871      859.529
08/20/2013  17:51:00     -665.063      -86.030      -35.848      252.419      172.894      101.716    63715.278    29892.407    10346.090       27.746        5.198      670.604      126.641        0.036      345.579       23.206      859.550
08/20/2013  17:52:00     -421.012      -28.045      -30.212      164.807      117.758       74.382    27161.421    13867.034     5532.613       11.275        2.328      421.945       72.960        0.030      346.141       24.171      859.576
08/20/2013  17:53:00     -332.814       36.255      -33.315      119.828       77.156       41.315    14358.800     5953.075     1706.900        6.760        1.101      334.783       34.324        0.011      345.908       23.771      859.540
08/20/2013  17:54:00     -234.927       -2.696      -28.194       82.721       90.510       58.477     6842.745     8191.974     3419.544        3.722        0.923      234.942       53.049        0.051      345.653       23.335      859.514
08/20/2013  17:55:00     -150.518      101.871      -24.773       73.498      119.112       59.526     5401.943    14187.764     3543.329        2.839        1.157      181.751       49.414        0.074      345.841       23.658      859.477
08/20/2013  17:56:00     -208.731      182.945      -33.162       78.732       81.623       52.349     6198.765     6662.367     2740.443        4.687        0.780      277.556       44.340        0.026      346.692       25.117      859.447
08/20/2013  17:57:00     -195.052      244.710      -28.542      105.186      140.049       76.663    11064.196    19613.769     5877.242        6.764        1.828      312.935       77.070        0.061      347.354       26.262      859.380
08/20/2013  17:58:00     -269.295      345.641      -68.300      131.658      151.543       72.906    17333.722    22965.154     5315.226       12.113        2.281      438.164       78.574        0.032      348.051       27.462      859.309
08/20/2013  17:59:00     -230.287      373.167      -43.742      110.920      156.850       80.193    12303.266    24601.926     6430.900       11.876        2.167      438.504       70.005        0.025      348.032       27.429      859.270
08/20/2013  18:00:00     -222.708      377.459      -66.837       98.955      144.105       71.865     9792.081    20766.306     5164.578       11.613        1.786      438.263       65.331        0.022      348.040       27.442      859.284
08/20/2013  18:01:00      -54.341      529.070      -70.028      114.447      154.819       71.692    13098.175    23968.836     5139.748       16.498        2.110      531.853       81.445        0.023      347.830       27.079      859.295
08/20/2013  18:02:00       64.313      473.176      -60.088      113.989      202.297       95.564    12993.413    40924.215     9132.553       14.734        3.153      477.526      103.843        0.047      348.207       27.732      859.281
08/20/2013  18:03:00      200.599      292.542      -16.176      138.134      142.891      117.589    19080.899    20417.945    13827.284        8.970        2.666      354.712       92.008        0.067      348.058       27.473      859.225
08/20/2013  18:04:00      225.651      258.325       -2.591      168.107      130.192      122.771    28259.914    16949.981    15072.763        8.896        3.014      343.001       85.141        0.062      348.162       27.654      859.167
08/20/2013  18:05:00      259.917      182.190       36.868      120.922       93.521       79.147    14622.228     8746.217     6264.309        6.587        1.482      317.412       44.690        0.020      348.066       27.487      859.115
08/20/2013  18:06:00      201.356      165.509       14.566      123.003      117.119      101.070    15129.672    13716.819    10215.070        5.360        1.953      260.648       73.507        0.080      348.027       27.420      859.117
08/20/2013  18:07:00      151.126      162.970       13.291      103.867      100.377       82.897    10788.311    10075.583     6871.853        3.865        1.387      222.257       63.073        0.081      348.104       27.553      859.089
08/20/2013  18:08:00       99.477      146.385       12.650       95.356       90.022       71.251     9092.853     8103.927     5076.739        2.688        1.114      176.986       57.951        0.107      348.000       27.376      859.089
08/20/2013  18:09:00       98.753      174.453      -11.065       82.953      106.531       66.723     6881.177    11348.851     4451.927        3.149        1.134      200.465       65.672        0.107      348.084       27.519      859.076
08/20/2013  18:10:00       59.169      171.059       -9.862       63.503       83.585       63.410     4032.581     6986.430     4020.791        2.395        0.752      181.003       53.034        0.086      348.052       27.465      859.079
08/20/2013  18:11:00       54.042      109.927       -1.251       56.133       70.296       46.490     3150.861     4941.498     2161.340        1.263        0.513      122.493       44.948        0.135      347.882       27.173      859.061
08/20/2013  18:12:00      -27.253      126.626       -5.296       62.761       62.192       31.401     3938.919     3867.906      985.998        1.280        0.440      129.526       35.807        0.076      347.712       26.879      859.047
08/20/2013  18:13:00      -16.650      202.320      -21.093       25.925       30.423       18.881      672.086      925.565      356.508        2.180        0.098      203.004       14.845        0.005      348.270       27.841      859.021
08/20/2013  18:14:00       -3.128      105.718       -6.592       38.460       37.791       21.670     1479.198     1428.135      469.596        0.730        0.169      105.764       22.185        0.044      348.161       27.655      858.988
08/20/2013  18:15:00       24.717      176.333      -20.696       37.570      101.718       36.757     1411.469    10346.545     1351.081        2.262        0.655      178.057       47.753        0.072      348.933       28.989      858.969
08/20/2013  18:16:00       10.744       81.251       -8.164       42.031       43.965       25.746     1766.582     1932.908      662.872        0.557        0.218       81.958       23.052        0.079      348.659       28.517      858.944
08/20/2013  18:17:00     -158.174        3.531      -18.089      132.448       69.778       36.695    17542.422     4869.000     1346.501        2.455        1.188      158.213       36.524        0.053      347.535       26.575      858.961
08/20/2013  18:18:00     -172.227        2.482      -29.270       67.680       57.237       29.091     4580.613     3276.042      846.306        1.961        0.435      172.244       31.939        0.034      347.475       26.469      858.987
08/20/2013  18:19:00     -129.171      -63.932       -1.195       69.481       50.596       25.209     4827.542     2559.983      635.512        1.440        0.401      144.126       21.501        0.022      347.390       26.322      858.961
08/20/2013  18:20:00      -92.212       74.908      -13.286       45.484       74.872       25.920     2068.753     5605.750      671.840        1.132        0.417      118.804       36.461        0.094      347.967       27.320      858.967
08/20/2013  18:21:00      -37.836       94.374        2.106       26.132       45.058       26.491      682.891     2030.183      701.779        0.688        0.171      101.676       25.466        0.063      347.615       26.713      858.999
08/20/2013  18:22:00      -54.838       31.839       -6.998       26.840       29.642       15.640      720.400      878.671      244.599        0.296        0.092       63.411       17.704        0.078      348.236       27.785      859.011
08/20/2013  18:23:00     -149.029      -93.889        7.684      124.023       87.490       40.310    15381.611     7654.419     1624.917        2.787        1.233      176.139       31.524        0.032      347.237       26.058      859.057
08/20/2013  18:24:00     -114.112      -51.488        5.514       75.535       54.031       33.777     5705.467     2919.395     1140.897        1.273        0.488      125.190       29.086        0.054      347.071       25.774      859.138
08/20/2013  18:25:00     -115.842      -73.542        7.613       73.634       64.000       39.878     5421.907     4096.053     1590.223        1.500        0.555      137.215       35.879        0.068      347.122       25.862      859.187
08/20/2013  18:26:00     -119.055      -92.452        0.824       74.559       59.500       36.205     5558.988     3540.286     1310.789        1.656        0.521      150.737       39.187        0.068      347.050       25.737      859.232
08/20/2013  18:27:00      -73.512      -65.347        2.097       49.791       32.562       23.711     2479.143     1060.312      562.195        0.689        0.205       98.358       24.631        0.063      346.941       25.551      859.271
08/20/2013  18:28:00      -28.960      -36.413        5.714       32.004       28.225       22.067     1024.233      796.673      486.963        0.225        0.115       46.525       16.773        0.130      347.100       25.825      859.285
08/20/2013  18:29:00     -109.139      -69.154       -4.641       41.768       23.837       14.387     1744.532      568.199      206.977        0.962        0.126      129.204       12.121        0.009      347.248       26.079      859.317
08/20/2013  18:30:00     -127.686      -79.309        5.647       51.418       36.839       21.556     2643.843     1357.129      464.677        1.354        0.223      150.312       19.301        0.016      346.710       25.152      859.374
08/20/2013  18:31:00     -137.774      -66.060        2.282       36.475       54.438       26.296     1330.401     2963.452      691.493        1.417        0.249      152.792       18.995        0.015      346.987       25.631      859.420
08/20/2013  18:32:00     -108.831     -115.293       -1.581       56.876       45.519       32.031     3234.929     2071.977     1025.971        1.573        0.317      158.545       31.463        0.039      347.167       25.939      859.441
08/20/2013  18:33:00     -179.139     -124.966       -0.803      101.522       84.448       50.236    10306.759     7131.442     2523.644        3.383        0.998      218.420       50.491        0.053      346.976       25.609      859.485
08/20/2013  18:34:00      -84.813     -101.233       18.765       80.282       37.417       27.243     6445.254     1400.008      742.159        1.319        0.429      132.066       31.274        0.056      347.490       26.496      859.476
08/20/2013  18:35:00      -61.299      -67.347       14.820       83.238       54.915       31.653     6928.539     3015.689     1001.919        0.973        0.547       91.067       34.354        0.142      347.224       26.038      859.493
08/20/2013  18:36:00      -31.053     -124.685        3.573       29.541       48.528       18.970      872.678     2355.014      359.847        1.005        0.179      128.494       10.743        0.007      347.219       26.029      859.506
08/20/2013  18:37:00      -94.592     -142.141        0.720       58.820       42.194       35.692     3459.762     1780.295     1273.916        1.783        0.326      170.738       32.057        0.035      347.195       25.987      859.552
08/20/2013  18:38:00     -125.049      -89.138       -1.163       65.526       40.200       30.791     4293.619     1616.052      948.076        1.522        0.343      153.567       28.143        0.034      346.861       25.414      859.604
08/20/2013  18:39:00      -68.950      -73.203        0.719       70.850       41.511       25.853     5019.791     1723.158      668.395        0.876        0.371      100.563       31.863        0.100      346.956       25.576      859.634
08/20/2013  18:40:00      -47.014      -72.811        5.048       41.464       52.353       24.450     1719.250     2740.789      597.792        0.630        0.253       86.670       20.767        0.057      347.046       25.732      859.662
08/20/2013  18:41:00      -51.463      -90.062        6.080       50.978       67.350       30.102     2598.752     4536.045      906.153        0.942        0.402      103.728       26.902        0.067      347.106       25.836      859.708
08/20/2013  18:42:00     -124.625     -193.383        2.680       91.738       84.380       48.426     8415.893     7119.968     2345.048        3.541        0.894      230.061       58.094        0.064      347.236       26.054      859.768
08/20/2013  18:43:00     -206.953     -149.528       -8.224       79.128       77.751       41.811     6261.261     6045.247     1748.194        3.965        0.703      255.320       45.640        0.032      347.104       25.827      859.831
08/20/2013  18:44:00     -122.911     -116.064       11.934       94.667       68.204       53.165     8961.930     4651.819     2826.480        2.258        0.822      169.050       47.851        0.080      347.117       25.852      859.885
08/20/2013  18:45:00      -50.014     -183.403       14.302       73.651       81.752       50.527     5424.469     6683.458     2552.995        2.550        0.733      190.100       37.110        0.038      347.500       26.512      859.937
08/20/2013  18:46:00     -105.097      -67.935        9.946       93.046       69.913       45.661     8657.574     4887.885     2084.955        1.569        0.782      125.142       46.271        0.137      347.245       26.073      859.998
08/20/2013  18:47:00      -61.519     -156.443        1.645       36.469       37.873       22.700     1329.971     1434.373      515.279        1.577        0.164      168.105       12.081        0.005      347.233       26.054      860.032
08/20/2013  18:48:00      -27.018     -150.207        5.818       36.422       58.946       23.367     1326.555     3474.664      546.039        1.434        0.267      152.617       15.701        0.011      347.187       25.973      860.073
08/20/2013  18:49:00       14.145      -80.609       20.931       38.488       47.615       28.354     1481.351     2267.142      803.944        0.584        0.228       81.840       11.651        0.020      347.208       26.010      860.147
08/20/2013  18:50:00       60.025      -90.285       10.765       45.175       51.584       43.486     2040.743     2660.925     1891.073        0.923        0.330      108.418       34.274        0.100      347.251       26.084      860.229
08/20/2013  18:51:00       40.839      -93.094      -21.398       63.395       56.473       38.346     4018.982     3189.212     1470.401        0.973        0.434      101.658       34.655        0.116      347.306       26.179      860.322
08/20/2013  18:52:00        8.922      -44.623       19.257       28.058       41.247       33.557      787.239     1701.353     1126.079        0.303        0.181       45.507       30.675        0.454      347.080       25.790      860.464
08/20/2013  18:53:00       46.278       -5.941       41.243       48.188       63.756       49.850     2322.059     4064.809     2484.993        0.637        0.444       46.658       47.712        1.046      347.021       25.688      860.567
08/20/2013  18:54:00      100.260      -19.443       52.276      104.300       88.773       67.298    10878.576     7880.620     4528.982        1.822        1.164      102.128       64.314        0.397      347.441       26.412      860.586
08/20/2013  18:55:00      186.989      -33.338      106.649      150.931      233.328      146.572    22780.193    54441.778    21483.273        7.306        4.935      189.937      155.406        0.669      347.447       26.420      860.607
08/20/2013  18:56:00      238.730      202.415      211.563      169.079      156.622      120.527    28587.540    24530.295    14526.702       10.517        3.382      312.992      118.638        0.144      347.513       26.533      860.633
08/20/2013  18:57:00      144.335      114.798      114.276      138.092      123.034      113.297    19069.351    15137.413    12836.179        4.705        2.352      184.422       93.855        0.259      347.391       26.323      860.699
08/20/2013  18:58:00      167.241     -244.991      -39.320      172.728      154.424       83.508    29834.895    23846.856     6973.660        7.509        3.033      296.631       99.881        0.113      347.446       26.419      860.756
08/20/2013  18:59:00       85.338     -202.851       -1.252      118.316      149.939       87.355    13998.656    22481.725     7630.975        4.626        2.206      220.071       94.031        0.183      347.297       26.160      860.822
08/20/2013  19:00:00      145.144     -176.723       26.386      129.320      151.045       86.187    16723.686    22814.736     7428.164        4.997        2.348      228.687       94.208        0.170      347.226       26.039      860.857
08/20/2013  19:01:00       26.937      -22.815       61.029       63.693      135.390       76.326     4056.777    18330.569     5825.647        1.659        1.411       35.300       85.339        5.844      347.009       25.668      860.849
08/20/2013  19:02:00      120.614     -149.852       28.973      103.271      152.950       87.966    10664.960    23393.596     7737.955        3.981        2.090      192.363       94.819        0.243      347.070       25.770      860.834
08/20/2013  19:03:00      177.576     -207.130        3.381      155.927      180.839       86.214    24313.240    32702.893     7432.893        6.944        3.222      272.830       99.716        0.134      347.177       25.955      860.814
08/20/2013  19:04:00      136.774      -87.190       30.137      121.073      174.748      115.616    14658.566    30536.961    13366.998        4.288        2.928      162.201      125.001        0.594      347.106       25.832      860.867
08/20/2013  19:05:00       57.304      -84.169       50.253      118.423      115.975       73.685    14024.119    13450.274     5429.499        2.289        1.645      101.824       75.227        0.546      347.005       25.658      860.959
08/20/2013  19:06:00       58.117       17.975       89.072       81.660      108.113       59.380     6668.387    11688.367     3526.009        1.675        1.094       60.833       58.320        0.919      346.813       25.328      861.093
08/20/2013  19:07:00       79.324      -20.493       54.725       88.004      123.015       64.693     7744.641    15132.720     4185.131        1.838        1.353       81.928       78.477        0.918      346.899       25.478      861.134
08/20/2013  19:08:00       37.145      -52.808        1.319       37.799       52.182       33.914     1428.743     2722.955     1150.179        0.474        0.265       64.564       30.300        0.220      346.719       25.167      861.178
08/20/2013  19:09:00       70.172       -5.335       35.161       56.089       90.822       53.921     3146.005     8248.607     2907.479        1.024        0.715       70.374       58.634        0.694      346.785       25.281      861.211
08/20/2013  19:10:00      154.735       74.538       45.749      166.769       85.745       50.167    27812.038     7352.214     2516.698        3.463        1.884      171.752       36.436        0.045      346.871       25.429      861.270
08/20/2013  19:11:00      208.021      122.963       97.402      145.898      120.621      111.745    21286.127    14549.505    12486.919        5.809        2.416      241.646       97.184        0.162      346.806       25.315      861.341
08/20/2013  19:12:00      217.989      126.532       66.235      127.607       93.536       83.086    16283.486     8749.072     6903.287        4.992        1.597      252.051       55.327        0.048      346.664       25.070      861.401
08/20/2013  19:13:00      364.001      200.310       62.909      136.448      124.269      100.629    18617.964    15442.882    10126.198       11.038        2.209      415.477       21.762        0.003      346.415       24.644      861.424
08/20/2013  19:14:00      192.423      191.302      150.987      155.598       99.224      109.049    24210.606     9845.420    11891.594        7.118        2.297      271.336       87.333        0.104      346.175       24.227      861.449
08/20/2013  19:15:00      205.969      106.476      112.833      149.237      179.567       97.637    22271.591    32244.148     9532.981        6.526        3.202      231.863       73.663        0.101      345.955       23.852      861.508
08/20/2013  19:16:00      123.775       81.915      128.025      137.596      127.913       98.777    18932.725    16361.647     9756.901        4.173        2.253      148.426       79.636        0.288      345.868       23.705      861.592
08/20/2013  19:17:00      248.537      145.120       86.717      161.832      107.591      119.250    26189.627    11575.883    14220.626        7.116        2.599      287.803      103.113        0.128      345.759       23.517      861.627
08/20/2013  19:18:00      188.874      132.457      118.129      181.636      130.473       92.873    32991.558    17023.195     8625.446        6.290        2.932      230.691       83.366        0.131      345.650       23.329      861.651
08/20/2013  19:19:00      149.581      193.824      165.371      169.843      108.116      118.941    28846.624    11689.159    14147.053        7.098        2.734      244.831      103.325        0.178      345.580       23.209      861.675
08/20/2013  19:20:00      137.439      129.270      123.220      132.375       88.568       85.210    17523.258     7844.377     7260.816        4.170        1.631      188.680       67.414        0.128      345.506       23.083      861.695
08/20/2013  19:21:00      138.493      109.289      111.970      104.064      123.550       87.029    10829.298    15264.532     7574.056        3.866        1.683      176.422       88.291        0.250      345.519       23.103      861.752
08/20/2013  19:22:00      198.387      105.382      100.197      119.067      122.346       71.192    14176.945    14968.604     5068.238        4.735        1.711      224.639       44.692        0.040      345.511       23.091      861.747
08/20/2013  19:23:00       95.107      111.420       94.819      128.076       85.128       57.863    16403.464     7246.853     3348.145        2.872        1.350      146.492       57.993        0.157      345.525       23.116      861.759
08/20/2013  19:24:00      334.048      184.283      132.444      181.197      143.350      130.978    32832.246    20549.169    17155.141       11.680        3.527      381.508      118.027        0.096      345.612       23.263      861.726
08/20/2013  19:25:00      252.013      110.990       65.912      143.511      109.288      104.821    20595.297    11943.822    10987.390        6.184        2.176      275.371       75.592        0.075      345.549       23.154      861.763
08/20/2013  19:26:00      220.875       99.034       17.983      140.183       91.616       65.643    19651.270     8393.435     4308.975        4.563        1.618      242.061       60.063        0.062      345.575       23.200      861.761
08/20/2013  19:27:00      225.488      136.475       38.564       99.265       65.884       57.126     9853.529     4340.698     3263.436        4.420        0.873      263.572       37.518        0.020      345.586       23.218      861.773
08/20/2013  19:28:00      262.912      160.666       17.863      114.279       76.126       59.751    13059.772     5795.165     3570.212        5.884        1.121      308.117       28.558        0.009      345.532       23.125      861.794
08/20/2013  19:29:00      196.665      110.910       43.351      102.455       78.744       65.019    10497.115     6200.563     4227.406        3.689        1.046      225.784       38.497        0.029      345.524       23.113      861.817
08/20/2013  19:30:00      179.713      159.130       29.734      127.386       88.300       76.570    16227.283     7796.847     5863.018        4.419        1.494      240.040       57.125        0.057      345.470       23.019      861.825
08/20/2013  19:31:00      150.441      145.787        0.935      104.832       82.718       65.348    10989.707     6842.330     4270.397        3.299        1.105      209.491       53.678        0.066      345.425       22.943      861.828
08/20/2013  19:32:00      226.169      160.795       15.661      112.941       74.449       60.947    12755.677     5542.725     3714.492        4.963        1.101      277.502       44.171        0.025      345.453       22.991      861.854
08/20/2013  19:33:00       67.702      108.762        9.823      114.804       85.494       45.518    13180.001     7309.146     2071.857        1.953        1.128      128.113       41.708        0.106      345.490       23.055      861.899
08/20/2013  19:34:00      124.978      184.316       -6.855      133.401      106.884       71.591    17795.882    11424.254     5125.263        4.199        1.717      222.692       65.242        0.086      345.737       23.480      861.908
08/20/2013  19:35:00      134.341      212.324       -4.189      132.343      108.621       73.426    17514.658    11798.524     5391.380        4.892        1.735      251.254       64.323        0.066      345.923       23.796      861.947
08/20/2013  19:36:00      153.083      253.984      -15.597      161.453      141.660       80.303    26066.989    20067.470     6448.638        7.038        2.629      296.551       73.525        0.061      346.066       24.042      862.006
08/20/2013  19:37:00      270.060      245.959       33.890      225.776      171.616      112.486    50974.842    29451.997    12653.073       11.381        4.654      365.278       80.282        0.048      346.056       24.025      861.994
08/20/2013  19:38:00      242.904      169.037       30.300      125.771       91.050       71.900    15818.250     8290.070     5169.612        5.888        1.464      295.932       37.280        0.016      346.033       23.986      861.992
08/20/2013  19:39:00      142.118       81.681       48.305      174.637      111.085       71.280    30497.985    12339.818     5080.906        3.855        2.396      163.918       29.748        0.033      346.006       23.940      862.028
08/20/2013  19:40:00      137.808      130.104        0.202       90.488       70.233       51.862     8188.153     4932.740     2689.676        2.586        0.791      189.521       51.957        0.075      346.052       24.018      862.038
08/20/2013  19:41:00      119.069      114.468       42.120      118.709       86.169       73.076    14091.942     7425.042     5340.131        2.795        1.343      165.167       50.254        0.093      345.971       23.882      862.085
08/20/2013  19:42:00      158.569      157.982       31.984      131.403       83.008       86.827    17266.815     6890.316     7538.994        4.141        1.585      223.836       55.724        0.062      345.993       23.917      862.086
08/20/2013  19:43:00      188.194      216.281       14.268      182.070      141.477      117.466    33149.660    20015.723    13798.325        7.467        3.348      286.696       94.385        0.108      346.037       23.994      862.055
08/20/2013  19:44:00      124.703      197.724       -5.565      113.381      131.602       83.913    12855.255    17319.011     7041.458        4.594        1.861      233.764       85.617        0.134      345.957       23.857      862.102
08/20/2013  19:45:00      107.648      154.047        6.127      108.196      145.500       77.941    11706.423    21170.241     6074.762        3.715        1.948      187.932       73.684        0.154      345.866       23.699      862.160
08/20/2013  19:46:00      132.860      162.682        0.908      141.193       98.594       78.194    19935.466     9720.735     6114.297        3.994        1.789      210.041       54.370        0.067      345.793       23.575      862.200
08/20/2013  19:47:00      264.676      206.151       23.753      170.914      120.336       86.063    29211.674    14480.806     7406.898        8.210        2.555      335.487       73.329        0.048      345.779       23.550      862.224
08/20/2013  19:48:00      449.542      270.280       49.777      201.803      165.119      107.295    40724.535    27264.446    11512.252       17.855        3.975      524.537       86.516        0.027      346.049       24.013      862.286
08/20/2013  19:49:00      267.413      185.626       83.404      165.790      121.803      102.818    27486.301    14836.072    10571.598        8.290        2.645      325.526       85.466        0.069      346.170       24.223      862.358
08/20/2013  19:50:00      182.997      135.326       89.382      138.039       82.558       65.210    19054.792     6815.778     4252.368        4.495        1.506      227.598       58.746        0.067      346.136       24.163      862.421
08/20/2013  19:51:00      206.687      135.273       92.901      210.769      124.196      101.188    44423.700    15424.560    10239.010        6.986        3.504      247.019       89.690        0.132      346.081       24.068      862.469
08/20/2013  19:52:00      145.584      139.888       14.138      123.287      103.506       85.438    15199.596    10713.579     7299.735        3.708        1.661      201.899       62.551        0.096      346.071       24.051      862.551
08/20/2013  19:53:00      144.593      141.505       32.768       86.079       83.146       72.925     7409.558     6913.322     5318.017        3.082        0.982      202.314       50.886        0.063      346.001       23.932      862.620
08/20/2013  19:54:00       49.509       78.386       18.381       91.512       60.609       42.249     8374.414     3673.489     1784.936        1.138        0.692       92.712       47.729        0.265      345.907       23.772      862.643
08/20/2013  19:55:00      242.114      173.321       28.565      114.293       92.617       84.276    13062.916     8577.976     7102.510        5.910        1.437      297.757       42.015        0.020      345.919       23.791      862.672
08/20/2013  19:56:00      276.851      166.140       52.690      124.878       74.844       91.068    15594.599     5601.682     8293.404        6.825        1.474      322.876       76.393        0.056      345.841       23.657      862.706
08/20/2013  19:57:00       93.002       73.959       -7.169       77.980       64.973       39.869     6080.952     4221.444     1589.533        1.303        0.595      118.825       15.286        0.017      345.834       23.648      862.712
08/20/2013  19:58:00      162.465      112.897       67.811       72.915       49.939       52.970     5316.543     2493.867     2805.857        2.718        0.531      197.840       32.105        0.026      345.834       23.646      862.738
08/20/2013  19:59:00      116.819      117.682       67.398      135.452       69.091       74.927    18347.374     4773.525     5614.100        3.038        1.437      165.818       61.482        0.137      345.834       23.647      862.758
08/20/2013  20:00:00      129.664       31.420       20.797      100.943       53.083       41.159    10189.509     2817.784     1694.047        1.646        0.735      133.416       25.497        0.037      345.803       23.593      862.795
08/20/2013  20:01:00       74.321       30.982       13.244       60.567       50.206       32.764     3668.354     2520.687     1073.474        0.696        0.363       80.520       31.269        0.151      345.766       23.531      862.805
08/20/2013  20:02:00       -1.113      -47.456       20.945       43.781       74.114       36.214     1916.745     5492.825     1311.425        0.571        0.436       47.469       34.097        0.516      345.728       23.465      862.800
08/20/2013  20:03:00       75.536       39.328       54.642       94.570      127.966       69.059     8943.419    16375.299     4769.193        2.016        1.504       85.161       50.523        0.352      345.868       23.705      862.752
08/20/2013  20:04:00      170.750      139.564       77.582       94.026       79.639       42.991     8840.808     6342.386     1848.189        3.584        0.852      220.530       22.249        0.010      346.033       23.987      862.748
08/20/2013  20:05:00      177.611       80.363       47.111      120.805      126.388       81.302    14593.944    15973.845     6610.048        3.869        1.859      194.946       57.577        0.087      346.078       24.066      862.764
08/20/2013  20:06:00      202.742      135.799      144.896      136.152      101.768       88.672    18537.298    10356.746     7862.797        5.864        1.838      244.020       52.647        0.047      346.101       24.104      862.776
08/20/2013  20:07:00       88.672       -9.405       59.157       86.211      108.384       68.838     7432.312    11747.129     4738.640        1.768        1.196       89.170       63.382        0.505      345.993       23.920      862.815
08/20/2013  20:08:00       57.330      -11.165       40.534       74.658       79.289       45.369     5573.815     6286.752     2058.343        0.948        0.696       58.407       32.471        0.309      345.956       23.857      862.802
08/20/2013  20:09:00       89.725      -87.483       27.956       88.351      129.753       74.509     7805.863    16835.804     5551.531        2.333        1.510      125.315       70.415        0.316      346.056       24.025      862.779
08/20/2013  20:10:00      105.005       -9.189       72.071       89.287      106.747       63.616     7972.118    11394.980     4046.951        1.986        1.171      105.407       72.630        0.475      345.972       23.883      862.787
08/20/2013  20:11:00       65.337      -78.142       21.164       75.410      105.087       60.162     5686.596    11043.185     3619.407        1.558        1.017      101.859       54.172        0.283      346.081       24.070      862.773
08/20/2013  20:12:00       86.920      -63.090       49.673       74.419      100.822       54.846     5538.120    10165.110     3008.032        1.635        0.936      107.403       57.599        0.288      345.997       23.927      862.758
08/20/2013  20:13:00       36.644      -21.130       45.191       70.016       91.652       48.592     4902.227     8400.112     2361.210        0.974        0.783       42.300       41.214        0.949      346.048       24.015      862.709
08/20/2013  20:14:00      121.223      -18.800       74.501      148.818      121.093       92.072    22146.898    14663.583     8477.235        3.294        2.264      122.672       82.605        0.453      346.031       23.984      862.678
08/20/2013  20:15:00      215.977       19.397      124.094      200.294      202.684      129.607    40117.665    41080.986    16797.941        8.019        4.900      216.846      145.821        0.452      346.268       24.391      862.635
08/20/2013  20:16:00      152.338      -35.791       88.417      130.526      246.539      131.717    17037.008    60781.467    17349.339        6.372        4.758      156.486      164.959        1.111      346.339       24.512      862.633
08/20/2013  20:17:00      165.520     -178.231       47.045      165.522      174.558       98.127    27397.469    30470.383     9628.846        6.443        3.375      243.234      106.081        0.190      346.392       24.603      862.613
08/20/2013  20:18:00      111.361       -9.187       80.004      117.384      184.688       93.740    13779.002    34109.737     8787.183        3.777        2.834      111.739      107.344        0.923      346.308       24.459      862.615
08/20/2013  20:19:00      130.024      -32.324       68.150      126.145      118.504       80.072    15912.489    14043.221     6411.468        2.948        1.818      133.981       73.597        0.302      346.270       24.395      862.662
08/20/2013  20:20:00       70.485      -84.881       34.967      108.374      159.630       77.114    11744.918    25481.721     5946.612        2.828        2.159      110.331       96.607        0.767      346.242       24.349      862.659
08/20/2013  20:21:00      215.763     -236.370       23.911      166.512      182.736      119.056    27726.389    33392.365    14174.254        8.913        3.765      320.038      141.697        0.196      346.396       24.610      862.702
08/20/2013  20:22:00      205.164     -226.919       31.289      165.049      195.866      121.966    27241.255    38363.376    14875.688        8.751        4.024      305.916      137.757        0.203      346.421       24.654      862.743
08/20/2013  20:23:00        3.018      -78.536       46.054      114.356      138.113       95.442    13077.224    19075.149     9109.091        2.477        2.063       78.594       87.526        1.240      346.299       24.445      862.779
08/20/2013  20:24:00      189.063     -155.586       70.592      169.333      277.351      145.809    28673.572    76923.537    21260.146        9.587        6.343      244.850      187.150        0.584      346.498       24.786      862.828
08/20/2013  20:25:00       71.092      -89.003       35.402       87.791      180.425       84.030     7707.244    32553.190     7061.110        3.077        2.366      113.911       89.986        0.624      346.405       24.627      862.769
08/20/2013  20:26:00      -16.233     -149.264        6.074       91.612       90.660       49.070     8392.705     8219.241     2407.874        2.080        0.951      150.144       43.466        0.084      346.422       24.656      862.917
08/20/2013  20:27:00       83.918     -176.028        9.210       68.895       86.353       59.093     4746.534     7456.831     3491.963        2.690        0.785      195.008       50.285        0.066      346.382       24.587      862.994
08/20/2013  20:28:00        5.394     -229.387      -27.255      124.818       97.455       50.926    15579.587     9497.458     2593.444        4.053        1.384      229.450       45.484        0.039      346.435       24.678      863.005
08/20/2013  20:29:00      -50.285      -88.899        7.392       90.998       80.049       58.587     8280.558     6407.848     3432.384        1.430        0.906      102.135       16.223        0.025      346.368       24.564      862.956
08/20/2013  20:30:00       54.130      -90.009       20.290       73.913      110.874       74.896     5463.180    12292.963     5609.356        1.740        1.168      105.032       68.247        0.422      346.254       24.369      863.043
08/20/2013  20:31:00       89.993      -52.468       63.475      114.833      166.316       91.373    13186.650    27661.125     8349.114        3.203        2.460      104.171      104.882        1.014      346.284       24.419      863.072
08/20/2013  20:32:00      165.464     -147.177       71.070      165.442      263.587      132.068    27371.210    69478.358    17441.855        8.417        5.715      221.448      175.620        0.629      346.160       24.205      863.091
08/20/2013  20:33:00       90.733     -127.052       66.308       85.617      145.845       80.826     7330.245    21270.812     6532.893        3.195        1.757      156.124       84.085        0.290      346.226       24.317      863.109
08/20/2013  20:34:00      153.231     -189.358       68.387      130.305      191.974      115.419    16979.390    36854.029    13321.583        6.557        3.358      243.590      123.669        0.258      346.269       24.392      863.097
08/20/2013  20:35:00      192.460     -239.606        6.947      166.084      187.857      110.049    27583.730    35290.084    12110.705        8.473        3.749      307.330      138.376        0.203      346.188       24.252      863.140
08/20/2013  20:36:00       91.994      -47.137      116.374      135.703      207.603      116.251    18415.247    43098.829    13514.247        4.962        3.751      103.368      137.857        1.779      346.181       24.240      863.147
08/20/2013  20:37:00       87.957      -43.986       74.578      134.209      166.077      118.241    18011.965    27581.584    13980.944        3.739        2.979       98.342      137.701        1.961      346.137       24.168      863.192
08/20/2013  20:38:00      224.989     -236.531      -12.497      144.702      174.438       87.620    20938.586    30428.736     7677.303        8.287        2.952      326.446      104.720        0.103      346.147       24.182      863.219
08/20/2013  20:39:00      163.049      -93.614       43.667      147.663      161.878       91.183    21804.489    26204.569     8314.318        4.678        2.816      188.012      107.103        0.325      346.127       24.148      863.234
08/20/2013  20:40:00      118.515      -88.602       44.983       92.330      145.394       69.787     8524.745    21139.298     4870.240        2.922        1.727      147.973       91.059        0.379      346.096       24.095      863.268
08/20/2013  20:41:00      155.595      -54.773       19.929       90.841       79.123       49.970     8252.125     6260.451     2496.978        2.231        0.850      164.954       58.267        0.125      346.051       24.018      863.304
08/20/2013  20:42:00       78.666      -28.746       23.702       70.837       78.877       40.735     5017.910     6221.643     1659.363        1.024        0.645       83.754       32.441        0.150      346.105       24.113      863.295
08/20/2013  20:43:00       60.665       23.957       14.163       66.045       34.585       26.497     4361.912     1196.154      702.106        0.536        0.313       65.224       29.112        0.199      346.041       24.003      863.333
08/20/2013  20:44:00      108.361       93.655       48.135       71.171       38.825       36.146     5065.339     1507.393     1306.540        1.535        0.394      143.225       17.897        0.016      346.025       23.976      863.405
08/20/2013  20:45:00       52.808       39.761       47.255       53.721       42.379       26.669     2885.898     1795.996      711.241        0.600        0.270       66.103       11.943        0.033      345.973       23.886      863.429
08/20/2013  20:46:00       18.213      -57.774        7.914       52.821       59.902       33.111     2790.100     3588.278     1096.340        0.560        0.374       60.576       32.049        0.280      345.974       23.887      863.417
08/20/2013  20:47:00       87.398      -78.490       16.924       73.595       82.241       55.773     5416.212     6763.606     3110.668        1.469        0.765      117.470       55.616        0.224      346.176       24.231      863.356
08/20/2013  20:48:00       69.547       29.489      104.784      104.353      132.903       88.398    10889.614    17663.124     7814.294        2.652        1.818       75.540       89.770        1.412      346.165       24.215      863.362
08/20/2013  20:49:00      169.941     -203.122      -15.619      144.789      142.522       78.585    20963.959    20312.513     6175.528        5.891        2.373      264.837       73.123        0.076      346.293       24.432      863.346
08/20/2013  20:50:00       34.144       82.645      116.325       82.818      121.159       95.870     6858.821    14679.445     9191.001        2.612        1.536       89.421       88.172        0.972      346.053       24.021      863.351
08/20/2013  20:51:00      161.073      110.868       49.587      154.319      116.669       73.034    23814.455    13611.638     5333.951        4.172        2.138      195.541       38.502        0.039      346.125       24.146      863.401
08/20/2013  20:52:00      293.057      190.392       57.619      176.749      122.306       88.127    31240.286    14958.657     7766.311        8.970        2.698      349.474       55.441        0.025      346.137       24.165      863.367
08/20/2013  20:53:00      438.017      264.464       37.813      150.303      136.000      105.192    22590.860    18495.872    11065.403       15.768        2.608      511.664       72.025        0.020      345.942       23.831      863.338
08/20/2013  20:54:00      241.518      156.356       40.084      120.812       81.219       70.365    14595.484     6596.465     4951.284        5.526        1.307      287.712       25.133        0.008      345.898       23.754      863.345
08/20/2013  20:55:00      272.786      167.364       31.109      132.953       93.708       85.038    17676.500     8781.231     7231.499        6.853        1.684      320.036       66.425        0.043      345.903       23.765      863.292
08/20/2013  20:56:00      466.470      309.520       69.424      179.622      136.962      107.857    32263.932    18758.627    11633.041       19.043        3.133      559.819       22.862        0.002      345.936       23.819      863.191
08/20/2013  20:57:00      402.345      288.414       38.790      174.723      128.712      108.684    30528.112    16566.842    11812.294       15.273        2.945      495.039       65.533        0.018      345.864       23.695      863.071
08/20/2013  20:58:00      352.227      226.792       77.147      188.214      139.865      105.429    35424.357    19562.117    11115.375       12.377        3.305      418.926       45.668        0.012      345.848       23.669      863.018
08/20/2013  20:59:00      370.580      243.638       61.732      174.418      112.043       88.608    30421.701    12553.572     7851.410       12.565        2.541      443.496       58.159        0.017      345.776       23.545      862.990
08/20/2013  21:00:00      295.522      149.832       58.485      125.870      115.280       85.913    15843.294    13289.464     7381.129        7.485        1.826      331.335       68.993        0.043      345.798       23.583      862.942
08/20/2013  21:01:00      164.333       65.146       38.463      111.686       71.059       57.030    12473.678     5049.438     3252.477        2.675        1.039      176.775       48.987        0.077      345.713       23.439      862.924
08/20/2013  21:02:00       16.177      -19.169       18.706       95.580       81.782       48.503     9135.570     6688.271     2352.570        0.957        0.909       25.083       22.477        0.803      345.703       23.423      862.909
08/20/2013  21:03:00       79.086       -8.816       33.093       87.323       56.023       51.046     7625.381     3138.530     2605.684        1.040        0.668       79.575       41.704        0.275      345.460       23.006      862.914
08/20/2013  21:04:00       72.071       22.483       31.480       87.680      109.223       74.402     7687.742    11929.717     5535.611        1.592        1.258       75.496       64.035        0.719      345.533       23.130      862.941
08/20/2013  21:05:00       35.339      -67.820       -8.070       80.914       95.788       50.882     6547.152     9175.311     2588.946        1.211        0.916       76.475       12.005        0.025      345.730       23.468      862.995
08/20/2013  21:06:00       76.539      -40.922       31.243       77.043       87.235       44.736     5935.644     7609.979     2001.326        1.203        0.777       86.791       39.360        0.206      345.692       23.403      863.051
08/20/2013  21:07:00      114.971      112.923       84.575      111.168       84.335       83.715    12358.342     7112.422     7008.225        2.980        1.324      161.152       49.494        0.094      345.607       23.257      863.098
08/20/2013  21:08:00       52.743       73.230       93.820       77.764      111.048       69.120     6047.239    12331.632     4777.543        2.005        1.158       90.247       53.700        0.354      345.470       23.021      863.159
08/20/2013  21:09:00      -18.384      -79.342       -2.090       30.784       54.399       27.537      947.631     2959.230      758.260        0.565        0.233       81.444       18.776        0.053      345.592       23.232      863.158
08/20/2013  21:10:00        1.559      -32.564        7.001       52.879       27.197       19.774     2796.212      739.676      391.022        0.252        0.196       32.602       19.370        0.353      345.614       23.270      863.145
08/20/2013  21:11:00       -1.355      -13.661       16.434       28.970       46.434       25.787      839.265     2156.073      664.990        0.206        0.183       13.728       22.624        2.716      345.644       23.321      863.126
08/20/2013  21:12:00       -9.738      -25.678        4.100       41.616       53.633       27.747     1731.917     2876.549      769.920        0.307        0.269       27.463       16.558        0.364      345.447       22.983      863.090
08/20/2013  21:13:00      -66.597       46.873       -3.122       32.587       49.574       25.190     1061.932     2457.604      634.551        0.540        0.208       81.439       18.477        0.051      345.616       23.272      863.004
08/20/2013  21:14:00     -110.906      117.403      -31.548       41.418       52.983       24.376     1715.431     2807.199      594.168        1.610        0.256      161.504       18.308        0.013      345.645       23.322      862.836
08/20/2013  21:15:00       22.652      216.305      -24.202       38.659       53.523       34.361     1494.507     2864.735     1180.685        2.671        0.277      217.488       26.035        0.014      345.660       23.345      862.679
08/20/2013  21:16:00       41.614      226.645      -31.416       64.145       77.245       38.543     4114.621     5966.765     1485.587        3.282        0.578      230.433       37.243        0.026      345.615       23.267      862.612
08/20/2013  21:17:00       84.072       70.552       11.936       86.606       57.668       44.470     7500.595     3325.608     1977.557        1.249        0.640      109.752       35.634        0.105      345.617       23.275      862.609
08/20/2013  21:18:00       40.413       31.264        2.689       34.197       29.443       22.860     1169.414      866.864      522.584        0.259        0.128       51.095       16.262        0.101      345.582       23.217      862.659
08/20/2013  21:19:00       -5.209       19.956        9.240       61.452       61.529       25.587     3776.296     3785.811      654.711        0.436        0.411       20.624       16.343        0.628      345.657       23.343      862.749
08/20/2013  21:20:00       25.930      -91.228       -9.339       44.412       57.371       26.338     1972.422     3291.401      693.671        0.752        0.298       94.841       29.811        0.099      345.670       23.364      862.852
08/20/2013  21:21:00      -47.038      -77.937       -5.905       89.865       46.880       32.246     8075.675     2197.772     1039.797        0.982        0.566       91.032       26.699        0.086      345.642       23.316      862.931
08/20/2013  21:22:00      -94.958      -90.187        5.575       63.206       49.986       34.101     3994.996     2498.562     1162.893        1.242        0.383      130.961       33.540        0.066      345.637       23.311      862.971
08/20/2013  21:23:00      -65.189      -37.637       12.390       48.380       34.976       25.614     2340.603     1223.287      656.082        0.502        0.211       75.274       24.064        0.102      345.641       23.316      862.955
08/20/2013  21:24:00      -24.431       -9.268        4.135       30.002       20.275       17.362      900.128      411.078      301.429        0.116        0.081       26.130       18.629        0.508      345.679       23.380      862.900
08/20/2013  21:25:00      -53.615      -20.581       -7.185       29.223       18.790       12.768      854.006      353.083      163.034        0.236        0.069       57.429        8.421        0.022      345.705       23.427      862.829
08/20/2013  21:26:00      -41.847      -17.536      -15.133       29.484       13.945       11.617      869.324      194.457      134.956        0.174        0.060       45.372       10.031        0.049      345.727       23.469      862.799
08/20/2013  21:27:00       10.467      -23.254       13.648        9.927       18.514       12.189       98.540      342.760      148.577        0.071        0.029       25.501        9.997        0.154      345.724       23.464      862.830
08/20/2013  21:28:00        7.527       11.194        3.754        6.908        8.050        6.633       47.715       64.810       43.995        0.018        0.008       13.489        3.317        0.060      345.676       23.378      862.906
08/20/2013  21:29:00       25.122      -66.353      -10.520       23.932       42.288       12.536      572.729     1788.298      157.150        0.383        0.126       70.949       10.352        0.021      345.671       23.368      862.999
08/20/2013  21:30:00       51.037      -68.625      -27.056       44.959       41.928       31.956     2021.308     1757.919     1021.201        0.642        0.240       85.523       28.843        0.114      345.730       23.469      863.070
08/20/2013  21:31:00       22.862      -42.138      -12.994       40.467       39.577       36.949     1637.558     1566.329     1365.210        0.352        0.228       47.941       24.437        0.260      345.689       23.398      863.121
08/20/2013  21:32:00       38.655      -53.748       -4.094       44.921       49.608       37.648     2017.928     2460.992     1417.389        0.515        0.295       66.205       28.573        0.186      345.657       23.343      863.141
08/20/2013  21:33:00       56.827      -64.068       -7.118       37.923       38.334       25.308     1438.152     1469.526      640.477        0.547        0.177       85.639       20.933        0.060      345.441       22.974      863.149
08/20/2013  21:34:00       17.909      -20.319       19.001       25.493       36.871       25.066      649.875     1359.473      628.296        0.187        0.132       27.084       12.095        0.199      345.411       22.923      863.151
08/20/2013  21:35:00       25.790       19.046       20.403       52.147       53.716       33.618     2719.299     2885.385     1130.156        0.409        0.337       32.061       24.769        0.597      345.447       22.982      863.158
08/20/2013  21:36:00       50.261       99.076       88.950       66.182       41.359       45.662     4380.078     1710.531     2084.980        1.421        0.409      111.096       42.746        0.148      345.501       23.076      863.173
08/20/2013  21:37:00       13.437       63.047       99.039       50.636       45.454       26.437     2563.994     2066.056      698.912        0.965        0.266       64.463       21.982        0.116      345.411       22.921      863.207
08/20/2013  21:38:00        3.257       28.045       71.915       27.854       56.189       36.778      775.854     3157.181     1352.610        0.563        0.264       28.234       33.000        1.366      345.419       22.935      863.260
08/20/2013  21:39:00       26.361      -48.940       31.360       41.865       49.600       40.706     1752.637     2460.133     1656.966        0.497        0.293       55.588       25.996        0.219      345.330       22.784      863.301
08/20/2013  21:40:00      136.980      -95.070        4.155       69.925       80.135       49.367     4889.442     6421.556     2437.146        2.078        0.687      166.739       38.342        0.053      345.457       22.998      863.353
08/20/2013  21:41:00      121.338     -155.581       20.060       95.310      155.170       67.874     9084.087    24077.761     4606.841        3.854        1.888      197.303       87.264        0.196      345.780       23.553      863.339
08/20/2013  21:42:00       65.295      -26.779       71.265       74.153       95.062       62.164     5498.596     9036.764     3864.359        1.423        0.920       70.573       62.997        0.797      345.674       23.372      863.394
08/20/2013  21:43:00      111.000      -60.158       36.148      138.044      122.644       74.558    19056.120    15041.566     5558.886        2.844        1.983      126.253       89.815        0.506      345.775       23.544      863.403
08/20/2013  21:44:00       46.710      -29.082       32.245       68.966       87.450       57.027     4756.370     7647.526     3252.064        0.986        0.783       55.024       55.678        1.024      345.705       23.426      863.380
08/20/2013  21:45:00       66.528       24.357       27.547       75.697       77.409       42.450     5730.001     5992.083     1802.012        0.965        0.676       70.847       43.480        0.377      345.570       23.196      863.366
08/20/2013  21:46:00      199.569      162.127       45.619      123.745       98.295       78.797    15312.734     9661.860     6208.979        4.968        1.559      257.124       70.838        0.076      345.690       23.397      863.356
08/20/2013  21:47:00      199.705       62.602       96.794      153.699      113.975       81.804    23623.242    12990.292     6691.834        4.823        2.165      209.287       51.385        0.060      345.654       23.336      863.348
08/20/2013  21:48:00      231.075      117.621      111.506      199.174      124.650      124.755    39670.290    15537.719    15563.898        7.521        3.539      259.288      110.257        0.181      345.679       23.380      863.322
08/20/2013  21:49:00      172.224       57.093      110.695      130.874      145.164       89.617    17128.059    21072.626     8031.201        4.570        2.312      181.440       81.498        0.202      345.733       23.472      863.323
08/20/2013  21:50:00      259.441      177.555      119.846      121.106      106.363       99.214    14666.670    11313.079     9843.326        7.450        1.791      314.381       70.379        0.050      345.693       23.403      863.359
08/20/2013  21:51:00      179.912       91.010       53.850       95.788       84.080       63.576     9175.332     7069.403     4041.857        3.192        1.014      201.621       44.924        0.050      345.715       23.442      863.400
08/20/2013  21:52:00       61.397       37.342       45.159       55.416       42.226       38.283     3070.981     1782.997     1465.598        0.676        0.316       71.861       24.983        0.121      345.639       23.312      863.434
08/20/2013  21:53:00       30.755      -12.729       14.878       79.017       86.973       37.731     6243.732     7564.380     1423.642        0.828        0.762       33.285       54.245        2.656      345.618       23.278      863.432
08/20/2013  21:54:00     -103.259       29.543      -12.481       44.698       50.260       27.692     1997.943     2526.079      766.854        0.849        0.265      107.402       24.844        0.054      345.568       23.189      863.368
08/20/2013  21:55:00      -68.273      -70.225       -6.971      104.989       41.560       31.415    11022.751     1727.222      986.922        1.169        0.687       97.942       18.562        0.036      345.600       23.246      863.325
08/20/2013  21:56:00      -26.461      -72.954       -5.040       49.581       45.303       32.178     2458.241     2052.326     1035.401        0.580        0.277       77.605       26.021        0.112      345.633       23.302      863.336
08/20/2013  21:57:00      -80.818      -73.786       -1.133       62.091       50.026       24.640     3855.319     2502.638      607.126        0.947        0.348      109.435       31.547        0.083      345.604       23.253      863.343
08/20/2013  21:58:00      -52.508      -48.999       -1.758       62.843       35.135       26.548     3949.198     1234.474      704.813        0.552        0.294       71.819       23.035        0.103      345.582       23.215      863.329
08/20/2013  21:59:00      -28.102       16.770       -9.596       27.656       31.099       18.823      764.871      967.147      354.296        0.162        0.104       32.726        8.826        0.073      345.650       23.332      863.290
08/20/2013  22:00:00       -2.015      -44.970      -20.924       46.949       34.760       14.533     2204.252     1208.259      211.221        0.304        0.181       45.015       11.049        0.060      345.558       23.171      863.302
08/20/2013  22:01:00       84.514      -59.869       27.805       77.661      125.470       63.148     6031.273    15742.789     3987.613        1.863        1.288      103.571       87.063        0.707      345.624       23.285      863.353
08/20/2013  22:02:00       97.358       35.986       27.295      131.781      136.115       69.467    17366.361    18527.364     4825.596        2.611        2.036      103.796       19.333        0.035      345.595       23.236      863.227
08/20/2013  22:03:00       61.257       65.616       91.534       87.394       69.061       62.921     7637.691     4769.486     3959.012        1.640        0.818       89.765       44.627        0.247      345.667       23.360      863.218
08/20/2013  22:04:00      153.078       14.434       49.166      106.156       99.790       55.868    11269.031     9958.026     3121.267        2.520        1.217      153.756       55.422        0.130      345.726       23.462      863.174
08/20/2013  22:05:00       88.273      -18.693       67.499       98.623       88.586       64.610     9726.585     7847.546     4174.483        1.722        1.087       90.231       66.774        0.548      345.849       23.673      863.152
08/20/2013  22:06:00       68.401      -41.938       40.546       68.831      112.361       66.489     4737.643    12625.059     4420.809        1.493        1.089       80.234       71.438        0.793      345.748       23.500      863.114
08/20/2013  22:07:00       54.861      125.713      146.001       98.058      115.049       87.103     9615.329    13236.342     7586.919        3.528        1.522      137.163       92.630        0.456      345.748       23.498      863.104
08/20/2013  22:08:00       92.948     -116.526       32.381       80.223      133.682       78.784     6435.739    17870.794     6206.996        2.688        1.526      149.056       89.103        0.357      345.684       23.387      863.109
08/20/2013  22:09:00        5.889      -93.500       18.262       65.634       77.553       39.286     4307.874     6014.442     1543.404        1.049        0.593       93.685       17.018        0.033      345.623       23.285      863.071
08/20/2013  22:10:00       42.311      -89.418        3.431       50.456       54.504       30.794     2545.796     2970.712      948.263        0.813        0.323       98.923       27.622        0.078      345.681       23.385      863.041
08/20/2013  22:11:00        3.406       18.838       49.795       28.229       43.624       27.904      796.899     1903.063      778.641        0.316        0.174       19.143       28.867        2.274      345.463       23.010      863.017
08/20/2013  22:12:00       57.941      -15.568       33.946       51.448       46.049       33.408     2646.868     2120.472     1116.088        0.532        0.294       59.996       32.160        0.287      345.539       23.142      862.951
08/20/2013  22:13:00      -17.204      -78.763        9.737       50.338       46.968       26.585     2533.917     2205.999      706.778        0.602        0.272       80.620       27.455        0.116      345.636       23.308      862.914
08/20/2013  22:14:00        3.446      -53.003        8.428       34.617       49.287       26.479     1198.336     2429.160      701.132        0.361        0.216       53.115       20.340        0.147      345.661       23.349      862.932
08/20/2013  22:15:00       22.539      -17.899       32.793       42.667       68.677       41.093     1820.467     4716.544     1688.605        0.506        0.411       28.782       28.927        1.010      345.567       23.189      862.959
08/20/2013  22:16:00       47.943       16.892       62.512       83.681       60.825       60.665     7002.450     3699.695     3680.192        1.043        0.719       50.832       41.739        0.674      345.436       22.963      862.936
08/20/2013  22:17:00       32.809      -23.726       74.096       91.170      145.296       96.962     8311.977    21110.896     9401.540        2.297        1.941       40.489      106.757        6.952      345.642       23.316      862.949
08/20/2013  22:18:00       60.782     -178.323      -10.569      116.177      108.742       41.304    13497.198    11824.766     1706.027        3.131        1.351      188.397       26.408        0.020      345.811       23.606      862.906
08/20/2013  22:19:00     -120.012      -90.635       20.813      117.131       73.051       49.612    13719.723     5336.414     2461.304        2.228        1.076      150.391       52.113        0.120      345.663       23.352      862.798
08/20/2013  22:20:00     -152.331      -92.966       18.981      123.105       82.044       50.078    15154.902     6731.228     2507.782        2.830        1.220      178.458       55.559        0.097      345.709       23.431      862.784
08/20/2013  22:21:00     -113.273     -107.777      -11.112      112.548      106.820       48.933    12666.997    11410.466     2394.413        2.552        1.324      156.354       28.561        0.033      345.769       23.536      862.833
08/20/2013  22:22:00       15.985      -71.632        4.083       33.862       56.724       29.495     1146.610     3217.615      869.969        0.532        0.262       73.393       22.460        0.094      345.750       23.502      862.914
08/20/2013  22:23:00      -27.702     -111.743      -13.215       50.993       49.588       30.768     2600.281     2459.009      946.681        0.972        0.300      115.126       13.806        0.014      345.759       23.517      862.919
08/20/2013  22:24:00      -96.941     -142.160        2.172       81.452       67.581       35.796     6634.424     4567.190     1281.372        2.105        0.624      172.066       33.878        0.039      345.751       23.504      862.906
08/20/2013  22:25:00      -14.966      -61.871       11.630       51.128       60.655       34.745     2614.034     3679.042     1207.180        0.584        0.375       63.655       27.514        0.187      345.738       23.484      862.946
08/20/2013  22:26:00      -18.671        4.036       21.664       27.634       50.044       19.656      763.617     2504.421      386.362        0.224        0.183       19.103        8.885        0.216      345.566       23.187      862.978
08/20/2013  22:27:00       32.667        2.107       11.236       41.488       29.884       25.708     1721.243      893.075      660.923        0.224        0.164       32.735       25.379        0.601      345.138       22.454      863.020
08/20/2013  22:28:00       19.839      -13.782       -2.093       21.036       16.191       17.300      442.505      262.143      299.304        0.080        0.050       24.156       12.488        0.267      344.746       21.782      863.052
08/20/2013  22:29:00        3.737       -7.421       -0.039       13.875       22.025       13.295      192.512      485.095      176.768        0.046        0.043        8.309        5.448        0.430      344.951       22.135      863.046
08/20/2013  22:30:00      -34.908     -127.523        0.219       22.432       43.288       17.210      503.191     1873.824      296.188        1.008        0.134      132.214        9.031        0.005      345.547       23.155      863.062
08/20/2013  22:31:00      -53.726      -68.098        0.535       44.015       30.920       20.550     1937.298      956.058      422.317        0.542        0.166       86.740       21.924        0.064      345.595       23.236      863.058
08/20/2013  22:32:00      -51.940      -90.455       -8.235       26.925       32.414       21.816      724.944     1050.673      475.949        0.660        0.113      104.306       22.493        0.047      345.569       23.193      863.055
08/20/2013  22:33:00     -104.422     -107.985       -3.796       41.498       45.729       22.570     1722.073     2091.122      509.387        1.345        0.216      150.216       23.560        0.025      345.607       23.257      863.029
08/20/2013  22:34:00     -146.264      -98.465        0.278       51.733       40.104       24.363     2676.258     1608.326      593.572        1.798        0.244      176.319       22.775        0.017      345.589       23.227      862.988
08/20/2013  22:35:00     -133.673      -73.327        7.613       74.925       54.130       36.309     5613.790     2930.053     1318.358        1.658        0.493      152.464       34.044        0.050      345.576       23.204      862.939
08/20/2013  22:36:00     -173.485     -105.202       -5.971      111.864       68.726       41.398    12513.661     4723.229     1713.795        3.007        0.948      202.890       40.515        0.040      345.591       23.227      862.892
08/20/2013  22:37:00     -284.092     -128.952       -4.048       96.099       82.016       56.264     9235.015     6726.684     3165.653        5.824        0.956      311.989       51.652        0.027      345.561       23.175      862.812
08/20/2013  22:38:00     -315.074     -138.574        3.030      133.564       88.596       57.604    17839.348     7849.228     3318.168        7.374        1.450      344.201       56.573        0.027      345.509       23.087      862.748
08/20/2013  22:39:00     -209.498      -69.604        7.618       86.822       84.090       39.300     7538.055     7071.107     1544.522        3.247        0.808      220.758       43.311        0.038      345.531       23.125      862.786
08/20/2013  22:40:00      -45.148      -52.116       14.561       51.886       45.227       29.422     2692.145     2045.472      865.636        0.528        0.280       68.952       25.211        0.134      345.501       23.077      862.824
08/20/2013  22:41:00     -195.043      -69.407       -1.109       85.621       96.647       39.357     7330.922     9340.583     1548.983        3.054        0.911      207.024       43.194        0.044      345.564       23.182      862.796
08/20/2013  22:42:00     -228.777      -37.826       -2.147      106.981       86.079       52.502    11444.970     7409.638     2756.443        3.769        1.081      231.883       51.440        0.049      345.488       23.051      862.767
08/20/2013  22:43:00     -277.340      -30.699       -6.030      122.344      102.752       54.105    14968.031    10557.901     2927.365        5.317        1.423      279.034       57.959        0.043      345.513       23.093      862.751
08/20/2013  22:44:00     -156.528      -22.413       -7.057       76.805       58.210       38.248     5898.937     3388.461     1462.947        1.790        0.538      158.125       34.238        0.047      345.584       23.218      862.818
08/20/2013  22:45:00      -82.478       43.479       -5.219       54.188       37.904       36.251     2936.388     1436.687     1314.115        0.720        0.284       93.236       23.555        0.064      345.457       22.999      862.893
08/20/2013  22:46:00      -74.577       37.848      -11.269       36.827       57.831       25.295     1356.203     3344.414      639.852        0.623        0.267       83.631       18.140        0.047      345.441       22.970      862.941
08/20/2013  22:47:00      -77.724       60.064       -7.287       33.986       20.539       16.907     1155.068      421.833      285.840        0.578        0.093       98.228       14.201        0.021      345.426       22.945      862.970
08/20/2013  22:48:00      -33.179       49.452        5.500       37.184       34.947       22.013     1382.679     1221.288      484.583        0.333        0.154       59.551       21.050        0.125      345.398       22.901      863.004
08/20/2013  22:49:00        3.213       15.937        4.552       35.510       23.296       24.638     1260.991      542.688      607.027        0.135        0.121       16.257       19.656        1.462      345.458       23.004      863.047
08/20/2013  22:50:00      -47.339       11.214        0.419       26.748       18.778       15.356      715.445      352.614      235.809        0.184        0.065       48.649       15.303        0.099      345.550       23.159      863.088
08/20/2013  22:51:00       17.617        2.749        4.682       22.712        8.321       17.265      515.848       69.231      298.091        0.061        0.044       17.830       11.039        0.383      345.396       22.897      863.107
08/20/2013  22:52:00       10.282      -18.489       -6.772       10.314       19.014        8.445      106.372      361.538       71.326        0.052        0.027       21.156        7.322        0.120      345.581       23.212      863.110
08/20/2013  22:53:00      -48.710      -60.064       -6.442       29.749       15.696       11.417      884.991      246.353      130.357        0.364        0.063       77.333        9.191        0.014      345.667       23.359      863.088
08/20/2013  22:54:00      -96.510      -72.896       -2.776       62.246       36.329       30.482     3874.511     1319.786      929.142        1.038        0.306      120.946       32.343        0.072      345.587       23.225      863.057
08/20/2013  22:55:00       -8.693      -33.860       17.868       52.827       33.295       30.345     2790.723     1108.563      920.789        0.318        0.241       34.958       23.787        0.463      345.505       23.084      863.072
08/20/2013  22:56:00      -36.948      -86.670       10.765       33.441       33.365       27.947     1118.317     1113.205      781.038        0.600        0.151       94.217       19.785        0.044      345.546       23.153      863.121
08/20/2013  22:57:00      -32.378     -114.717       -1.658       18.666       22.806       13.205      348.415      520.119      174.361        0.763        0.052      119.198        8.254        0.005      345.640       23.316      863.167
08/20/2013  22:58:00      -40.177      -62.215       -4.687       31.277       37.751       19.970      978.270     1425.160      398.796        0.415        0.140       74.060        6.949        0.009      345.559       23.175      863.191
08/20/2013  22:59:00      -35.077      -59.243       -9.443       37.179       31.368       17.675     1382.273      983.927      312.399        0.375        0.134       68.849       11.538        0.028      345.605       23.254      863.190
08/20/2013  23:00:00        0.128       -3.012       13.268       14.159       10.609       11.231      200.477      112.543      126.126        0.031        0.022        3.014        8.651        8.236      345.540       23.143      863.179
08/20/2013  23:01:00      -16.862       11.647       10.347       17.022       15.056       19.737      289.754      226.685      389.536        0.072        0.045       20.493       11.610        0.321      345.547       23.154      863.176
08/20/2013  23:02:00       -1.610       11.278       15.875       18.975        8.758       15.956      360.048       76.694      254.585        0.054        0.035       11.392        6.509        0.326      345.515       23.098      863.169
08/20/2013  23:03:00        1.900        3.928       11.212       19.590       13.050       16.679      383.755      170.292      278.195        0.049        0.042        4.364       10.978        6.329      345.476       23.032      863.160
08/20/2013  23:04:00        9.185       38.070       13.763       17.420       25.676       16.566      303.461      659.235      274.416        0.148        0.062       39.162        9.667        0.061      345.427       22.949      863.161
08/20/2013  23:05:00       35.848       44.277        3.728       16.982       16.354        9.093      288.396      267.469       82.678        0.195        0.032       56.970        8.100        0.020      345.461       23.005      863.159
08/20/2013  23:06:00        2.954       31.700       -3.596       15.546       11.415        8.403      241.679      130.304       70.612        0.073        0.022       31.837        6.727        0.045      345.487       23.051      863.146
08/20/2013  23:07:00       -4.379       10.838        0.677        7.077       23.897        8.573       50.090      571.057       73.504        0.042        0.035       11.689        8.165        0.488      345.498       23.069      863.149
08/20/2013  23:08:00       -5.611       -3.294        3.847        9.118        8.121       10.506       83.140       65.948      110.381        0.016        0.013        6.507        8.200        1.588      345.410       22.919      863.155
08/20/2013  23:09:00       -3.103       18.401       10.398       11.479       15.422       14.339      131.770      237.829      205.608        0.052        0.029       18.661       10.697        0.329      345.376       22.864      863.176
08/20/2013  23:10:00      -18.225       -7.954       -0.759       15.031       15.754       16.714      225.919      248.174      279.367        0.057        0.038       19.885        8.780        0.195      345.430       22.955      863.197
08/20/2013  23:11:00      -21.428      -16.448       -8.228       11.205       11.654       11.505      125.548      135.824      132.361        0.060        0.020       27.013        3.994        0.022      345.352       22.820      863.200
08/20/2013  23:12:00       14.397      -11.538       -3.175       19.882       10.267       11.193      395.284      105.402      125.283        0.049        0.031       18.450        6.676        0.131      345.205       22.569      863.201
08/20/2013  23:13:00        9.944      -19.996       -1.159       17.100       10.679       11.565      292.423      114.040      133.743        0.052        0.027       22.332        5.076        0.052      345.266       22.673      863.206
08/20/2013  23:14:00      -24.342       -8.255        2.045       15.924       12.771        9.173      253.580      163.101       84.145        0.058        0.025       25.704        4.374        0.029      345.380       22.870      863.214
08/20/2013  23:15:00       -8.911       -4.926       18.622       16.955       20.943        8.654      287.466      438.618       74.892        0.063        0.040       10.182        7.311        0.516      345.434       22.962      863.218
08/20/2013  23:16:00       41.328      -53.893      -10.492       20.622       23.418       17.791      425.263      548.384      316.533        0.301        0.065       67.916       15.403        0.051      345.441       22.972      863.221
08/20/2013  23:17:00       58.687      -96.905       -4.590       39.484       27.080       19.385     1559.025      733.317      375.765        0.776        0.133      113.290       17.463        0.024      345.800       23.591      863.220
08/20/2013  23:18:00        1.638      -10.497       25.963       24.474       41.365       26.604      598.962     1711.100      707.750        0.190        0.151       10.624       28.292        7.091      345.529       23.124      863.209
08/20/2013  23:19:00       25.015      -23.340       22.948       36.425       33.512       22.003     1326.801     1123.057      484.123        0.232        0.147       34.213       17.899        0.274      345.602       23.250      863.211
08/20/2013  23:20:00      -18.922       -8.759       13.510       32.088       28.016       14.157     1029.638      784.904      200.419        0.132        0.101       20.851       16.914        0.658      345.489       23.056      863.211
08/20/2013  23:21:00       -5.675      -40.953       -0.662      100.730       51.415       40.513    10146.575     2643.492     1641.290        0.807        0.722       41.344       47.344        1.311      345.684       23.391      863.218
08/20/2013  23:22:00       72.666      -52.462        0.982       63.530       49.446       39.715     4036.045     2444.950     1577.301        0.804        0.403       89.625       30.814        0.118      345.695       23.409      863.232
08/20/2013  23:23:00       40.204      -28.135       32.282       67.141       80.122       44.160     4507.897     6419.463     1950.086        0.816        0.644       49.071       51.294        1.093      345.676       23.377      863.258
08/20/2013  23:24:00       43.729      -44.192       18.721       64.027       93.956       44.951     4099.520     8827.798     2020.558        0.958        0.747       62.170       54.744        0.775      345.374       22.859      863.277
08/20/2013  23:25:00      117.507     -117.870      -11.265       68.804       62.001       39.016     4733.982     3844.097     1522.249        1.896        0.505      166.437       42.288        0.065      345.744       23.491      863.280
08/20/2013  23:26:00      123.712      -82.677        9.382      100.047      111.707       64.403    10009.302    12478.411     4147.710        2.443        1.332      148.796       74.736        0.252      345.726       23.461      863.273
08/20/2013  23:27:00      102.669      -80.748       52.895      110.333      161.623       87.087    12173.345    26122.008     7584.217        3.286        2.294      130.619      119.610        0.839      345.734       23.474      863.265
08/20/2013  23:28:00        2.546      -90.743        8.715       46.472       59.930       42.739     2159.657     3591.567     1826.606        0.795        0.379       90.779       25.655        0.080      345.638       23.312      863.281
08/20/2013  23:29:00       42.670      -84.372       15.179       41.468       65.627       31.301     1719.572     4306.852      979.767        0.809        0.350       94.548       33.421        0.125      345.586       23.221      863.288
08/20/2013  23:30:00       53.044      -97.980       -6.943       38.102       47.331       27.478     1451.750     2240.191      755.026        0.845        0.222      111.417       21.368        0.037      345.573       23.199      863.274
08/20/2013  23:31:00       17.881      -53.788        6.803       62.377       68.976       24.145     3890.923     4757.662      582.996        0.624        0.462       56.682       25.451        0.202      345.597       23.240      863.245
08/20/2013  23:32:00      -12.598      -41.376        6.917       24.847       43.084       22.567      617.378     1856.262      509.255        0.245        0.149       43.252       22.107        0.261      345.543       23.149      863.241
08/20/2013  23:33:00       16.094       -9.722       13.997       27.993       27.044       23.144      783.592      731.365      535.664        0.130        0.103       18.802       17.222        0.839      345.356       22.828      863.260
08/20/2013  23:34:00      139.213     -125.387       -2.257       48.125       67.791       36.593     2315.978     4595.589     1339.057        2.168        0.413      187.356       32.235        0.030      345.608       23.258      863.267
08/20/2013  23:35:00      112.761     -112.237      -13.622       67.674       77.812       43.263     4579.779     6054.783     1871.725        1.900        0.625      159.098       31.044        0.038      345.659       23.346      863.233
08/20/2013  23:36:00        5.739      -90.555      -21.916       77.229       44.102       21.840     5964.280     1944.961      476.971        0.855        0.419       90.737       20.371        0.050      345.574       23.200      863.199
08/20/2013  23:37:00      -42.546      -35.857       -4.920       22.231       17.943       14.216      494.238      321.943      202.103        0.207        0.051       55.641        6.429        0.013      345.426       22.945      863.171
08/20/2013  23:38:00      -88.325      -45.107       -4.975       32.888       27.813       20.341     1081.590      773.569      413.740        0.606        0.113       99.176       13.626        0.019      345.451       22.988      863.137
08/20/2013  23:39:00     -155.149      -62.981       -4.381       28.552       29.216       19.798      815.208      853.584      391.942        1.506        0.103      167.445       17.286        0.011      345.540       23.144      863.091
08/20/2013  23:40:00     -102.287      -48.333        6.035       61.354       40.156       29.436     3764.290     1612.517      866.462        0.954        0.312      113.131       22.746        0.040      345.494       23.064      863.066
08/20/2013  23:41:00      -84.483      -64.436        2.748       53.998       30.331       22.223     2915.801      919.945      493.881        0.781        0.216      106.252       20.159        0.036      345.554       23.168      863.049
08/20/2013  23:42:00     -108.304      -74.151       -3.710       29.472       27.551       23.496      868.627      759.054      552.077        0.971        0.109      131.256       17.878        0.019      345.575       23.203      863.034
08/20/2013  23:43:00     -135.806      -23.386        0.470       59.191       37.028       24.720     3503.632     1371.056      611.096        1.224        0.274      137.805       24.518        0.032      345.522       23.112      863.049
08/20/2013  23:44:00     -152.750      -45.874       -5.432       59.684       48.714       33.843     3562.202     2373.050     1145.365        1.627        0.354      159.490       33.949        0.045      345.413       22.923      863.087
08/20/2013  23:45:00     -172.079       15.605      -12.442       38.548       42.913       24.747     1485.977     1841.492      612.433        1.697        0.197      172.785       18.960        0.012      345.325       22.774      863.101
08/20/2013  23:46:00      -98.908        4.801       -4.162       42.722       44.265       26.121     1825.199     1959.393      682.304        0.714        0.223       99.025       18.642        0.035      345.230       22.610      863.098
08/20/2013  23:47:00      -85.461      -18.041        0.257       54.209       42.132       25.707     2938.591     1775.088      660.839        0.650        0.269       87.344       27.218        0.097      345.231       22.613      863.109
08/20/2013  23:48:00      -83.620      -23.794        2.061       42.823       32.811       16.674     1833.786     1076.538      278.021        0.538        0.159       86.940       18.626        0.046      345.217       22.589      863.139
08/20/2013  23:49:00      -61.508      -25.893        5.766       33.816       31.725       20.599     1143.513     1006.452      424.307        0.353        0.129       66.735       21.833        0.107      345.219       22.591      863.175
08/20/2013  23:50:00      -67.719        1.134        2.429       31.312       19.863       15.357      980.434      394.525      235.841        0.310        0.081       67.729       13.425        0.039      345.176       22.518      863.234
08/20/2013  23:51:00      -35.656       14.474        5.554       27.597       18.907       14.937      761.609      357.476      223.118        0.143        0.067       38.482       12.113        0.099      345.109       22.406      863.296
08/20/2013  23:52:00       -8.137        1.918        6.279       21.473       14.069       11.133      461.111      197.929      123.951        0.045        0.039        8.360        9.385        1.260      344.931       22.100      863.348
08/20/2013  23:53:00      -22.924      -36.090       -6.732       20.223       16.239       14.539      408.970      263.714      211.376        0.138        0.044       42.755       11.206        0.069      345.280       22.699      863.353
08/20/2013  23:54:00      -79.843       13.465       -7.547       23.608       23.415       11.805      557.344      548.271      139.368        0.393        0.062       80.971       10.012        0.015      345.146       22.468      863.315
08/20/2013  23:55:00     -120.493       -3.492       -9.006       29.030       36.343       15.461      842.748     1320.790      239.055        0.851        0.120      120.544       10.615        0.008      345.104       22.398      863.281
08/20/2013  23:56:00      -66.122       -7.554        4.757       43.991       32.806       17.575     1935.224     1076.208      308.878        0.389        0.166       66.552       15.770        0.056      345.079       22.353      863.276
08/20/2013  23:57:00      -53.170        5.456        4.461       25.150       19.301       14.483      632.523      372.545      209.750        0.205        0.061       53.449       10.622        0.039      345.103       22.394      863.281
08/20/2013  23:58:00        6.425       25.071       18.257       31.340        7.914       13.220      982.188       62.625      174.767        0.111        0.061       25.882       14.611        0.319      345.032       22.274      863.283
08/20/2013  23:59:00       48.630       25.325       -0.334       22.687       21.250       15.994      514.701      451.557      255.814        0.211        0.061       54.829       13.410        0.060      344.800       21.875      863.288
